[[{"header":{"parameterUnit":"m.s-1","parameterCategory":1,"la1":31.0,"la2":29.5877,"lo1":-88.7671,"lo2":-86.6584,"dy":0.0162,"dx":0.0185,"nx":115,"ny":88,"refTime":"2023-05-13T06:00:00:Z","depth":0,"parameterNumber":2,"parameterNumberName":"U-component_of_WINDS"},"data":[0.0,0.0,0.0,0.0,0.0,0.0,0.0,0.0,0.0,0.0,0.0,0.0,0.0,0.0,0.0,0.0,0.0,0.0,0.0,0.0,0.0,0.0,0.0,0.0,0.0,0.0,0.0,0.0,0.0,0.0,0.0,0.0,0.0,0.0,0.0,0.0,0.0,0.0,0.0,0.0,0.0,0.0,0.0,0.0,0.0,0.0,0.0,0.0,0.0,0.0,0.0,0.0,0.0,0.0,0.0,0.0,0.0,0.0,0.0,0.0,0.0,0.0,0.0,0.0,0.0,0.0,0.0,0.0,0.0,0.0,0.0,0.0,0.0,0.0,0.0,0.0,0.0,0.0,0.0,0.0,0.0,0.0,0.0,0.0,0.0,0.0,0.0,0.0,0.0,0.0,0.0,0.0,0.0,0.0,0.0,0.0,0.0,0.0,0.0,0.0,0.0,0.0,0.0,0.0,0.0,0.0,0.0,0.0,0.0,0.0,0.0,0.0,0.0,0.0,0.0,0.0,0.0,0.0,0.0,0.0,0.0,0.0,0.0,0.0,0.0,0.0,0.0,0.0,0.0,0.0,0.0,0.0,0.0,0.0,0.0,0.0,0.0,0.0,0.0,0.0,0.0,0.0,0.0,0.0,0.0,0.0,0.0,0.0,0.0,0.0,0.0,0.0,0.0,0.0,0.0,0.0,0.0,0.0,0.0,0.0,0.0,0.0,0.0,0.0,0.0,0.0,0.0,0.0,0.0,0.0,0.0,0.0,0.0,0.0,0.0,0.0,0.0,0.0,0.0,0.0,0.0,0.0,0.0,0.0,0.0,0.0,0.0,0.0,0.0,0.0,0.0,0.0,0.0,0.0,0.0,0.0,0.0,0.0,0.0,0.0,0.0,0.0,0.0,0.0,0.0,0.0,0.0,0.0,0.0,0.0,0.0,0.0,0.0,0.0,0.0,0.0,0.0,0.0,0.0,0.0,0.0,0.0,0.0,0.0,0.0,0.0,0.0,0.0,0.0,0.0,0.0,0.0,0.0,0.0,0.0,0.0,0.0,0.0,0.0,0.0,0.0,0.0,0.0,0.0,0.0,0.0,0.0,0.0,0.0,0.0,0.0,0.0,0.0,0.0,0.0,0.0,0.0,0.0,0.0,0.0,0.0,0.0,0.0,0.0,0.0,0.0,0.0,0.0,0.0,0.0,0.0,0.0,0.0,0.0,0.0,0.0,0.0,0.0,0.0,0.0,0.0,0.0,0.0,0.0,0.0,0.0,0.0,0.0,0.0,0.0,0.0,0.0,0.0,0.0,0.0,0.0,0.0,0.0,0.0,0.0,0.0,0.0,0.0,0.0,0.0,0.0,0.0,0.0,0.0,0.0,0.0,0.0,0.0,0.0,0.0,0.0,0.0,0.0,0.0,0.0,0.0,0.0,0.0,0.0,0.0,0.0,0.0,0.0,0.0,0.0,0.0,0.0,0.0,0.0,0.0,0.0,0.0,0.0,0.0,0.0,0.0,0.0,0.0,0.0,0.0,0.0,0.0,0.0,0.0,0.0,0.0,0.0,0.0,0.0,0.0,0.0,0.0,0.0,0.0,0.0,0.0,0.0,0.0,0.0,0.0,0.0,0.0,0.0,0.0,0.0,0.0,0.0,0.0,0.0,0.0,0.0,0.0,0.0,0.0,0.0,0.0,0.0,0.0,0.0,0.0,0.0,0.0,0.0,0.0,0.0,0.0,0.0,0.0,0.0,0.0,0.0,0.0,0.0,0.0,0.0,0.0,0.0,0.0,0.0,0.0,0.0,0.0,0.0,0.0,0.0,0.0,0.0,0.0,0.0,0.0,0.0,0.0,0.0,0.0,0.0,0.0,0.0,0.0,0.0,0.0,0.0,0.0,0.0,0.0,0.0,0.0,0.0,0.0,0.0,0.0,0.0,0.0,0.0,0.0,0.0,0.0,0.0,0.0,0.0,0.0,0.0,0.0,0.0,0.0,0.0,0.0,0.0,0.0,0.0,0.0,0.0,0.0,0.0,0.0,0.0,0.0,0.0,0.0,0.0,0.0,0.0,0.0,0.0,0.0,0.0,0.0,0.0,0.0,0.0,0.0,0.0,0.0,0.0,0.0,0.0,0.0,0.0,0.0,0.0,0.0,0.0,0.0,0.0,0.0,0.0,0.0,0.0,0.0,0.0,0.0,0.0,0.0,0.0,0.0,0.0,0.0,0.0,0.0,0.0,0.0,0.0,0.0,0.0,0.0,0.0,0.0,0.0,0.0,0.0,0.0,0.0,0.0,0.0,0.0,0.0,0.0,0.0,0.0,0.0,0.0,0.0,0.0,0.0,0.0,0.0,0.0,0.0,0.0,0.0,0.0,0.0,0.0,0.0,0.0,0.0,0.0,0.0,0.0,0.0,0.0,0.0,0.0,0.0,0.0,0.0,0.0,0.0,0.0,0.0,0.0,0.0,0.0,0.0,0.0,0.0,0.0,0.0,0.0,0.0,0.0,0.0,0.0,0.0,0.0,0.0,0.0,0.0,0.0,0.0,0.0,0.0,0.0,0.0,0.0,0.0,0.0,0.0,0.0,0.0,0.0,0.0,0.0,0.0,0.0,0.0,0.0,0.0,0.0,0.0,0.0,0.0,0.0,0.0,0.0,0.0,0.0,0.0,0.0,0.0,0.0,0.0,0.0,0.0,0.0,0.0,0.0,0.0,0.0,0.0,0.0,0.0,0.0,0.0,0.0,0.0,0.0,0.0,0.0,0.0,0.0,0.0,0.0,0.0,0.0,0.0,0.0,0.0,0.0,0.0,0.0,0.0,0.0,0.0,0.0,0.0,0.0,0.0,0.0,0.0,0.0,0.0,0.0,0.0,0.0,0.0,0.0,0.0,0.0,0.0,0.0,0.0,0.0,0.0,0.0,0.0,0.0,0.0,0.0,0.0,0.0,0.0,0.0,0.0,0.0,0.0,0.0,0.0,0.0,0.0,0.0,0.0,0.0,0.0,0.0,0.0,0.0,0.0,0.0,0.0,0.0,0.0,0.0,0.0,0.0,0.0,0.0,0.0,0.0,0.0,0.0,0.0,0.0,0.0,0.0,0.0,0.0,0.0,0.0,0.0,0.0,0.0,0.0,0.0,0.0,0.0,0.0,0.0,0.0,0.0,0.0,0.0,0.0,0.0,0.0,0.0,0.0,0.0,0.0,0.0,0.0,0.0,0.0,0.0,0.0,0.0,0.0,0.0,0.0,0.0,0.0,0.0,0.0,0.0,0.0,0.0,0.0,0.0,0.0,0.0,0.0,0.0,0.0,0.0,0.0,0.0,0.0,0.0,0.0,0.0,0.0,0.0,0.0,0.0,0.0,0.0,0.0,0.0,0.0,0.0,0.0,0.0,0.0,0.0,0.0,0.0,0.0,0.0,0.0,0.0,0.0,0.0,0.0,0.0,0.0,0.0,0.0,0.0,0.0,0.0,0.0,0.0,0.0,0.0,0.0,0.0,0.0,0.0,0.0,0.0,0.0,0.0,0.0,0.0,0.0,0.0,0.0,0.0,0.0,0.0,0.0,0.0,0.0,0.0,0.0,0.0,0.0,0.0,0.0,0.0,0.0,0.0,0.0,0.0,0.0,0.0,0.0,0.0,0.0,0.0,0.0,0.0,0.0,0.0,0.0,0.0,0.0,0.0,0.0,0.0,0.0,0.0,0.0,0.0,0.0,0.0,0.0,0.0,0.0,0.0,0.0,0.0,0.0,0.0,0.0,0.0,0.0,0.0,0.0,0.0,0.0,0.0,0.0,0.0,0.0,0.0,0.0,0.0,0.0,0.0,0.0,0.0,0.0,0.0,0.0,0.0,0.0,0.0,0.0,0.0,0.0,0.0,0.0,0.0,0.0,0.0,0.0,0.0,0.0,0.0,0.0,0.0,0.0,0.0,0.0,0.0,0.0,0.0,0.0,0.0,0.0,0.0,0.0,0.0,0.0,0.0,0.0,0.0,0.0,0.0,0.0,0.0,0.0,0.0,0.0,0.0,0.0,0.0,0.0,0.0,0.0,0.0,0.0,0.0,0.0,0.0,0.0,0.0,0.0,0.0,0.0,0.0,0.0,0.0,0.0,0.0,0.0,0.0,0.0,0.0,0.0,0.0,0.0,0.0,0.0,0.0,0.0,0.0,0.0,0.0,0.0,0.0,0.0,0.0,0.0,0.0,0.0,0.0,0.0,0.0,0.0,0.0,0.0,0.0,0.0,0.0,0.0,0.0,0.0,0.0,0.0,0.0,2.0552,0.0,0.0,0.0,0.0,0.0,0.0,0.0,0.0,0.0,0.0,0.0,0.0,0.0,0.0,0.0,0.0,0.0,0.0,0.0,0.0,0.0,0.0,0.0,0.0,0.0,0.0,0.0,0.0,0.0,0.0,0.0,0.0,0.0,0.0,0.0,0.0,0.0,0.0,0.0,0.0,0.0,0.0,0.0,0.0,0.0,0.0,0.0,0.0,0.0,0.0,0.0,0.0,0.0,0.0,0.0,0.0,0.0,0.0,0.0,0.0,0.0,0.0,0.0,0.0,0.0,0.0,0.0,0.0,0.0,0.0,0.0,0.0,0.0,0.0,0.0,0.0,0.0,0.0,0.0,0.0,0.0,0.0,0.0,0.0,0.0,0.0,0.0,0.0,0.0,0.0,0.0,0.0,0.0,0.0,0.0,0.0,0.0,0.0,0.0,0.0,0.0,0.0,0.0,0.0,0.0,0.0,0.0,0.0,0.0,0.0,2.1483,2.0644,2.1406,2.1443,2.0597,0.0,0.0,0.0,0.0,0.0,0.0,0.0,0.0,0.0,0.0,0.0,0.0,0.0,0.0,0.0,0.0,0.0,0.0,0.0,0.0,0.0,0.0,0.0,0.0,0.0,0.0,0.0,0.0,0.0,0.0,0.0,0.0,0.0,0.0,0.0,0.0,0.0,0.0,0.0,0.0,0.0,0.0,0.0,0.0,0.0,0.0,0.0,0.0,0.0,0.0,0.0,0.0,0.0,0.0,0.0,0.0,0.0,0.0,0.0,0.0,0.0,0.0,0.0,0.0,0.0,0.0,0.0,0.0,0.0,0.0,0.0,0.0,0.0,0.0,0.0,0.0,0.0,0.0,0.0,0.0,0.0,0.0,0.0,0.0,0.0,0.0,0.0,0.0,0.0,0.0,0.0,0.0,0.0,0.0,0.0,0.0,0.0,0.0,0.0,0.0,0.0,0.0,0.0,0.0,0.0,0.0,0.0,0.0,0.0,0.0,0.0,0.0,2.121,2.123,2.0637,0.0,0.0,0.0,0.0,0.0,0.0,0.0,0.0,0.0,0.0,0.0,0.0,0.0,0.0,0.0,0.0,0.0,0.0,0.0,0.0,0.0,0.0,0.0,0.0,0.0,0.0,0.0,0.0,0.0,0.0,0.0,0.0,0.0,0.0,0.0,0.0,0.0,0.0,0.0,0.0,0.0,0.0,0.0,0.0,0.0,0.0,0.0,0.0,0.0,0.0,0.0,0.0,0.0,0.0,0.0,0.0,0.0,0.0,0.0,0.0,0.0,0.0,0.0,0.0,0.0,0.0,0.0,0.0,0.0,0.0,0.0,0.0,0.0,0.0,0.0,0.0,0.0,0.0,0.0,0.0,0.0,0.0,0.0,0.0,0.0,0.0,0.0,0.0,0.0,0.0,0.0,0.0,0.0,0.0,0.0,0.0,0.0,0.0,0.0,0.0,0.0,0.0,0.0,0.0,0.0,0.0,0.0,0.0,0.0,0.0,2.0674,2.0615,2.0674,0.0,2.0596,0.0,0.0,0.0,0.0,0.0,0.0,0.0,0.0,0.0,0.0,0.0,0.0,0.0,0.0,0.0,0.0,0.0,0.0,0.0,0.0,0.0,0.0,0.0,0.0,0.0,0.0,0.0,0.0,0.0,0.0,0.0,0.0,0.0,0.0,0.0,0.0,0.0,0.0,0.0,0.0,0.0,0.0,0.0,0.0,0.0,0.0,0.0,0.0,0.0,0.0,0.0,0.0,0.0,0.0,0.0,0.0,0.0,0.0,0.0,0.0,0.0,0.0,0.0,0.0,0.0,0.0,0.0,0.0,0.0,0.0,0.0,0.0,0.0,0.0,0.0,0.0,0.0,0.0,0.0,0.0,0.0,0.0,0.0,0.0,0.0,0.0,0.0,0.0,0.0,0.0,0.0,0.0,0.0,0.0,0.0,0.0,0.0,0.0,0.0,0.0,0.0,0.0,0.0,0.0,0.0,0.0,0.0,0.0,0.0,0.0,2.0591,2.0605,2.0596,2.0604,0.0,0.0,0.0,0.0,0.0,0.0,0.0,0.0,0.0,0.0,0.0,0.0,0.0,0.0,0.0,0.0,0.0,0.0,0.0,0.0,0.0,0.0,0.0,0.0,0.0,0.0,0.0,0.0,0.0,0.0,0.0,0.0,0.0,0.0,0.0,0.0,0.0,0.0,0.0,0.0,0.0,0.0,0.0,0.0,0.0,0.0,0.0,0.0,0.0,0.0,0.0,0.0,0.0,0.0,0.0,0.0,0.0,0.0,0.0,0.0,0.0,0.0,0.0,0.0,0.0,0.0,0.0,0.0,0.0,0.0,0.0,0.0,0.0,0.0,0.0,0.0,0.0,0.0,0.0,0.0,0.0,0.0,0.0,0.0,0.0,0.0,0.0,0.0,0.0,0.0,0.0,0.0,0.0,0.0,0.0,0.0,0.0,0.0,0.0,0.0,0.0,0.0,0.0,0.0,0.0,0.0,0.0,0.0,0.0,0.0,2.0575,2.0573,2.057,2.0596,2.0604,2.0604,0.0,0.0,0.0,0.0,0.0,0.0,0.0,0.0,0.0,0.0,0.0,0.0,0.0,0.0,0.0,0.0,0.0,0.0,0.0,0.0,0.0,0.0,0.0,0.0,0.0,0.0,0.0,0.0,0.0,0.0,0.0,0.0,0.0,0.0,0.0,0.0,0.0,0.0,0.0,0.0,0.0,0.0,0.0,0.0,0.0,0.0,0.0,0.0,0.0,0.0,0.0,0.0,0.0,0.0,0.0,0.0,0.0,0.0,0.0,0.0,0.0,0.0,0.0,0.0,0.0,0.0,0.0,0.0,0.0,0.0,0.0,0.0,0.0,0.0,0.0,0.0,0.0,0.0,0.0,0.0,0.0,0.0,0.0,0.0,0.0,0.0,0.0,0.0,0.0,0.0,0.0,0.0,0.0,0.0,0.0,0.0,0.0,0.0,0.0,0.0,0.0,0.0,0.0,0.0,0.0,0.0,0.0,0.0,2.0584,2.0505,2.0484,2.0484,2.0558,2.0602,0.0,0.0,0.0,0.0,0.0,0.0,0.0,0.0,0.0,0.0,0.0,0.0,0.0,0.0,0.0,0.0,0.0,0.0,0.0,0.0,0.0,0.0,0.0,0.0,0.0,0.0,0.0,0.0,0.0,0.0,0.0,0.0,0.0,0.0,0.0,0.0,0.0,0.0,0.0,0.0,0.0,0.0,0.0,0.0,0.0,0.0,0.0,0.0,0.0,0.0,0.0,0.0,0.0,0.0,0.0,0.0,0.0,0.0,0.0,0.0,0.0,0.0,0.0,0.0,0.0,0.0,0.0,0.0,0.0,0.0,0.0,0.0,0.0,0.0,0.0,0.0,0.0,0.0,0.0,0.0,0.0,0.0,0.0,0.0,0.0,0.0,0.0,0.0,0.0,0.0,0.0,0.0,0.0,0.0,0.0,0.0,0.0,0.0,0.0,0.0,0.0,0.0,0.0,0.0,0.0,0.0,0.0,0.0,0.0,1.9667,1.906,1.9056,1.9622,1.9745,1.9999,0.0,0.0,0.0,0.0,0.0,0.0,0.0,0.0,0.0,0.0,0.0,0.0,0.0,0.0,0.0,0.0,0.0,0.0,0.0,0.0,0.0,0.0,0.0,0.0,0.0,0.0,0.0,0.0,0.0,0.0,0.0,0.0,0.0,0.0,0.0,0.0,0.0,0.0,0.0,0.0,0.0,0.0,0.0,0.0,0.0,0.0,0.0,0.0,0.0,0.0,0.0,0.0,0.0,0.0,0.0,0.0,0.0,0.0,0.0,0.0,0.0,0.0,0.0,0.0,0.0,0.0,0.0,0.0,0.0,0.0,0.0,0.0,0.0,0.0,0.0,0.0,0.0,0.0,0.0,0.0,0.0,0.0,0.0,0.0,0.0,0.0,0.0,0.0,0.0,0.0,0.0,0.0,0.0,0.0,0.0,0.0,0.0,0.0,0.0,0.0,0.0,0.0,0.0,0.0,0.0,0.0,0.0,0.0,0.0,1.8021,0.0,1.7757,1.8277,1.8639,1.919,0.0,0.0,0.0,0.0,0.0,0.0,0.0,0.0,0.0,0.0,0.0,0.0,0.0,0.0,0.0,0.0,0.0,0.0,0.0,0.0,0.0,0.0,0.0,0.0,0.0,0.0,0.0,0.0,0.0,0.0,0.0,0.0,0.0,0.0,0.0,0.0,0.0,0.0,0.0,0.0,0.0,0.0,0.0,0.0,0.0,0.0,0.0,0.0,0.0,0.0,0.0,0.0,0.0,0.0,0.0,0.0,0.0,0.0,0.0,0.0,0.0,0.0,0.0,0.0,0.0,0.0,0.0,0.0,0.0,0.0,0.0,0.0,0.0,0.0,0.0,0.0,0.0,0.0,0.0,0.0,0.0,0.0,0.0,0.0,0.0,0.0,0.0,0.0,0.0,0.0,0.0,0.0,0.0,0.0,0.0,0.0,0.0,0.0,0.0,0.0,0.0,0.0,0.0,0.0,0.0,0.0,0.0,0.0,1.7465,1.5746,1.6405,1.6642,1.643,1.7292,1.8173,0.0,0.0,0.0,0.0,0.0,0.0,0.0,0.0,0.0,0.0,0.0,0.0,0.0,0.0,0.0,0.0,0.0,0.0,0.0,0.0,0.0,0.0,0.0,0.0,0.0,0.0,0.0,0.0,0.0,0.0,0.0,0.0,0.0,0.0,0.0,0.0,0.0,0.0,0.0,0.0,0.0,0.0,0.0,0.0,0.0,0.0,0.0,0.0,0.0,0.0,0.0,0.0,0.0,0.0,0.0,0.0,0.0,0.0,0.0,0.0,0.0,0.0,0.0,0.0,0.0,0.0,0.0,0.0,0.0,0.0,0.0,0.0,0.0,0.0,0.0,0.0,0.0,0.0,0.0,0.0,0.0,0.0,0.0,0.0,0.0,0.0,0.0,0.0,0.0,0.0,0.0,0.0,0.0,0.0,0.0,0.0,0.0,0.0,0.0,0.0,0.0,0.0,0.0,0.0,0.0,0.0,0.0,0.0,0.0,1.4858,1.4337,1.4563,1.5533,1.5808,1.6888,0.0,0.0,0.0,0.0,0.0,0.0,0.0,0.0,0.0,0.0,0.0,0.0,0.0,0.0,0.0,0.0,0.0,0.0,0.0,0.0,0.0,0.0,0.0,0.0,0.0,0.0,0.0,0.0,0.0,0.0,0.0,0.0,0.0,0.0,0.0,0.0,0.0,0.0,0.0,0.0,0.0,0.0,0.0,0.0,0.0,0.0,0.0,0.0,0.0,0.0,0.0,0.0,0.0,0.0,0.0,0.0,0.0,0.0,0.0,0.0,0.0,0.0,0.0,0.0,0.0,0.0,0.0,0.0,0.0,0.0,0.0,0.0,0.0,0.0,0.0,0.0,0.0,0.0,0.0,0.0,0.0,0.0,0.0,0.0,0.0,0.0,0.0,0.0,0.0,0.0,0.0,0.0,0.0,0.0,0.0,0.0,0.0,0.0,0.0,0.0,0.0,0.0,0.0,0.0,0.0,0.0,0.0,0.0,0.0,1.3511,1.2682,1.2836,1.408,1.4535,1.5605,1.7362,0.0,0.0,0.0,0.0,0.0,0.0,0.0,0.0,0.0,0.0,0.0,0.0,0.0,0.0,0.0,0.0,0.0,0.0,0.0,0.0,0.0,0.0,0.0,0.0,0.0,0.0,0.0,0.0,0.0,0.0,0.0,0.0,0.0,0.0,0.0,0.0,0.0,0.0,0.0,0.0,0.0,0.0,0.0,0.0,0.0,0.0,0.0,0.0,0.0,0.0,0.0,0.0,0.0,0.0,0.0,0.0,0.0,0.0,0.0,0.0,0.0,0.0,0.0,0.0,0.0,0.0,0.0,0.0,0.0,0.0,0.0,0.0,0.0,0.0,0.0,0.0,0.0,0.0,0.0,0.0,0.0,0.0,0.0,0.0,0.0,0.0,0.0,0.0,0.0,0.0,0.0,0.0,0.0,0.0,0.0,0.0,0.0,0.0,0.0,0.0,0.0,0.0,0.0,0.0,0.0,0.0,0.0,0.0,1.1941,1.1453,1.1574,1.2366,1.3509,1.4402,0.0,0.0,0.0,0.0,0.0,0.0,0.0,0.0,0.0,0.0,0.0,0.0,0.0,0.0,0.0,0.0,0.0,0.0,0.0,0.0,0.0,0.0,0.0,0.0,0.0,0.0,0.0,0.0,0.0,0.0,0.0,0.0,0.0,0.0,0.0,0.0,0.0,0.0,0.0,0.0,0.0,0.0,0.0,0.0,0.0,0.0,0.0,0.0,0.0,0.0,0.0,0.0,0.0,0.0,0.0,0.0,0.0,0.0,0.0,0.0,0.0,0.0,0.0,0.0,0.0,0.0,0.0,0.0,0.0,0.0,0.0,0.0,0.0,0.0,0.0,0.0,0.0,0.0,0.0,0.0,0.0,0.0,0.0,0.0,0.0,0.0,0.0,0.0,0.0,0.0,0.0,0.0,0.0,0.0,0.0,0.0,0.0,0.0,0.0,0.0,0.0,0.0,0.0,0.0,0.0,0.0,0.0,0.0,0.0,1.2256,1.081,1.0836,1.2589,1.3009,1.3733,0.0,0.0,0.0,0.0,0.0,0.0,0.0,0.0,0.0,0.0,0.0,0.0,0.0,0.0,0.0,0.0,0.0,0.0,0.0,0.0,0.0,0.0,0.0,0.0,0.0,0.0,0.0,0.0,0.0,0.0,0.0,0.0,0.0,0.0,0.0,0.0,0.0,0.0,0.0,0.0,0.0,0.0,0.0,0.0,0.0,0.0,0.0,0.0,0.0,0.0,0.0,0.0,0.0,0.0,0.0,0.0,0.0,0.0,0.0,0.0,0.0,0.0,0.0,0.0,0.0,0.0,0.0,0.0,0.0,0.0,0.0,0.0,0.0,0.0,0.0,0.0,0.0,0.0,0.0,0.0,0.0,0.0,0.0,0.0,0.0,0.0,0.0,0.0,0.0,0.0,0.0,0.0,0.0,0.0,0.0,0.0,0.0,0.0,0.0,0.0,0.0,0.0,0.0,0.0,0.0,0.0,0.0,0.0,1.0996,1.2009,1.0233,1.0409,1.2733,1.3083,1.3448,0.0,0.0,0.0,0.0,0.0,0.0,0.0,0.0,0.0,0.0,0.0,0.0,0.0,0.0,0.0,0.0,0.0,0.0,0.0,0.0,0.0,0.0,0.0,0.0,0.0,0.0,0.0,0.0,0.0,0.0,0.0,0.0,0.0,0.0,0.0,0.0,0.0,0.0,0.0,0.0,0.0,0.0,0.0,0.0,0.0,0.0,0.0,0.0,0.0,0.0,0.0,0.0,0.0,0.0,0.0,0.0,0.0,0.0,0.0,0.0,0.0,0.0,0.0,0.0,0.0,0.0,0.0,0.0,0.0,0.0,0.0,0.0,0.0,0.0,0.0,0.0,0.0,0.0,0.0,0.0,0.0,0.0,0.0,0.0,0.0,0.0,0.0,0.0,0.0,0.0,0.0,0.0,0.0,0.0,0.0,0.0,0.0,0.0,0.0,0.0,0.0,0.0,0.0,0.0,0.0,0.0,0.0,0.0,1.0342,1.1151,0.9759,1.0209,1.2617,1.335,1.3388,0.0,0.0,0.0,0.0,0.0,0.0,0.0,0.0,0.0,0.0,0.0,0.0,0.0,0.0,0.0,0.0,0.0,0.0,0.0,0.0,0.0,0.0,0.0,0.0,0.0,0.0,0.0,0.0,0.0,0.0,0.0,0.0,0.0,0.0,0.0,0.0,0.0,0.0,0.0,0.0,0.0,0.0,0.0,0.0,0.0,0.0,0.0,0.0,0.0,0.0,0.0,0.0,0.0,0.0,0.0,0.0,0.0,0.0,0.0,0.0,0.0,0.0,0.0,0.0,0.0,0.0,0.0,0.0,0.0,0.0,0.0,0.0,0.0,0.0,0.0,0.0,0.0,0.0,0.0,0.0,0.0,0.0,0.0,0.0,0.0,0.0,0.0,0.0,0.0,0.0,0.0,0.0,0.0,0.0,0.0,0.0,0.0,0.0,0.0,0.0,0.0,0.0,0.0,0.0,0.0,0.0,0.0,0.0,0.913,0.9867,0.9422,1.0157,1.2248,1.2756,1.3051,0.0,0.0,0.0,0.0,0.0,0.0,0.0,0.0,0.0,0.0,0.0,0.0,0.0,0.0,0.0,0.0,0.0,0.0,0.0,0.0,0.0,0.0,0.0,0.0,0.0,0.0,0.0,0.0,0.0,0.0,0.0,0.0,0.0,0.0,0.0,0.0,0.0,0.0,0.0,0.0,0.0,0.0,0.0,0.0,0.0,0.0,0.0,0.0,2.0146,0.0,0.0,0.0,0.0,0.0,0.0,0.0,0.0,0.0,0.0,0.0,0.0,0.0,0.0,0.0,0.0,0.0,0.0,0.0,0.0,0.0,0.0,0.0,0.0,0.0,0.0,0.0,0.0,0.0,0.0,0.0,0.0,0.0,0.0,0.0,0.0,0.0,0.0,0.0,0.0,0.0,0.0,0.0,0.0,0.0,0.0,0.0,0.0,0.0,0.0,0.0,0.0,0.0,0.0,0.0,0.0,0.0,0.0,0.0,0.9011,0.9649,0.9395,1.0147,1.1925,1.212,1.2554,0.0,0.0,0.0,0.0,0.0,0.0,0.0,0.0,0.0,0.0,0.0,0.0,0.0,0.0,0.0,0.0,0.0,0.0,0.0,0.0,0.0,0.0,0.0,0.0,0.0,0.0,0.0,0.0,0.0,0.0,0.0,0.0,0.0,0.0,0.0,0.0,0.0,0.0,0.0,0.0,0.0,0.0,0.0,0.0,0.0,0.0,0.0,0.0,0.0,0.0,0.0,0.0,0.0,0.0,0.0,0.0,0.0,0.0,0.0,0.0,0.0,0.0,0.0,0.0,0.0,0.0,0.0,0.0,0.0,0.0,0.0,0.0,0.0,0.0,0.0,0.0,0.0,0.0,0.0,0.0,0.0,0.0,0.0,0.0,0.0,0.0,0.0,0.0,0.0,0.0,0.0,0.0,0.0,0.0,0.0,0.0,0.0,0.0,0.0,0.0,0.0,0.0,0.0,0.0,0.0,0.0,0.0,0.9705,0.9245,0.9797,0.9498,1.0156,1.1836,1.1698,1.2118,1.326,0.0,0.0,0.0,0.0,0.0,0.0,0.0,0.0,0.0,0.0,0.0,0.0,0.0,0.0,0.0,0.0,0.0,0.0,0.0,0.0,0.0,0.0,0.0,0.0,0.0,0.0,0.0,0.0,0.0,0.0,0.0,0.0,0.0,0.0,0.0,0.0,0.0,0.0,1.9708,1.8623,0.0,0.0,0.0,0.0,0.0,0.0,0.0,0.0,1.7506,0.0,0.0,0.0,0.0,0.0,0.0,0.0,0.0,0.0,0.0,0.0,0.0,0.0,0.0,0.0,0.0,0.0,0.0,0.0,0.0,0.0,0.0,0.0,0.0,0.0,0.0,0.0,0.0,0.0,0.0,0.0,0.0,0.0,0.0,0.0,0.0,0.0,0.0,0.0,0.0,0.0,0.0,0.0,0.0,0.0,0.0,0.0,0.0,0.0,0.0,0.0,0.0,0.0,0.0,0.0,0.0,1.0743,0.9471,0.9062,0.9544,0.9504,1.0424,1.2365,1.2173,1.2391,1.322,0.0,0.0,0.0,0.0,0.0,0.0,0.0,0.0,0.0,0.0,0.0,0.0,0.0,0.0,0.0,0.0,0.0,0.0,0.0,0.0,0.0,0.0,0.0,0.0,0.0,0.0,0.0,0.0,0.0,0.0,0.0,0.0,0.0,0.0,0.0,0.0,0.0,0.0,0.0,1.6685,1.6062,0.0,0.0,0.0,0.0,0.0,0.0,0.0,0.0,1.6791,0.0,0.0,0.0,0.0,0.0,0.0,0.0,0.0,0.0,0.0,0.0,0.0,0.0,0.0,0.0,0.0,0.0,0.0,0.0,0.0,0.0,0.0,0.0,0.0,0.0,0.0,0.0,0.0,0.0,0.0,0.0,0.0,0.0,0.0,0.0,0.0,0.0,0.0,0.0,0.0,0.0,0.0,0.0,0.0,0.0,0.0,0.0,0.0,0.0,0.0,0.0,0.0,0.0,0.0,0.0,1.0798,0.9196,0.8729,0.9525,0.9706,1.0413,1.1777,1.1861,1.2313,0.0,0.0,0.0,0.0,0.0,0.0,0.0,0.0,0.0,0.0,0.0,0.0,0.0,0.0,0.0,0.0,0.0,0.0,0.0,0.0,0.0,0.0,0.0,0.0,0.0,0.0,0.0,0.0,0.0,0.0,0.0,0.0,0.0,0.0,0.0,0.0,0.0,0.0,0.0,0.0,1.5594,1.4903,1.4112,0.0,0.0,0.0,0.0,0.0,0.0,1.6065,1.584,0.0,0.0,0.0,0.0,0.0,0.0,0.0,0.0,0.0,0.0,0.0,0.0,0.0,0.0,0.0,0.0,0.0,0.0,0.0,0.0,0.0,0.0,0.0,0.0,0.0,0.0,0.0,0.0,0.0,0.0,0.0,0.0,0.0,0.0,0.0,0.0,0.0,0.0,0.0,0.0,0.0,0.0,0.0,0.0,0.0,0.0,0.0,0.0,0.0,0.0,0.0,0.0,0.0,0.0,0.0,1.1039,0.9135,0.8641,0.9651,0.9926,1.0426,1.122,1.165,1.2334,0.0,0.0,0.0,0.0,0.0,0.0,0.0,0.0,0.0,0.0,0.0,0.0,0.0,0.0,0.0,0.0,0.0,0.0,0.0,0.0,0.0,0.0,0.0,0.0,0.0,0.0,0.0,0.0,0.0,0.0,0.0,0.0,0.0,0.0,0.0,0.0,0.0,0.0,0.0,0.0,0.0,1.3868,1.3008,1.3288,0.0,0.0,0.0,0.0,1.5701,1.5189,0.0,0.0,0.0,0.0,0.0,0.0,0.0,0.0,0.0,0.0,0.0,0.0,0.0,0.0,0.0,0.0,0.0,0.0,0.0,0.0,0.0,0.0,0.0,0.0,0.0,0.0,0.0,0.0,0.0,0.0,0.0,0.0,0.0,0.0,0.0,0.0,0.0,0.0,0.0,0.0,0.0,0.0,0.0,0.0,0.0,0.0,0.0,0.0,0.0,0.0,0.0,0.0,0.0,0.0,0.0,0.0,1.1348,0.9788,0.9306,1.0001,1.0147,1.0665,1.1689,1.2143,1.2744,0.0,0.0,0.0,0.0,0.0,0.0,0.0,0.0,0.0,0.0,0.0,0.0,0.0,0.0,0.0,0.0,0.0,0.0,0.0,0.0,0.0,0.0,0.0,0.0,0.0,0.0,0.0,0.0,0.0,0.0,0.0,0.0,0.0,0.0,0.0,0.0,0.0,0.0,0.0,0.0,0.0,1.2903,1.2151,1.2196,1.2424,0.0,0.0,1.6065,1.5514,1.497,0.0,0.0,0.0,0.0,0.0,0.0,0.0,0.0,0.0,0.0,0.0,0.0,0.0,0.0,0.0,0.0,0.0,0.0,0.0,0.0,0.0,0.0,0.0,0.0,0.0,0.0,0.0,0.0,0.0,0.0,0.0,0.0,0.0,0.0,0.0,0.0,0.0,0.0,0.0,0.0,0.0,0.0,0.0,0.0,0.0,0.0,0.0,0.0,0.0,0.0,0.0,0.0,0.0,0.0,0.0,1.1642,1.1021,0.9355,0.8904,0.9734,1.0464,1.1086,1.1614,1.222,1.3015,0.0,0.0,0.0,0.0,0.0,0.0,0.0,0.0,0.0,0.0,0.0,0.0,0.0,0.0,0.0,0.0,0.0,0.0,0.0,0.0,0.0,0.0,0.0,0.0,0.0,0.0,0.0,0.0,0.0,0.0,0.0,0.0,0.0,0.0,0.0,0.0,0.0,0.0,0.0,0.0,0.0,0.0,1.13,1.1699,0.0,0.0,0.0,1.2662,1.2913,0.0,0.0,0.0,0.0,0.0,0.0,0.0,0.0,0.0,0.0,0.0,0.0,0.0,0.0,0.0,0.0,0.0,0.0,0.0,0.0,0.0,0.0,0.0,0.0,0.0,0.0,0.0,0.0,0.0,0.0,0.0,0.0,0.0,0.0,0.0,0.0,0.0,0.0,0.0,0.0,0.0,0.0,0.0,0.0,0.0,0.0,0.0,0.0,0.0,0.0,0.0,0.0,0.0,0.0,0.0,0.0,0.0,1.0595,0.8991,0.8616,0.9534,1.0695,1.1373,1.1534,1.2194,0.0,0.0,0.0,0.0,0.0,0.0,0.0,0.0,0.0,0.0,0.0,0.0,0.0,0.0,0.0,0.0,0.0,0.0,0.0,0.0,0.0,0.0,0.0,0.0,0.0,0.0,0.0,1.4582,0.0,0.0,0.0,0.0,0.0,0.0,0.0,0.0,0.0,0.0,0.0,0.0,0.0,0.0,1.2533,1.0861,1.151,1.1692,0.0,0.0,1.0406,0.9789,0.8684,0.7895,0.0,0.0,0.0,0.0,0.0,0.0,0.0,0.0,0.0,0.0,0.0,0.0,0.0,0.0,0.0,0.0,0.0,0.0,0.0,0.0,0.0,0.0,0.0,0.0,0.0,0.0,0.0,0.0,0.0,0.0,0.0,0.0,0.0,0.0,0.0,0.0,0.0,0.0,0.0,0.0,0.0,0.0,0.0,0.0,0.0,0.0,0.0,0.0,0.0,0.0,0.0,0.0,0.0,0.0,0.0,1.0138,0.9101,0.8923,0.9681,1.0726,1.1399,1.1607,1.2207,1.3051,0.0,0.0,0.0,0.0,0.0,0.0,0.0,0.0,0.0,0.0,0.0,0.0,0.0,0.0,0.0,0.0,0.0,0.0,0.0,0.0,0.0,0.0,0.0,0.0,0.0,0.0,0.0,0.0,0.0,0.0,0.0,0.0,0.0,0.0,0.0,0.0,0.0,0.0,0.0,0.0,0.0,1.2305,1.1133,1.1601,1.1993,0.0,0.0,1.1231,0.6702,0.8004,0.9014,0.7421,0.0,0.0,0.0,0.0,0.0,0.0,0.0,0.0,0.0,0.0,0.0,0.0,0.0,0.0,0.0,0.0,0.0,0.0,0.0,0.0,0.0,0.0,0.0,0.0,0.0,0.0,0.0,0.0,0.0,0.0,0.0,0.0,0.0,0.0,0.0,0.0,0.0,0.0,0.0,0.0,0.0,0.0,0.0,0.0,0.0,0.0,0.0,0.0,0.0,0.0,0.0,0.0,0.0,0.9798,0.9398,0.9072,0.9069,0.9452,1.1523,1.2584,1.2396,1.2873,1.3595,0.0,0.0,0.0,0.0,0.0,0.0,0.0,0.0,0.0,0.0,0.0,0.0,0.0,0.0,0.0,0.0,0.0,0.0,0.0,0.0,0.0,0.0,0.0,0.0,0.0,0.0,0.0,0.0,1.3808,1.3756,1.3799,0.0,0.0,0.0,0.0,0.0,0.0,0.0,0.0,0.0,0.0,1.2771,1.0739,1.2264,0.0,0.0,1.0179,0.8678,0.7941,0.6661,0.6134,0.7135,0.727,0.0,0.0,0.0,0.0,0.0,0.0,0.0,0.0,0.0,0.0,0.0,0.0,0.0,0.0,0.0,0.0,0.0,0.0,0.0,0.0,0.0,0.0,0.0,0.0,0.0,0.0,0.0,0.0,0.0,0.0,0.0,0.0,0.0,0.0,0.0,0.0,0.0,0.0,0.0,0.0,0.0,0.0,0.0,0.0,0.0,0.0,0.0,0.0,0.0,0.0,0.0,0.0,0.8882,0.8831,0.9103,0.9391,0.9642,1.2377,1.3617,1.3204,1.3385,1.3762,0.0,0.0,0.0,0.0,0.0,0.0,0.0,0.0,0.0,0.0,0.0,0.0,0.0,0.0,0.0,0.0,0.0,0.0,0.0,0.0,0.0,0.0,0.0,0.0,0.0,0.0,0.0,0.0,1.4214,1.4275,1.459,0.0,0.0,0.0,0.0,0.0,0.0,0.0,0.0,0.0,0.0,1.1926,1.0306,1.2568,1.3803,1.2037,0.942,0.7962,0.8966,0.6678,0.5278,0.6784,0.0,0.0,0.0,0.0,0.0,0.0,0.0,0.0,0.0,0.0,0.0,0.0,0.0,0.0,0.0,0.0,0.0,0.0,0.0,0.0,0.0,0.0,0.0,0.0,0.0,0.0,0.0,0.0,0.0,0.0,1.3669,0.0,0.0,0.0,0.0,0.0,0.0,0.0,0.0,0.0,0.0,0.0,0.0,0.0,0.0,0.0,0.0,0.0,0.0,0.0,0.0,0.0,0.0,0.7897,0.8573,0.9297,0.9961,1.058,1.319,1.4327,1.3809,1.353,1.3429,1.3465,0.0,0.0,0.0,0.0,0.0,0.0,0.0,0.0,0.0,0.0,0.0,0.0,0.0,0.0,0.0,0.0,0.0,0.0,0.0,0.0,0.0,0.0,0.0,0.0,0.0,0.0,1.5515,1.4846,1.4351,0.0,0.0,0.0,0.0,0.0,0.0,0.0,0.0,0.0,0.0,0.8013,0.9358,0.9967,1.2345,1.3616,1.2051,1.1012,1.0096,0.9219,0.8332,0.7422,0.0,0.0,0.0,0.0,0.0,0.0,0.0,0.0,0.0,0.0,0.0,0.0,0.0,0.0,0.0,0.0,0.0,0.0,0.0,0.0,0.0,0.0,0.0,0.0,0.0,0.0,0.0,0.8211,0.598,0.0,0.0,0.0,0.0,0.0,0.0,0.0,0.0,0.0,0.0,0.0,0.1761,0.2117,0.0,0.0,0.0,0.0,0.0,0.0,0.0,0.0,0.0,0.0,0.0,0.0,0.7181,0.7957,0.9018,0.987,1.0577,1.386,1.5264,1.4638,1.4486,1.4218,1.3808,0.0,0.0,0.0,0.0,0.0,0.0,0.0,0.0,0.0,0.0,0.0,0.0,0.0,0.0,0.0,0.0,0.0,0.0,0.0,0.0,0.0,0.0,0.0,0.0,0.0,1.4137,0.0,0.0,0.0,0.0,0.0,0.0,0.0,0.0,0.0,0.0,0.0,0.2705,0.2578,0.7783,1.1474,1.1163,1.4269,1.6211,0.0,0.0,0.0,0.0,0.0,0.0,0.0,0.0,0.0,0.0,0.0,0.0,0.0,0.0,-0.153,0.1835,0.0878,-0.1019,-0.2798,0.0,0.0,0.0,0.0,0.0,0.0,0.0,0.0,0.0,0.0,0.0,0.0,0.0,0.0,0.571,0.0,1.0986,0.0,0.0,0.0,0.0,0.0,0.0,0.0,0.0,0.2119,0.1552,0.0638,0.1981,0.3033,0.0,0.5669,0.8012,0.0,0.0,0.0,0.0,0.0,0.0,0.0,0.0,0.6207,0.7314,0.8947,1.0174,1.1097,1.4664,1.6296,1.5609,1.4832,1.4095,1.3411,1.3501,1.3419,0.0,0.0,0.0,0.0,0.0,0.0,0.0,0.0,0.0,0.0,0.0,0.0,0.0,0.0,0.0,0.0,0.0,0.0,0.0,0.0,0.0,0.0,0.0,1.3701,0.0,0.0,0.0,0.0,0.0,0.0,0.0,0.0,0.0,0.0621,-0.0172,-0.0537,0.0185,0.6162,1.0815,1.182,0.0,0.0,0.0,0.0,0.0,0.0,0.0,0.841,0.7221,0.5668,0.373,0.1132,-0.1391,-0.3611,-0.5099,0.0,0.0,-0.3586,-0.4337,-0.6122,-0.7936,-0.9419,-1.0273,-0.9876,-1.0386,-1.0861,0.0,0.0,0.0,0.0,0.0,0.0,0.0,0.0,0.0293,0.3347,0.0,1.1079,0.0,0.0,0.0,0.0,0.0,0.2015,0.0,0.0,0.3436,0.3658,0.1124,0.8202,0.9586,0.5443,0.8949,1.0146,0.9084,1.0295,0.0,0.0,0.0,0.0,0.0,0.0,0.4911,0.6722,0.9066,1.0813,1.1937,1.5633,1.7309,1.6636,1.4645,1.32,1.2449,1.2617,1.2571,1.2318,1.3544,0.0,0.0,0.0,0.0,0.0,0.0,0.0,0.0,0.0,0.0,0.0,0.0,0.0,0.0,0.0,0.0,0.0,0.0,0.0,0.0,1.2144,0.0,0.0,0.0,0.0,0.0,0.0,0.0,0.0,0.0,0.0,-0.3301,-0.4039,-0.3708,-0.0716,0.0,0.0,0.0,0.0,1.5263,1.518,1.3945,1.2616,1.1401,0.9743,0.7771,0.553,0.0,0.0,-0.2625,-0.342,-0.428,-0.6061,-0.7966,-0.9414,-0.9829,-1.0565,-1.1787,-1.3204,-1.4178,-1.487,-1.4459,-1.4395,-1.4635,0.5008,0.0,0.0,0.0,0.0,-0.5241,-0.7873,-1.0456,-0.2388,0.0741,0.0698,1.0468,0.0,0.0,0.0,0.0,0.0,0.0,0.1638,0.0182,0.0435,0.0775,0.1224,0.1922,0.3489,0.58,0.7501,0.7725,0.675,0.8982,0.9642,0.8728,0.0,0.0,0.0,0.0,0.4684,0.5575,0.8785,1.0914,1.175,1.5756,1.7363,1.6282,1.4972,1.4133,1.3791,1.3077,1.2474,1.1987,1.2574,0.0,0.0,0.0,0.0,0.0,0.0,0.0,0.0,0.0,0.0,0.0,0.0,0.0,0.0,0.0,0.0,0.0,0.0,0.0,1.0443,1.1574,1.2919,0.0,0.0,0.0,0.0,0.0,0.0,0.0,0.0,0.0,-0.7731,-0.4854,-0.195,0.0,0.0,1.1661,1.357,1.6568,1.8354,1.7676,1.5719,0.0,1.2695,1.0082,0.7602,0.5975,0.2619,-0.0424,-0.2003,-0.4287,-0.6456,-0.8043,-0.924,-1.0066,-1.0666,-1.2083,-1.3391,-1.4274,-1.4795,-1.4944,-1.4719,-1.458,-1.4327,0.6269,0.3079,0.2832,0.0336,-0.349,-0.4799,-0.7668,-1.0919,-0.2992,0.0174,0.0306,0.9167,1.1261,0.8048,0.6539,0.0,0.0,0.0,0.1869,0.0948,0.107,0.2145,0.3952,0.3524,0.4913,0.8028,0.8646,0.8044,0.6426,0.9356,0.9748,0.7804,0.0,0.0,0.7818,0.5312,0.479,0.6445,0.9284,1.1552,1.3147,1.6202,1.7292,1.6258,1.5389,1.4864,1.4633,1.3778,1.3161,1.2814,1.2785,1.2864,0.0,0.0,0.0,0.0,0.0,0.0,0.0,0.0,0.0,0.0,0.0,1.7162,1.6611,0.0,0.0,0.0,0.8513,0.8246,0.9902,1.1013,0.0,0.0,0.0,0.0,0.0,0.0,0.0,-0.6537,-0.9077,-1.0386,-0.9341,-0.4626,-0.0963,-0.0094,0.6421,1.1986,1.4384,0.0,1.8821,1.8398,1.635,1.4256,1.2752,1.0127,0.737,0.4841,0.1975,-0.0664,-0.2197,-0.4059,-0.5703,-0.7121,-0.8036,-0.8658,-0.9275,-1.0777,-1.224,-1.301,-1.3359,-1.3401,-1.3125,-1.3044,-1.3073,0.8398,0.7577,0.9305,0.5704,-0.1071,-0.1255,-0.4539,-0.9147,-0.2256,0.1037,0.1829,0.7727,0.9525,0.7875,0.3648,0.0,0.1027,0.1697,0.2068,0.2113,0.4253,0.6269,0.8248,1.0067,1.109,1.1197,1.1484,1.0292,0.7997,1.0831,1.0217,0.6199,0.558,0.6839,0.9431,0.5648,0.5231,0.8596,1.0326,1.2624,1.5489,1.6828,1.7166,1.6512,1.5892,1.5412,1.5128,1.4585,1.4313,1.4378,1.3718,1.3554,1.389,0.0,0.0,0.0,0.0,0.0,0.0,0.0,0.0,0.0,0.0,0.0,0.0,0.0,0.0,0.0,0.5029,0.0,0.8724,1.0101,0.0,0.0,0.0,-0.0617,-0.8754,-1.0578,-1.2109,-1.4397,0.0,0.0,-0.8429,-0.3343,-0.0092,-0.0606,0.4764,1.0392,1.4783,1.6729,1.767,1.7916,1.6239,1.4194,1.2319,0.9969,0.712,0.3363,0.134,-0.0,-0.1877,-0.2427,-0.2968,-0.4367,-0.5111,-0.5703,-0.6575,-0.7714,-0.886,-0.9926,-1.0785,-1.1028,-1.0646,-1.0989,-1.1296,1.1622,1.021,1.1854,0.6881,-0.2215,-0.45,-0.5864,-0.6179,-0.2376,0.1235,0.4656,0.8492,0.9037,0.684,0.1457,0.0048,0.1891,0.3115,0.4152,0.4952,0.6434,0.8126,0.989,1.021,1.0983,1.2129,1.2432,1.1392,0.9382,1.1387,1.1508,0.9686,0.8469,0.7408,0.6461,0.5555,0.613,0.8223,1.089,1.4061,1.7643,1.7563,1.7344,1.715,1.6378,1.6023,1.6116,1.5278,1.4948,1.5243,1.4359,1.3955,1.4201,1.3842,0.0,0.0,0.0,0.0,0.0,0.0,0.0,0.0,0.0,1.6467,1.5113,0.0,0.7796,0.0,0.5126,0.4885,0.3107,0.6294,0.0,0.0,-0.1695,-0.6403,-1.0294,-1.4738,-1.6418,-1.3586,-1.2825,-1.0048,-0.3731,0.035,0.4069,0.761,1.0792,1.383,1.6659,1.8241,1.8849,1.7977,1.6674,1.5096,1.2902,0.9821,0.6842,0.4392,0.3228,0.2243,0.1234,0.0766,-0.0059,-0.1709,-0.2217,-0.2644,-0.3566,-0.4079,-0.4362,-0.4868,-0.7627,-1.0253,-1.0117,-0.9482,-0.9048,1.264,1.2319,1.2669,0.9313,0.3601,0.1182,-0.0131,-0.0469,0.0919,0.3101,0.583,0.73,0.7076,0.5383,0.2265,0.2012,0.3973,0.4996,0.6076,0.721,0.7627,0.8544,0.9752,0.9481,0.9822,1.0678,1.0818,1.0224,0.9087,1.0633,1.1101,1.037,1.0288,0.9882,0.9109,0.7695,0.804,1.02,1.381,1.6922,1.9339,1.8575,1.7985,1.7798,1.7011,1.6647,1.6803,1.6145,1.5955,1.6174,1.5141,1.4473,1.4404,1.3724,1.3353,0.0,0.0,0.0,0.0,0.0,0.0,0.0,0.0,0.0,0.0,0.0,0.2846,-0.0071,0.2439,0.3275,0.0888,0.4543,0.4435,-0.2215,-0.7784,-1.2658,-1.674,-1.9272,-1.9307,-1.5851,-1.2209,-0.779,-0.212,0.3151,0.7905,1.214,1.4252,1.5884,1.7213,1.8551,1.8977,1.7821,1.6675,1.511,1.2735,0.9863,0.7406,0.5888,0.4947,0.4279,0.3591,0.2969,0.2099,0.0778,0.0278,-0.0112,-0.0964,-0.1749,-0.2135,-0.2262,-0.4333,-0.6435,-0.7051,-0.6733,-0.6616,1.2047,1.3188,1.2116,1.1407,1.0915,0.9406,0.7609,0.5696,0.5272,0.5449,0.6039,0.5567,0.4984,0.4317,0.4447,0.5215,0.6463,0.683,0.7627,0.8699,0.8162,0.8246,0.8826,0.8482,0.8373,0.8373,0.8373,0.8318,0.8268,0.9852,1.0494,1.0288,1.181,1.3086,1.3938,1.1269,1.102,1.3412,1.7423,1.983,2.0413,1.932,1.8598,1.8244,1.7568,1.7191,1.7179,1.6904,1.6817,1.6934,1.5842,1.5028,1.465,1.3581,1.2773,0.0,1.0612,0.0,0.0,0.0,0.0,0.0,0.0,0.0,0.0,-0.0694,-0.3343,-0.6085,-0.0683,0.2244,0.0636,0.4124,0.2712,-0.6589,-1.1455,-1.6085,-2.1101,-2.0387,-1.8545,-1.6461,-0.9585,-0.3729,0.0175,0.6298,1.1721,1.4926,1.6481,1.7284,1.7433,1.8315,1.8602,1.7451,1.638,1.4762,1.2335,1.0308,0.8665,0.7481,0.6588,0.5977,0.5281,0.4673,0.3941,0.3214,0.2611,0.2062,0.1442,0.0166,-0.0609,-0.0166,-0.0995,-0.2259,-0.36,-0.4355,-0.4683,0.9692,1.0033,0.9523,0.895,0.8387,0.8072,0.7734,0.7344,0.6423,0.6139,0.6287,0.5826,0.5765,0.5913,0.583,0.6285,0.7216,0.747,0.795,0.8453,0.8057,0.8108,0.8468,0.8149,0.8126,0.8373,0.8373,0.8958,1.0038,1.2062,1.2934,1.283,1.4701,1.55,1.5248,0.0,0.0,0.0,1.8519,1.953,1.9573,1.8551,1.7929,1.782,1.7362,0.0,1.7104,1.6716,1.6655,1.6939,1.6186,0.0,0.0,0.0,0.0,0.0,0.0,0.0,0.0,0.0,0.0,0.0,-0.3023,-0.2023,-0.2096,-0.385,-0.6112,-0.8572,0.0507,0.4976,0.0848,0.4899,0.6228,0.2097,-0.271,-0.5932,-0.6618,-0.6277,-0.5116,-0.3209,0.0115,0.4275,0.9096,1.2776,1.5733,1.8716,1.9347,1.8934,1.8218,1.8532,1.8349,1.7258,1.6008,1.4674,1.3301,1.1849,1.041,0.9415,0.8066,0.7219,0.695,0.6357,0.5697,0.5082,0.4809,0.4433,0.3814,0.3094,0.2597,0.2771,0.2016,0.0377,-0.3035,-0.4281,-0.4567,0.8546,0.0,0.8482,0.8207,0.0,0.7814,0.7836,0.7818,0.6912,0.6527,0.6561,0.5972,0.6095,0.6754,0.6481,0.6985,0.8038,0.8219,0.8334,0.8408,0.8415,0.8288,0.8167,0.816,0.8209,0.8373,0.8373,0.9221,1.0738,1.1556,1.2991,1.4964,1.6093,1.7265,1.8519,1.9907,2.0314,1.9718,2.0364,2.083,2.1068,2.0021,1.9493,1.9508,1.8793,0.0,0.0,0.0,0.0,0.0,0.0,0.0,0.0,0.0,0.0,1.0428,0.8602,0.4768,-0.1358,-0.2765,-0.5725,-1.14,-0.9833,-0.793,-0.647,-0.6718,-0.6835,-0.6567,0.208,0.6419,0.3471,0.6891,0.7905,0.402,0.01,-0.21,-0.1734,-0.1166,0.0101,0.2596,0.6122,1.0031,1.356,1.6496,1.85,1.9972,1.9713,1.9051,1.8472,1.8291,1.7974,1.7214,1.6071,1.505,1.4264,1.3042,1.1747,1.0687,0.9526,0.8652,0.8389,0.7587,0.694,0.6768,0.6342,0.586,0.5738,0.5303,0.4867,0.4488,0.4175,0.303,-0.0108,-0.13,-0.1751,0.8215,0.8158,0.8012,0.791,0.7827,0.7688,0.7687,0.7777,0.0,0.0,0.0,0.6097,0.6276,0.6978,0.6725,0.7361,0.8565,0.8676,0.8604,0.8446,0.8556,0.8389,0.7965,0.8089,0.8229,0.8364,0.8788,0.9656,1.0886,1.1424,1.3362,1.6385,1.7291,1.9059,2.1752,2.315,2.3304,2.2367,2.2094,2.2224,2.2683,2.1687,2.1165,2.1241,2.0348,1.9631,1.9207,1.9167,1.8795,1.8003,1.77,1.704,1.601,1.5031,1.3978,1.2869,1.1757,0.7053,-0.206,-0.3086,-0.6801,-1.5009,-1.1854,-0.9549,-0.9423,-0.811,-0.5924,-0.2832,0.4032,0.7951,0.73,1.0161,1.0481,0.6146,0.3687,0.2531,0.3028,0.3628,0.5646,0.757,1.1686,1.4736,1.6047,1.8576,2.028,1.9656,1.9118,1.864,1.8254,1.7909,1.7625,1.731,1.6416,1.5608,1.505,1.3856,1.2686,1.1787,1.0754,0.9961,0.9533,0.8797,0.8324,0.8482,0.7753,0.7326,0.7261,0.6945,0.6465,0.5597,0.5538,0.5163,0.3321,0.2426,0.1744,0.8495,0.8371,0.7706,0.718,0.6811,0.6637,0.6982,0.7551,0.7626,0.7238,0.6518,0.6437,0.6405,0.6423,0.6602,0.7271,0.8243,0.8204,0.8355,0.8588,0.7893,0.7763,0.8119,0.7449,0.752,0.8363,1.0227,1.0952,1.1048,1.5213,1.7461,1.7337,1.9625,2.1541,2.2795,2.3693,2.3941,2.3533,2.2676,2.2211,2.2107,2.1306,2.079,2.0621,2.0504,2.0257,1.9942,1.9535,1.909,1.8677,1.8238,1.767,1.6929,1.6087,1.4896,1.3235,1.0815,0.7703,0.4099,0.2396,-0.0316,-0.4214,-0.2122,-0.2819,-0.8248,-0.5715,-0.2247,0.1309,0.7381,1.1555,1.3262,1.5718,1.6987,1.6676,1.6041,1.617,1.7031,1.7424,1.751,1.7759,1.9092,1.9415,1.9317,1.9708,1.9737,1.9132,1.8717,1.8305,1.8069,1.7623,1.747,1.7543,1.6954,1.6262,1.5708,1.4424,1.3348,1.2706,1.1724,1.1032,1.0956,1.0399,0.999,1.0195,0.954,0.9026,0.8606,0.8066,0.7475,0.6779,0.6313,0.5584,0.5004,0.4621,0.4106,0.8461,0.8349,0.767,0.7295,0.7085,0.6647,0.675,0.7176,0.7284,0.7144,0.6806,0.6384,0.6395,0.6756,0.6878,0.7514,0.8532,0.8584,0.8555,0.8529,0.8366,0.8221,0.8125,0.7825,0.7937,0.8357,0.9095,0.9826,1.0622,1.2915,1.5136,1.7368,2.0766,2.2866,2.3621,2.4025,2.4134,2.4016,2.3412,2.3045,2.2914,2.2407,2.2117,2.2025,2.1884,2.1616,2.1196,2.1063,2.0671,2.0028,1.9844,1.9308,1.8431,1.7848,1.715,1.6298,1.5702,1.3436,0.9101,0.6086,0.4184,0.3542,0.4928,0.4959,0.2669,0.2381,0.4593,0.9772,1.3605,1.6497,1.8716,1.9814,2.0384,2.0379,2.0075,2.0368,2.1406,2.1425,2.1289,2.1244,2.0985,2.0674,2.0335,1.9858,1.9509,1.9139,1.8669,1.8282,1.8325,1.811,1.8016,1.8147,1.7625,1.7083,1.6587,1.5588,1.4538,1.3768,1.2754,1.208,1.1882,1.1325,1.1074,1.104,1.0584,1.0079,0.9666,0.911,0.8528,0.7966,0.7529,0.6998,0.634,0.5691,0.5022,0.8262,0.7937,0.7456,0.7025,0.675,0.6588,0.647,0.6362,0.6465,0.6584,0.6618,0.6106,0.6233,0.6783,0.6892,0.7471,0.8442,0.8738,0.8671,0.8457,0.8734,0.8567,0.8158,0.8187,0.8228,0.8324,0.8458,0.8973,0.9676,1.0681,1.3533,1.7989,2.1672,2.3634,2.3953,2.3934,2.3842,2.3657,2.3468,2.3476,2.3777,2.3426,2.3303,2.3437,2.3259,2.2912,2.2513,2.2461,2.2099,2.1368,2.1292,2.0938,2.0219,1.9914,1.9861,1.9954,2.0901,1.9617,1.5337,1.2192,1.0634,1.0992,1.1472,1.2261,1.3142,1.1118,1.1529,1.6389,1.7987,1.9821,2.1824,2.2184,2.1919,2.1568,2.1456,2.1556,2.2079,2.1811,2.1543,2.1685,2.1327,2.0919,2.0438,1.9914,1.942,1.9055,1.8581,1.8377,1.8604,1.8669,1.8617,1.8636,1.8282,1.7718,1.7256,1.6355,1.5466,1.4606,1.3674,1.3064,1.2677,1.2178,1.1783,1.1801,1.136,1.0846,1.0541,1.0056,0.9429,0.8823,0.8442,0.7951,0.6881,0.6404,0.5707,0.7771,0.6804,0.6475,0.5601,0.4725,0.571,0.5655,0.4769,0.5206,0.5471,0.5496,0.5666,0.5824,0.5959,0.6171,0.6784,0.767,0.8055,0.8302,0.8351,0.8171,0.8127,0.8111,0.7734,0.7647,0.819,0.9903,0.9538,0.7931,1.2513,1.6479,1.9705,2.2764,2.3906,2.3353,2.316,2.2776,2.2038,2.1984,2.2666,2.3928,2.3306,2.3269,2.3919,2.3896,2.3795,2.3486,2.2919,2.247,2.2194,2.1985,2.1905,2.2014,2.2146,2.2621,2.3362,2.3712,2.3832,2.3948,2.3883,2.1766,1.8935,1.8222,1.8198,1.8373,1.7804,1.7318,1.7964,1.8386,2.0167,2.2376,2.2497,2.2276,2.2192,2.2118,2.222,2.2265,2.2237,2.2135,2.1911,2.1751,2.154,2.0861,2.0277,1.9522,1.8659,1.8453,1.852,1.8908,1.8815,1.8766,1.9029,1.8727,1.8013,1.731,1.6411,1.5732,1.5209,1.4398,1.3884,1.3684,1.3266,1.2696,1.2628,1.2255,1.1601,1.1091,1.0576,1.0138,0.9577,0.9033,0.8332,0.752,0.7318,0.6856,0.7289,0.6357,0.6145,0.5332,0.4294,0.4897,0.4728,0.4009,0.434,0.445,0.4336,0.467,0.5277,0.6041,0.615,0.6534,0.7182,0.7777,0.783,0.7599,0.7816,0.7939,0.8,0.7633,0.7697,0.8171,0.8875,0.8434,0.8281,1.2826,1.5973,1.7039,2.1466,2.3506,2.2619,2.252,2.2356,2.2036,2.1592,2.1928,2.2893,2.308,2.3215,2.3528,2.3897,2.4037,2.386,2.3542,2.3307,2.3195,2.3204,2.3191,2.3129,2.3289,2.3669,2.4301,2.4674,2.4927,2.5111,2.52,2.4549,2.2815,2.2605,2.2493,2.2404,2.2182,2.1787,2.1405,2.1615,2.2348,2.3069,2.2954,2.2718,2.2596,2.2432,2.2338,2.2394,2.2394,2.2243,2.1995,2.1816,2.1538,2.0942,2.0326,1.9551,1.8812,1.8638,1.8839,1.9195,1.9132,1.9148,1.9275,1.9123,1.8439,1.7475,1.6951,1.6287,1.5511,1.5028,1.4801,1.449,1.4129,1.36,1.3484,1.2929,1.2363,1.1778,1.1462,1.1133,1.0502,0.9844,0.9193,0.8913,0.8943,0.8541,0.6691,0.5973,0.576,0.5058,0.4021,0.4349,0.407,0.3514,0.3741,0.3852,0.3793,0.4064,0.4893,0.5996,0.61,0.6317,0.6745,0.7331,0.7346,0.6929,0.7395,0.7658,0.7658,0.7437,0.7652,0.8078,0.7688,0.727,0.7647,1.2615,1.495,1.5245,2.0355,2.2848,2.1964,2.1902,2.1776,2.1518,2.1015,2.1081,2.1695,2.2285,2.285,2.3276,2.3741,2.4044,2.4173,2.4118,2.4062,2.4058,2.417,2.4173,2.4045,2.4063,2.4221,2.4615,2.4979,2.5099,2.491,2.4998,2.5012,2.4987,2.4832,2.4734,2.4626,2.4459,2.4247,2.3932,2.4074,2.3866,2.3491,2.3252,2.3047,2.2902,2.2651,2.2588,2.2623,2.2552,2.2429,2.2146,2.196,2.1521,2.0926,2.0246,1.9594,1.9139,1.9046,1.9109,1.9362,1.9428,1.9471,1.9395,1.9397,1.8827,1.7666,1.7242,1.6756,1.617,1.5644,1.5299,1.513,1.4766,1.4326,1.3978,1.3515,1.3084,1.2608,1.232,1.195,1.1395,1.0734,1.0115,0.9769,1.0005,0.991,0.5878,0.5336,0.5062,0.4567,0.4021,0.4353,0.3907,0.3016,0.3461,0.3793,0.4067,0.4177,0.4787,0.5732,0.5769,0.5987,0.6253,0.673,0.6876,0.6694,0.6786,0.6991,0.7183,0.6965,0.7203,0.7729,0.7258,0.6971,0.716,1.2024,1.4431,1.4791,1.9854,2.2059,2.1354,2.1172,2.0789,2.027,2.0125,2.0108,2.0317,2.0907,2.2004,2.3277,2.3464,2.3768,2.4454,2.4522,2.4547,2.4737,2.4594,2.4588,2.4776,2.4594,2.4548,2.4704,2.4836,2.4911,2.4905,2.4911,2.4902,2.4865,2.47,2.4575,2.4528,2.4356,2.4266,2.4337,2.4247,2.3974,2.3468,2.3307,2.3218,2.3111,2.3111,2.3014,2.2892,2.2833,2.266,2.2364,2.2186,2.1718,2.0846,2.0175,1.9753,1.9485,1.9361,1.9405,1.9485,1.9611,1.9581,1.9424,1.9324,1.9082,1.8159,1.7612,1.7271,1.6685,1.6051,1.5668,1.5579,1.5355,1.4915,1.4523,1.4104,1.3726,1.3372,1.2987,1.2491,1.195,1.151,1.0973,1.1007,1.0415,1.0404,0.5336,0.4901,0.4463,0.4073,0.3793,0.4076,0.3744,0.3128,0.3405,0.3572,0.3572,0.3907,0.4408,0.5011,0.5383,0.5593,0.5809,0.6225,0.6154,0.5717,0.5947,0.6151,0.619,0.5967,0.6144,0.6589,0.6336,0.6954,0.891,1.3961,1.638,1.6505,1.9762,2.1378,2.0764,2.0589,2.0441,2.0253,2.0224,2.0244,2.027,2.0489,2.1144,2.2239,2.2626,2.289,2.3213,2.4143,2.453,2.4187,2.4688,2.5044,2.5132,2.5099,2.5024,2.4987,2.508,2.5049,2.4826,2.485,2.4847,2.4719,2.4561,2.4497,2.4461,2.4321,2.421,2.4266,2.4228,2.4054,2.3873,2.3638,2.3526,2.3473,2.32,2.3032,2.2982,2.2841,2.2642,2.2525,2.2158,2.1477,2.0942,2.0382,2.0004,1.9717,1.966,1.9717,1.9808,1.9743,1.9606,1.9549,1.9434,1.9169,1.876,1.8002,1.7421,1.7034,1.6582,1.6337,1.6207,1.5944,1.5546,1.5322,1.488,1.4302,1.3952,1.3631,1.3122,1.2861,1.2365,1.2258,1.2483,1.1944,1.1889,0.4512,0.4298,0.4076,0.3907,0.3846,0.4076,0.4021,0.3683,0.3849,0.3852,0.3852,0.4184,0.4574,0.4933,0.5263,0.5401,0.5357,0.5756,0.5544,0.4881,0.5206,0.5471,0.5576,0.5282,0.5469,0.5908,0.5609,0.6253,0.8144,1.338,1.567,1.5343,1.9042,2.0804,2.0378,2.0328,2.0394,2.0425,2.0419,2.04,2.04,2.0357,2.0592,2.1157,2.156,2.2002,2.2433,2.348,2.4024,2.3946,2.448,2.4943,2.5194,2.5241,2.5157,2.5013,2.5043,2.4975,2.4716,2.4716,2.47,2.4596,2.4462,2.443,2.4428,2.4284,2.4247,2.4247,2.4228,2.419,2.4153,2.3974,2.3825,2.371,2.3405,2.3164,2.308,2.2824,2.2664,2.2546,2.2304,2.1729,2.114,2.0852,2.052,2.0096,2.0045,2.015,2.0154,2.0015,1.9782,1.9762,1.9566,1.9325,1.8965,1.8383,1.7868,1.7407,1.6993,1.685,1.6663,1.6392,1.6207,1.6032,1.5635,1.4983,1.4534,1.4183,1.3973,1.3789,1.3494,1.3236,1.3379,1.3484,1.328,0.3405,0.3738,0.3907,0.4073,0.4236,0.4574,0.4794,0.4732,0.4622,0.4684,0.4849,0.5069,0.5234,0.5638,0.551,0.5331,0.5106,0.5345,0.5131,0.4505,0.4646,0.5056,0.5466,0.5052,0.5131,0.5731,0.5354,0.4904,0.5238,1.0456,1.3104,1.344,1.7942,2.0392,2.0296,2.0415,2.0465,2.0441,2.0483,2.0469,2.0408,2.0408,2.0429,2.0482,2.054,2.1143,2.2412,2.2486,2.2928,2.3715,2.3886,2.4255,2.5004,2.5056,2.4883,2.4814,2.4746,2.466,2.4549,2.4551,2.4566,2.4517,2.4447,2.4393,2.4375,2.4303,2.4266,2.4338,2.4284,2.4247,2.4338,2.4229,2.4071,2.3792,2.3793,2.3651,2.3334,2.2936,2.2658,2.2633,2.2713,2.2485,2.1815,2.1432,2.1148,2.0649,2.0561,2.0662,2.053,2.0429,2.0243,1.9914,1.9717,1.9566,1.9199,1.8784,1.8344,1.7894,1.7435,1.7118,1.6947,1.6735,1.6595,1.6423,1.6238,1.5623,1.5244,1.4926,1.4777,1.4606,1.4387,1.4201,1.4247,1.4294,1.4154,0.4398,0.4239,0.419,0.4353,0.4677,0.5007,0.5117,0.5171,0.5336,0.5336,0.5226,0.523,0.5454,0.5658,0.5504,0.5209,0.4939,0.4989,0.4731,0.4349,0.4487,0.4642,0.47,0.4655,0.4489,0.4558,0.5863,0.6313,0.7069,1.1718,1.4548,1.5315,1.8398,2.0284,2.0434,2.0488,2.0506,2.0555,2.0543,2.0558,2.0522,2.0488,2.0465,2.0461,2.043,2.0667,2.1069,2.156,2.2277,2.3168,2.376,2.4455,2.5101,2.5273,2.5149,2.5012,2.4975,2.4869,2.4666,2.4626,2.4599,2.4515,2.4482,2.4481,2.4515,2.4479,2.4444,2.4407,2.4355,2.4338,2.4266,2.4229,2.4277,2.4516,2.4433,2.4403,2.4392,2.4143,2.3909,2.3649,2.3438,2.2903,2.2166,2.1853,2.15,2.0886,2.0794,2.0827,2.0877,2.0697,2.063,2.0514,2.0208,1.9823,1.9522,1.9207,1.8869,1.8369,1.7894,1.7449,1.7227,1.7073,1.6934,1.6795,1.6582,1.6312,1.5932,1.5668,1.5478,1.5433,1.5254,1.5175,1.5142,1.504,1.4892,0.478,0.4618,0.4622,0.4783,0.5054,0.5441,0.5555,0.5614,0.5937,0.595,0.5735,0.5668,0.5779,0.5862,0.5566,0.5339,0.5198,0.4938,0.4626,0.4336,0.4341,0.441,0.4422,0.4433,0.426,0.398,0.499,0.6096,0.7193,1.1608,1.4602,1.5962,1.8847,2.0441,2.0506,2.0519,2.0577,2.0591,2.0596,2.0597,2.0557,2.0545,2.0531,2.0509,2.0494,2.0458,2.0487,2.0939,2.1579,2.2495,2.3543,2.4408,2.4913,2.5176,2.5313,2.513,2.5065,2.4975,2.4757,2.4738,2.4692,2.4549,2.4564,2.4613,2.4629,2.461,2.4591,2.4524,2.4526,2.4461,2.4339,2.4321,2.4522,2.4925,2.4716,2.4746,2.4927,2.4688,2.4456,2.4216,2.4009,2.3358,2.2649,2.2139,2.1736,2.1149,2.1038,2.1135,2.1183,2.0958,2.0926,2.0812,2.0481,2.0158,1.9899,1.9666,1.9406,1.8869,1.8305,1.7868,1.7557,1.7352,1.7186,1.7131,1.6951,1.6557,1.6213,1.6182,1.6051,1.6064,1.602,1.5869,1.5691,1.578,1.568,0.4718,0.4937,0.5206,0.5374,0.5429,0.5882,0.6109,0.6213,0.6534,0.6648,0.6452,0.64,0.6431,0.6314,0.6024,0.5841,0.5712,0.5254,0.4986,0.4741,0.4536,0.4484,0.4638,0.4481,0.4247,0.3989,0.3552,0.4332,0.6081,0.9326,1.2654,1.5002,1.7893,2.0341,2.0367,2.0549,2.0576,2.0578,2.0601,2.0563,2.0525,2.0585,2.0653,2.0629,2.0609,2.0619,2.0734,2.0818,2.1087,2.19,2.3422,2.42,2.4304,2.4932,2.5313,2.4992,2.5042,2.4974,2.4817,2.4802,2.4775,2.458,2.467,2.4752,2.467,2.47,2.4731,2.4712,2.4716,2.4657,2.451,2.4495,2.469,2.4981,2.4905,2.4812,2.4641,2.443,2.4346,2.4425,2.4297,2.3818,2.2901,2.2465,2.202,2.1535,2.1481,2.1556,2.1526,2.1339,2.1103,2.0942,2.078,2.0614,2.0398,1.9984,1.9752,1.9536,1.8907,1.8383,1.7922,1.7679,1.7475,1.7421,1.7394,1.6967,1.6744,1.6854,1.6727,1.6642,1.6484,1.6306,1.6349,1.6454,1.6527,0.576,0.5273,0.5651,0.5928,0.615,0.648,0.6912,0.7241,0.7616,0.7623,0.7448,0.7353,0.7325,0.7261,0.6817,0.6634,0.647,0.6016,0.5856,0.582,0.53,0.4951,0.4857,0.4722,0.4168,0.3474,0.3106,0.2705,0.2633,0.5788,0.8762,1.158,1.514,1.7951,1.9994,2.0507,2.0527,2.0527,2.0546,2.0546,2.0562,2.058,2.0935,2.1445,2.0937,2.0975,2.1445,2.1501,2.1837,2.2629,2.3605,2.4187,2.4254,2.4946,2.5119,2.4577,2.4812,2.503,2.4893,2.4893,2.4814,2.4666,2.4716,2.4749,2.4823,2.4837,2.4879,2.4902,2.4915,2.4799,2.4588,2.4559,2.478,2.5095,2.5121,2.5146,2.501,2.4641,2.4355,2.4281,2.4013,2.345,2.2913,2.2703,2.2512,2.1993,2.1853,2.1882,2.1823,2.1721,2.1524,2.1417,2.1309,2.1135,2.0861,2.0413,2.0139,2.0085,1.9573,1.8907,1.8461,1.8082,1.7895,1.7733,1.7948,1.7666,1.7706,1.7801,1.7544,1.7175,1.7175,1.7105,1.7229,1.7381,1.7422,0.7165,0.6519,0.6735,0.6902,0.702,0.7176,0.7439,0.7765,0.8362,0.8502,0.8307,0.8184,0.8132,0.8107,0.7785,0.7585,0.7478,0.706,0.683,0.6591,0.6045,0.551,0.5116,0.4912,0.4387,0.3666,0.3315,0.3383,0.377,0.4899,0.7934,1.2202,1.405,1.6751,2.0188,2.045,2.0433,2.0421,2.0423,2.0455,2.0467,2.046,2.0964,2.1545,2.1306,2.1483,2.2234,2.2048,2.2079,2.2652,2.3543,2.4247,2.4321,2.4996,2.5134,2.4563,2.4985,2.5152,2.4987,2.5013,2.4962,2.4799,2.479,2.4888,2.4961,2.4993,2.5019,2.5099,2.5099,2.4975,2.4809,2.4712,2.4696,2.4763,2.4886,2.5069,2.5288,2.462,2.4275,2.4163,2.3875,2.3371,2.2811,2.2835,2.2608,2.2355,2.2248,2.2209,2.2096,2.2015,2.1899,2.1781,2.1708,2.157,2.137,2.0991,2.0565,2.0481,2.0193,1.9543,1.9118,1.8664,1.85,1.8422,1.85,1.8461,1.8383,1.8291,1.804,1.7787,1.7827,1.7894,1.7973,1.8171,1.8249,0.848,0.8019,0.7978,0.7925,0.7871,0.7865,0.7859,0.8019,0.883,0.9071,0.8846,0.8819,0.8744,0.8784,0.8418,0.8463,0.8534,0.8141,0.7795,0.7412,0.6947,0.6435,0.5759,0.5494,0.5054,0.4544,0.4025,0.4986,0.5844,0.6076,0.9403,1.3308,1.4566,1.6645,1.9331,2.0167,2.0249,2.0204,2.0198,2.0224,2.0307,2.045,2.103,2.1822,2.2224,2.2357,2.2747,2.2564,2.2324,2.2127,2.352,2.4204,2.4413,2.5059,2.5275,2.5205,2.5192,2.5254,2.5082,2.522,2.522,2.4915,2.4987,2.5096,2.5103,2.5087,2.5122,2.5271,2.525,2.5118,2.501,2.4831,2.4623,2.4502,2.4265,2.4581,2.4938,2.441,2.388,2.4185,2.3721,2.3333,2.305,2.2807,2.2582,2.2712,2.2678,2.2652,2.252,2.2412,2.2237,2.201,2.1969,2.194,2.1748,2.1568,2.1197,2.091,2.0698,2.023,1.9884,1.9528,1.9303,1.9169,1.9095,1.8831,1.8553,1.8422,1.8369,1.8472,1.8588,1.8535,1.8496,1.8826,1.8991,0.8178,0.767,0.8096,0.8209,0.8209,0.856,0.8718,0.8784,0.9406,0.9467,0.9165,0.9009,0.9003,0.8996,0.8848,0.8651,0.8754,0.885,0.8833,0.8532,0.8813,0.8068,0.7194,0.6712,0.6123,0.5605,0.5751,0.5996,0.6155,0.6732,0.8565,1.2837,1.4062,1.5454,1.8739,1.9639,1.9728,1.9762,1.9858,1.9963,2.0183,2.0717,2.1483,2.2475,2.3203,2.34,2.3286,2.3605,2.3842,2.3963,2.4175,2.4461,2.4555,2.5092,2.5205,2.49,2.5147,2.5367,2.5332,2.5332,2.5303,2.5126,2.5115,2.5182,2.519,2.513,2.5192,2.5313,2.5264,2.5137,2.5,2.4757,2.462,2.4526,2.4444,2.4377,2.4254,2.3703,2.3379,2.3144,2.3003,2.2689,2.2679,2.3007,2.2975,2.3067,2.3074,2.3098,2.2982,2.2832,2.2582,2.2313,2.232,2.2265,2.2113,2.1982,2.1728,2.1475,2.1243,2.107,2.0733,2.0385,2.0147,1.9864,1.9594,1.9317,1.9058,1.9049,1.9124,1.9221,1.9332,1.9339,1.9434,1.963,1.9758,0.8817,0.8421,0.8732,0.8837,0.8791,0.9093,0.9197,0.9263,0.9673,0.9777,0.9629,0.9584,0.9584,0.948,0.948,0.942,0.9214,0.922,0.9257,0.9141,0.9249,0.9105,0.8982,0.8304,0.7626,0.6794,0.7072,0.7185,0.7174,0.738,0.9307,1.331,1.3501,1.5631,1.8743,1.9357,1.9429,1.9577,1.9693,1.9845,2.015,2.0952,2.1985,2.2949,2.3728,2.3946,2.4211,2.413,2.4496,2.4817,2.4949,2.4939,2.4953,2.5293,2.524,2.5026,2.5124,2.5385,2.535,2.5359,2.534,2.5214,2.5212,2.5243,2.5253,2.5194,2.5234,2.5322,2.5293,2.5175,2.5018,2.4883,2.4768,2.4682,2.4572,2.4407,2.4192,2.378,2.3135,2.2799,2.2849,2.2678,2.2733,2.3094,2.3359,2.3427,2.3414,2.3414,2.3248,2.3087,2.289,2.2712,2.2678,2.2634,2.2463,2.2347,2.2252,2.2085,2.1943,2.1857,2.1694,2.1334,2.1007,2.0635,2.0234,2.0019,1.9823,1.9818,1.9782,1.9889,1.998,2.0204,2.0326,2.0398,2.055,0.9671,0.9413,0.947,0.9516,0.9472,0.9575,0.9611,0.9604,0.991,1.0037,1.0008,1.0141,0.9895,0.9947,1.0102,1.0102,0.9967,0.964,0.961,0.9819,0.9622,0.9745,0.9953,0.964,0.9329,0.8424,0.8745,0.9032,0.9224,0.9298,1.1356,1.4333,1.4382,1.59,1.8684,1.9243,1.9049,1.9283,1.9396,1.9771,2.0264,2.1152,2.2249,2.3399,2.3795,2.429,2.4657,2.464,2.4643,2.5459,2.5556,2.5574,2.5597,2.5609,2.5561,2.548,2.5498,2.5453,2.5374,2.5393,2.5393,2.5254,2.5264,2.5322,2.5367,2.533,2.533,2.5339,2.5339,2.5231,2.5126,2.504,2.4929,2.4818,2.4659,2.4586,2.4472,2.4265,2.3613,2.2916,2.2991,2.298,2.3016,2.3247,2.3539,2.3777,2.3783,2.3744,2.3574,2.3352,2.315,2.3177,2.3206,2.3117,2.2989,2.2832,2.2737,2.266,2.2574,2.2495,2.2432,2.2147,2.174,2.1271,2.0911,2.0701,2.0534,2.0418,2.0434,2.0514,2.063,2.0812,2.0926,2.1086,2.1275,0.9783,0.9435,0.9868,0.9877,0.9739,1.0371,1.0455,1.0141,1.03,1.0263,1.0134,0.9911,0.9799,0.9769,0.9925,1.0395,1.0576,1.0319,1.0292,1.0549,1.042,1.0594,1.0444,1.0557,1.0876,1.1504,1.126,1.1141,1.1954,1.298,1.3667,1.5234,1.5837,1.7015,1.7592,1.7856,1.8506,1.8939,1.9067,1.9458,2.0229,2.122,2.2309,2.3636,2.3942,2.4318,2.4677,2.4839,2.4975,2.5176,2.5333,2.5464,2.5553,2.5583,2.5587,2.5576,2.5576,2.5525,2.5511,2.5525,2.5557,2.5544,2.5505,2.5505,2.5538,2.5485,2.5444,2.5418,2.5379,2.5274,2.5182,2.5145,2.505,2.4936,2.4929,2.4879,2.4693,2.4576,2.4476,2.3875,2.3636,2.3362,2.3382,2.3511,2.3842,2.4007,2.3968,2.408,2.41,2.3768,2.3416,2.3573,2.378,2.366,2.3534,2.3397,2.3264,2.32,2.3106,2.2986,2.2923,2.279,2.2439,2.1978,2.1628,2.1376,2.1224,2.1084,2.1054,2.1102,2.1228,2.1368,2.1505,2.1655,2.1786,1.0163,1.0067,1.0497,1.0542,1.0483,1.0832,1.0909,1.0728,1.0911,1.0771,1.0501,1.0417,1.0293,1.0133,1.0087,1.0403,1.0506,1.0584,1.0541,1.0761,1.0956,1.1259,1.1116,1.1254,1.19,1.2466,1.2538,1.2746,1.3597,1.4296,1.5273,1.6214,1.6824,1.7343,1.7899,1.8193,1.8377,1.8717,1.9036,1.9427,2.0167,2.124,2.2439,2.3053,2.3601,2.3896,2.4205,2.4332,2.4648,2.4993,2.5124,2.5266,2.539,2.5478,2.5527,2.5577,2.561,2.5615,2.5609,2.5609,2.5599,2.5593,2.5613,2.5613,2.5587,2.5556,2.5556,2.5525,2.5434,2.5352,2.5348,2.5244,2.5175,2.5135,2.5168,2.5106,2.5012,2.5072,2.4955,2.4801,2.444,2.4001,2.3637,2.3824,2.4166,2.4249,2.4166,2.4321,2.452,2.4158,2.3739,2.3964,2.4155,2.4063,2.3969,2.3892,2.379,2.3728,2.3645,2.3538,2.3401,2.3259,2.3038,2.2729,2.239,2.209,2.195,2.1836,2.1753,2.1698,2.1845,2.1989,2.2091,2.2203,2.2341,1.0699,1.0669,1.1238,1.1339,1.1115,1.1298,1.1378,1.142,1.1567,1.1328,1.0934,1.1032,1.0922,1.0585,1.0522,1.0514,1.0403,1.0677,1.0744,1.0947,1.1174,1.1616,1.1859,1.1994,1.2186,1.3042,1.3124,1.3598,1.4105,1.482,1.5711,1.6337,1.6849,1.7588,1.8248,1.813,1.8394,1.8738,1.9109,1.9562,2.0316,2.1275,2.2107,2.2337,2.2712,2.3141,2.3522,2.3773,2.4155,2.4575,2.4814,2.4908,2.5174,2.5279,2.5375,2.5525,2.559,2.5629,2.5625,2.5636,2.5632,2.5624,2.5643,2.5634,2.562,2.562,2.5634,2.5609,2.554,2.5468,2.5479,2.5408,2.534,2.5302,2.5301,2.5322,2.5321,2.5337,2.5337,2.5178,2.4958,2.4707,2.4338,2.4022,2.4328,2.4595,2.4553,2.4555,2.4702,2.4423,2.417,2.4379,2.4485,2.4388,2.4356,2.4409,2.4312,2.4263,2.4155,2.4044,2.3891,2.3749,2.3538,2.3333,2.308,2.2797,2.2695,2.2565,2.2441,2.2388,2.2529,2.2582,2.2591,2.2755,2.2917,1.1603,1.0891,1.2233,1.2135,1.1241,1.1895,1.2314,1.2282,1.2077,1.1768,1.1376,1.1231,1.091,1.0569,1.0913,1.1368,1.1477,1.1335,1.131,1.153,1.1592,1.1769,1.2013,1.2157,1.2686,1.3396,1.3338,1.3336,1.3924,1.4865,1.5387,1.5776,1.6458,1.7127,1.7464,1.7584,1.7843,1.829,1.8548,1.9216,2.0282,2.0927,2.1348,2.1724,2.2102,2.2419,2.2781,2.3117,2.3577,2.3896,2.4229,2.4531,2.4865,2.4933,2.5092,2.5308,2.5521,2.5696,2.5658,2.565,2.5664,2.5664,2.567,2.5703,2.5671,2.5658,2.5655,2.5695,2.5668,2.5629,2.5588,2.5566,2.5503,2.544,2.5413,2.542,2.5463,2.5449,2.5468,2.5473,2.5227,2.5263,2.5112,2.4737,2.4459,2.473,2.4927,2.4945,2.4899,2.4697,2.462,2.4796,2.4877,2.4797,2.4733,2.4771,2.4761,2.4733,2.461,2.4498,2.4348,2.4209,2.41,2.3886,2.3671,2.3468,2.3323,2.3189,2.3087,2.3014,2.3038,2.3038,2.3021,2.3218,2.3389,1.175,1.129,1.2289,1.2174,1.1458,1.2198,1.2502,1.259,1.2932,1.2554,1.176,1.1677,1.107,1.0335,1.071,1.1074,1.1226,1.1411,1.1837,1.2144,1.2163,1.2438,1.3039,1.3106,1.3432,1.362,1.3748,1.3903,1.4172,1.4394,1.48,1.5161,1.5678,1.6292,1.6697,1.6844,1.7182,1.7585,1.7988,1.8656,1.9519,2.0024,2.032,2.0701,2.118,2.1556,2.1903,2.232,2.2745,2.3117,2.3523,2.4026,2.4401,2.4568,2.4707,2.5062,2.5247,2.5425,2.5554,2.56,2.5624,2.5644,2.5643,2.5625,2.5623,2.5623,2.566,2.5689,2.5691,2.568,2.5644,2.5663,2.5605,2.5538,2.5505,2.5486,2.551,2.551,2.5512,2.5515,2.55,2.5475,2.5461,2.521,2.4943,2.5089,2.5264,2.527,2.5282,2.5226,2.5182,2.5239,2.5244,2.5213,2.5139,2.513,2.5097,2.5057,2.4956,2.4839,2.4762,2.4625,2.45,2.4374,2.4169,2.3994,2.3881,2.3696,2.3482,2.3477,2.3518,2.3477,2.3437,2.35,2.362,1.1775,1.1458,1.2181,1.2104,1.156,1.2112,1.2351,1.2482,1.307,1.2662,1.1751,1.148,1.0802,1.0113,1.0458,1.0767,1.0701,1.1268,1.1946,1.2377,1.2758,1.3152,1.3652,1.3893,1.3939,1.4134,1.4033,1.4214,1.4393,1.4505,1.4537,1.4877,1.549,1.5808,1.6114,1.6366,1.6689,1.7286,1.7504,1.8143,1.8907,1.9177,1.9456,1.9864,2.0277,2.0695,2.0974,2.1598,2.204,2.2432,2.2947,2.3494,2.3914,2.4026,2.4213,2.4521,2.4714,2.4834,2.5084,2.5259,2.5399,2.5434,2.5477,2.5429,2.5476,2.5509,2.5547,2.5581,2.56,2.5618,2.567,2.5679,2.5622,2.559,2.5597,2.5559,2.5542,2.5503,2.5497,2.5505,2.5509,2.5483,2.548,2.5476,2.5449,2.5523,2.5579,2.556,2.5537,2.549,2.5492,2.5453,2.5461,2.543,2.542,2.5383,2.5372,2.5329,2.5225,2.5171,2.5061,2.4956,2.4831,2.4704,2.4588,2.4479,2.4312,2.41,2.3899,2.3858,2.3834,2.3834,2.3855,2.3876,2.3855,1.1663,1.1219,1.2081,1.1965,1.1185,1.1802,1.2042,1.2042,1.2174,1.1897,1.1182,1.0576,1.0294,1.0132,1.0332,1.0693,1.1046,1.1108,1.1769,1.2369,1.2788,1.3455,1.4057,1.438,1.4473,1.4623,1.4491,1.4604,1.4738,1.4541,1.4887,1.5429,1.5487,1.5686,1.5832,1.5908,1.633,1.6811,1.7063,1.7639,1.833,1.8679,1.8855,1.9376,1.9737,2.0015,2.0056,2.091,2.1568,2.1915,2.2392,2.2925,2.332,2.3396,2.3619,2.3934,2.4025,2.416,2.4369,2.4755,2.4973,2.5007,2.5067,2.5177,2.5228,2.5227,2.5284,2.5381,2.5405,2.5483,2.5537,2.5591,2.5542,2.5552,2.5541,2.5526,2.5492,2.5472,2.5474,2.5498,2.5485,2.5406,2.5329,2.5318,2.5362,2.541,2.5461,2.5442,2.5481,2.5473,2.5525,2.5547,2.5566,2.556,2.5573,2.5547,2.5498,2.5441,2.5379,2.5348,2.5332,2.5224,2.5102,2.5003,2.4898,2.4834,2.4747,2.4485,2.4295,2.4192,2.4133,2.4075,2.4056,2.4056,2.4036,1.0996,1.0807,1.1178,1.1115,1.0807,1.1428,1.167,1.1794,1.2151,1.1844,1.1048,1.0271,0.9896,1.0073,1.0405,1.0747,1.1059,1.1407,1.213,1.2721,1.3213,1.3802,1.4453,1.4779,1.4869,1.4992,1.4884,1.5024,1.5339,1.4956,1.5112,1.5459,1.5366,1.5045,1.5085,1.538,1.5724,1.5976,1.643,1.6995,1.7489,1.7841,1.8159,1.8884,1.9221,1.9493,1.9777,2.0361,2.0861,2.1355,2.1794,2.2286,2.2746,2.2822,2.3034,2.337,2.3378,2.3469,2.3662,2.4137,2.4524,2.4676,2.4784,2.4873,2.4953,2.5014,2.5041,2.5114,2.5158,2.5216,2.5356,2.5368,2.5376,2.5437,2.5471,2.5452,2.5549,2.5568,2.5546,2.5608,2.5409,2.5243,2.5168,2.508,2.5177,2.526,2.5302,2.5324,2.5369,2.5413,2.5468,2.5522,2.5531,2.5593,2.5586,2.5598,2.5612,2.555,2.5504,2.557,2.5582,2.5449,2.5352,2.5262,2.5332,2.5378,2.5264,2.491,2.4676,2.4489,2.4338,2.4229,2.421,2.4209,2.419,1.0618,1.0618,1.0618,1.0618,1.0618,1.1052,1.124,1.1296,1.1655,1.1539,1.0763,1.0071,0.9924,1.0137,1.025,1.0646,1.0977,1.154,1.2249,1.2792,1.3213,1.3859,1.4475,1.4735,1.4668,1.5064,1.5159,1.522,1.5866,1.5421,1.5487,1.5489,1.5122,1.4805,1.4844,1.4868,1.5061,1.5199,1.5549,1.6298,1.6866,1.7242,1.7733,1.8475,1.886,1.9176,1.9508,1.998,2.0382,2.0829,2.1275,2.1715,2.2046,2.2324,2.2459,2.2635,2.2788,2.2813,2.3035,2.3476,2.3988,2.4129,2.4309,2.4444,2.461,2.4681,2.4666,2.4834,2.4877,2.5015,2.5252,2.5354,2.5491,2.5609,2.5351,2.5313,2.5687,2.5831,2.5751,2.5715,2.5507,2.5361,2.5012,2.495,2.498,2.5072,2.5097,2.5139,2.5206,2.5252,2.5325,2.5383,2.5446,2.5507,2.5576,2.5582,2.5604,2.5616,2.5632,2.5835,2.5838,2.5814,2.6137,2.6528,2.6505,2.6157,2.6022,2.5976,2.5392,2.4723,2.4613,2.4485,2.4302,2.4303,2.4266,1.0618,1.0618,1.0618,1.0618,1.0618,1.0618,1.0618,1.0744,1.0737,1.0594,1.0302,1.0114,1.0167,1.0294,1.0314,1.0526,1.0966,1.1516,1.2027,1.2394,1.2966,1.3528,1.3802,1.3945,1.4295,1.4907,1.4859,1.5106,1.611,1.5523,1.5522,1.5512,1.5084,1.4827,1.5102,1.5017,1.4956,1.4948,1.4983,1.5656,1.6514,1.6964,1.7585,1.8293,1.8606,1.8889,1.9325,1.966,2.0054,2.0382,2.0797,2.1213,2.1521,2.1628,2.1774,2.1972,2.1977,2.2108,2.2324,2.2923,2.327,2.3563,2.3767,2.3908,2.4061,2.4192,2.4284,2.4465,2.469,2.5126,2.5359,2.5456,2.5579,2.5627,2.5355,2.5329,2.5691,2.61,2.6029,2.6035,2.5875,2.5606,2.5117,2.4801,2.4817,2.4869,2.4893,2.4936,2.5012,2.5088,2.5147,2.529,2.5376,2.5402,2.5469,2.5548,2.5593,2.5621,2.5859,2.6209,2.6546,2.6783,2.7192,2.7736,2.7593,2.7155,2.7166,2.7214,2.6515,2.5812,2.5032,2.4769,2.4554,2.4409,2.4393,1.0618,1.0618,1.0618,1.0618,1.0618,1.0618,1.0618,1.0618,1.0618,1.0564,1.0428,1.0408,1.0532,1.0609,1.0746,1.0833,1.1164,1.1392,1.1821,1.2361,1.2785,1.3166,1.3364,1.3485,1.3786,1.4049,1.4092,1.4249,1.4845,1.483,1.4907,1.4792,1.4802,1.4608,1.4443,1.4296,1.4224,1.4645,1.477,1.5107,1.6144,1.665,1.7295,1.8349,1.8506,1.8821,1.9275,1.9627,1.9713,2.0015,2.0416,2.0695,2.0942,2.1071,2.1354,2.1491,2.1554,2.1584,2.1672,2.1972,2.2405,2.2848,2.3319,2.3504,2.3692,2.4295,2.4275,2.434,2.4931,2.5326,2.528,2.5208,2.5282,2.5529,2.5442,2.5445,2.5695,2.6151,2.6358,2.6448,2.6368,2.6521,2.6277,2.5466,2.5264,2.4982,2.497,2.4825,2.4847,2.4891,2.4955,2.5156,2.5283,2.5316,2.5374,2.5599,2.5972,2.6191,2.6512,2.691,2.726,2.7675,2.7957,2.8354,2.826,2.8149,2.8061,2.7925,2.7574,2.6959,2.6276,2.5378,2.4914,2.4687,2.453,1.0715,1.0772,1.0715,1.0655,1.0631,1.0618,1.0618,1.0618,1.0618,1.0618,1.0555,1.0618,1.0737,1.0863,1.1059,1.1247,1.1428,1.1787,1.1732,1.2266,1.2443,1.2573,1.2765,1.2956,1.307,1.3295,1.3537,1.3726,1.446,1.4273,1.4246,1.4246,1.4401,1.4466,1.4482,1.4621,1.4778,1.5167,1.5219,1.5508,1.617,1.6715,1.751,1.8152,1.8616,1.9117,1.9595,1.9666,1.9575,1.9885,2.0109,2.0243,2.0335,2.0532,2.0731,2.0715,2.0813,2.0894,2.1055,2.1134,2.1592,2.2057,2.2771,2.3274,2.364,2.4382,2.4586,2.4819,2.5379,2.565,2.5664,2.5507,2.5503,2.5774,2.5795,2.5794,2.62,2.6686,2.6768,2.6854,2.7103,2.7309,2.7396,2.6513,2.583,2.5431,2.5057,2.4909,2.4773,2.4817,2.4917,2.5107,2.5308,2.5409,2.5562,2.582,2.6217,2.6709,2.7172,2.7605,2.8209,2.8658,2.8807,2.9002,2.9242,2.9289,2.8885,2.8625,2.8526,2.8197,2.7631,2.6651,2.5508,2.5054,2.4847,1.1002,1.1002,1.1009,1.0842,1.0608,1.0638,1.0618,1.0618,1.0618,1.0618,1.0618,1.0624,1.0744,1.0996,1.1066,1.1247,1.1553,1.2074,1.1958,1.1903,1.2135,1.2089,1.1911,1.1919,1.2351,1.2773,1.2948,1.3191,1.4231,1.3983,1.3683,1.3683,1.3932,1.4173,1.4638,1.5113,1.5427,1.5553,1.5921,1.6147,1.6432,1.7225,1.7983,1.8591,1.9109,2.0004,2.0528,2.0684,2.0455,2.0421,2.0341,1.9846,1.9619,1.9687,1.9564,1.966,1.9919,2.0454,2.0808,2.0957,2.1029,2.1617,2.2534,2.308,2.3636,2.4289,2.4652,2.5094,2.5614,2.6189,2.6542,2.6333,2.6164,2.6249,2.6266,2.6548,2.7012,2.7242,2.7242,2.7381,2.7754,2.8,2.8129,2.751,2.6718,2.6267,2.5851,2.5362,2.519,2.4942,2.5051,2.5192,2.5368,2.5532,2.58,2.6323,2.6899,2.754,2.7912,2.8359,2.8996,2.9526,2.9679,2.9936,3.0449,3.0419,2.9808,2.9649,2.9712,2.9295,2.8745,2.7798,2.663,2.5647,2.524,1.1303,1.1303,1.1303,1.1136,1.0862,1.0719,1.0618,1.0618,1.0681,1.0681,1.0618,1.0681,1.0807,1.0863,1.1052,1.1178,1.1428,1.167,1.174,1.1732,1.1849,1.1732,1.1677,1.1685,1.1864,1.1988,1.2228,1.2536,1.2781,1.2972,1.3094,1.292,1.3224,1.364,1.4273,1.4876,1.5441,1.6019,1.6532,1.6604,1.6776,1.74,1.8298,1.9101,1.9656,2.0667,2.1552,2.2098,2.1826,2.1036,2.1081,2.0651,1.9538,1.9522,1.9501,2.0296,2.0783,2.1273,2.1334,2.1447,2.143,2.1572,2.2561,2.2994,2.3451,2.3988,2.4709,2.5219,2.5833,2.638,2.6528,2.6352,2.6352,2.6445,2.6463,2.6632,2.7076,2.7468,2.751,2.811,2.8451,2.8959,2.9062,2.8514,2.7744,2.7268,2.6734,2.6139,2.5688,2.5449,2.5386,2.5525,2.5882,2.6161,2.6683,2.7216,2.7791,2.8328,2.8684,2.9121,2.9758,3.0222,3.0457,3.0612,3.0736,3.0739,3.0547,3.0442,3.0307,3.0185,2.9669,2.8727,2.7776,2.6785,2.5929,1.1603,1.1603,1.1603,1.143,1.1122,1.0877,1.0701,1.0624,1.0688,1.0681,1.0624,1.0681,1.0807,1.0933,1.1059,1.1185,1.1435,1.156,1.1622,1.1622,1.1622,1.1622,1.1622,1.1685,1.1747,1.174,1.1872,1.2182,1.2182,1.2436,1.2621,1.2621,1.2621,1.3224,1.3983,1.4709,1.5436,1.6123,1.6711,1.6833,1.71,1.7505,1.8536,1.931,1.9847,2.1084,2.247,2.3093,2.2405,2.1829,2.1965,2.121,2.0005,1.9579,1.986,2.0542,2.0826,2.1101,2.1266,2.1698,2.1669,2.1849,2.245,2.2947,2.3535,2.4125,2.4728,2.5263,2.5933,2.6421,2.6316,2.6224,2.6396,2.6563,2.6563,2.6532,2.6991,2.7517,2.8077,2.8722,2.9298,2.992,2.9883,2.9296,2.8888,2.8442,2.7763,2.6898,2.6452,2.6158,2.6073,2.6113,2.6589,2.702,2.7519,2.7918,2.8358,2.8852,2.9385,2.9883,3.0505,3.0618,3.0587,3.0652,3.074,3.0722,3.0693,3.0732,3.0641,3.0531,3.043,2.984,2.8949,2.8,2.7187,1.1904,1.1891,1.185,1.1617,1.1329,1.1081,1.0771,1.0624,1.0624,1.0618,1.0618,1.0624,1.0814,1.0933,1.0996,1.1247,1.1373,1.149,1.1553,1.1622,1.1622,1.1622,1.1622,1.174,1.1685,1.1809,1.1996,1.212,1.2305,1.2498,1.2621,1.2629,1.2701,1.3157,1.3943,1.4638,1.5486,1.6369,1.6804,1.7015,1.7079,1.7607,1.8325,1.86,1.9535,2.0795,2.238,2.2738,2.2255,2.274,2.2616,2.1835,2.0781,1.9979,2.0386,2.0699,2.1011,2.1182,2.154,2.2015,2.1968,2.198,2.215,2.2828,2.3537,2.3973,2.4454,2.5102,2.576,2.5986,2.5893,2.5911,2.6067,2.6404,2.6573,2.6741,2.7147,2.7709,2.8373,2.8905,2.9248,2.9829,3.0321,2.9736,2.9247,2.9206,2.8662,2.7613,2.7504,2.7191,2.6808,2.6786,2.7321,2.7785,2.8001,2.8385,2.8779,2.9287,2.9813,3.0144,3.0424,3.0539,3.061,3.0652,3.0708,3.0765,3.0781,3.0798,3.0804,3.0768,3.0707,3.0742,3.0096,2.9104,2.8456,1.2198,1.2158,1.1717,1.1363,1.1069,1.0786,1.0694,1.0618,1.0618,1.0618,1.0618,1.0688,1.0807,1.087,1.0933,1.1122,1.1365,1.1483,1.1483,1.1553,1.1622,1.1622,1.1622,1.1685,1.1685,1.1747,1.1934,1.2243,1.2436,1.256,1.2637,1.2661,1.2813,1.3271,1.3905,1.4675,1.5718,1.6618,1.6988,1.728,1.7479,1.8112,1.8762,1.945,2.0473,2.1525,2.295,2.3873,2.3944,2.4295,2.3835,2.2881,2.1545,2.1034,2.1175,2.1657,2.1565,2.1696,2.2117,2.2569,2.2688,2.2732,2.2878,2.3125,2.3477,2.3721,2.417,2.4859,2.5346,2.546,2.5589,2.5637,2.5777,2.6199,2.659,2.6956,2.7284,2.7985,2.8638,2.8915,2.9141,2.9602,3.0139,3.0145,2.9728,2.9231,2.8726,2.8289,2.8771,2.8658,2.7655,2.7628,2.815,2.8528,2.8651,2.8818,2.9158,2.9452,2.9875,3.0145,3.0356,3.0472,3.0548,3.0591,3.0637,3.0704,3.076,3.0798,3.082,3.0832,3.0827,3.079,3.0784,3.0043,2.9572,1.2305,1.2245,1.1817,1.1376,1.1009,1.0815,1.0745,1.0638,1.0618,1.0618,1.0618,1.0688,1.0807,1.0863,1.0933,1.1115,1.1365,1.1413,1.1483,1.156,1.1622,1.1622,1.1622,1.1622,1.1685,1.1809,1.2058,1.2305,1.256,1.2621,1.2637,1.2701,1.2964,1.338,1.3907,1.4987,1.6055,1.6882,1.7284,1.7668,1.78,1.8147,1.8351,1.9209,2.0049,2.1268,2.2163,2.3171,2.3742,2.3933,2.3669,2.3741,2.2903,2.2482,2.2318,2.2446,2.248,2.2505,2.2973,2.3328,2.3543,2.3472,2.3798,2.4115,2.3378,2.3613,2.3914,2.457,2.4932,2.5103,2.5365,2.5519,2.5591,2.5846,2.6238,2.6599,2.7339,2.8163,2.8693,2.9109,2.9227,2.9299,2.9783,3.001,2.9793,3.0319,2.9659,2.9229,2.9706,2.9461,2.8635,2.8219,2.8567,2.8905,2.9016,2.9232,2.9511,2.9782,2.9918,3.0169,3.0333,3.043,3.0501,3.0535,3.0591,3.0646,3.0687,3.0726,3.0765,3.0772,3.0779,3.08,3.08,3.0778,3.0337,1.2184,1.2104,1.1844,1.1436,1.0982,1.0929,1.0782,1.0645,1.0618,1.0618,1.0618,1.0618,1.0807,1.0933,1.1066,1.131,1.1428,1.1358,1.149,1.1622,1.1622,1.1622,1.1622,1.1685,1.1747,1.1934,1.2182,1.2367,1.2621,1.2693,1.2718,1.2718,1.3076,1.355,1.4397,1.546,1.6558,1.7223,1.7739,1.8089,1.7988,1.7707,1.7846,1.8171,1.869,1.9629,2.0656,2.1482,2.2401,2.3145,2.3662,2.3973,2.3967,2.3582,2.3492,2.3385,2.3124,2.322,2.3606,2.4081,2.4019,2.4105,2.4621,2.4455,2.3653,2.3628,2.3971,2.4343,2.4747,2.4941,2.5249,2.5484,2.5558,2.5818,2.6174,2.6524,2.7416,2.816,2.8567,2.9,2.8915,2.89,2.9307,2.9621,2.9849,3.0497,3.0674,3.0571,3.0213,2.9376,2.8564,2.8358,2.8532,2.8888,2.9101,2.9394,2.957,2.9608,2.9715,3.0066,3.0328,3.0386,3.0449,3.0481,3.053,3.0571,3.0618,3.0645,3.0672,3.07,3.0742,3.076,3.0762,3.0751,3.0759,1.167,1.1236,1.1176,1.0955,1.0675,1.0712,1.0672,1.0631,1.0618,1.0618,1.0618,1.0618,1.0618,1.0688,1.0688,1.087,1.124,1.1296,1.1421,1.1553,1.1622,1.1622,1.1622,1.1685,1.1817,1.2011,1.2267,1.2444,1.2647,1.2846,1.2981,1.2973,1.3624,1.4142,1.4681,1.5765,1.6882,1.7553,1.8055,1.8477,1.8725,1.8533,1.8258,1.8691,1.939,2.0287,2.1114,2.1624,2.2472,2.3354,2.4063,2.4402,2.4394,2.419,2.4055,2.4077,2.3772,2.3794,2.4106,2.4405,2.4367,2.4018,2.4365,2.4341,2.3909,2.4063,2.4425,2.4889,2.5146,2.5135,2.5364,2.5697,2.5849,2.6473,2.6918,2.7164,2.7713,2.7774,2.7805,2.7883,2.7745,2.8227,2.9005,2.8917,2.841,2.8831,2.8808,2.887,2.9782,2.9151,2.85,2.8529,2.8574,2.8515,2.8601,2.9141,2.9372,2.9394,2.9513,2.9796,3.0075,3.0311,3.0359,3.0364,3.0436,3.05,3.053,3.0571,3.0605,3.0646,3.0681,3.0721,3.0726,3.0715,3.0716]},{"header":{"parameterUnit":"m.s-1","parameterCategory":1,"la1":31.0,"la2":29.5877,"lo1":-88.7671,"lo2":-86.6584,"dy":0.0162,"dx":0.0185,"nx":115,"ny":88,"refTime":"2023-05-13T06:00:00:Z","depth":0,"parameterNumber":3,"parameterNumberName":"V-component_of_WINDS"},"data":[0.0,0.0,0.0,0.0,0.0,0.0,0.0,0.0,0.0,0.0,0.0,0.0,0.0,0.0,0.0,0.0,0.0,0.0,0.0,0.0,0.0,0.0,0.0,0.0,0.0,0.0,0.0,0.0,0.0,0.0,0.0,0.0,0.0,0.0,0.0,0.0,0.0,0.0,0.0,0.0,0.0,0.0,0.0,0.0,0.0,0.0,0.0,0.0,0.0,0.0,0.0,0.0,0.0,0.0,0.0,0.0,0.0,0.0,0.0,0.0,0.0,0.0,0.0,0.0,0.0,0.0,0.0,0.0,0.0,0.0,0.0,0.0,0.0,0.0,0.0,0.0,0.0,0.0,0.0,0.0,0.0,0.0,0.0,0.0,0.0,0.0,0.0,0.0,0.0,0.0,0.0,0.0,0.0,0.0,0.0,0.0,0.0,0.0,0.0,0.0,0.0,0.0,0.0,0.0,0.0,0.0,0.0,0.0,0.0,0.0,0.0,0.0,0.0,0.0,0.0,0.0,0.0,0.0,0.0,0.0,0.0,0.0,0.0,0.0,0.0,0.0,0.0,0.0,0.0,0.0,0.0,0.0,0.0,0.0,0.0,0.0,0.0,0.0,0.0,0.0,0.0,0.0,0.0,0.0,0.0,0.0,0.0,0.0,0.0,0.0,0.0,0.0,0.0,0.0,0.0,0.0,0.0,0.0,0.0,0.0,0.0,0.0,0.0,0.0,0.0,0.0,0.0,0.0,0.0,0.0,0.0,0.0,0.0,0.0,0.0,0.0,0.0,0.0,0.0,0.0,0.0,0.0,0.0,0.0,0.0,0.0,0.0,0.0,0.0,0.0,0.0,0.0,0.0,0.0,0.0,0.0,0.0,0.0,0.0,0.0,0.0,0.0,0.0,0.0,0.0,0.0,0.0,0.0,0.0,0.0,0.0,0.0,0.0,0.0,0.0,0.0,0.0,0.0,0.0,0.0,0.0,0.0,0.0,0.0,0.0,0.0,0.0,0.0,0.0,0.0,0.0,0.0,0.0,0.0,0.0,0.0,0.0,0.0,0.0,0.0,0.0,0.0,0.0,0.0,0.0,0.0,0.0,0.0,0.0,0.0,0.0,0.0,0.0,0.0,0.0,0.0,0.0,0.0,0.0,0.0,0.0,0.0,0.0,0.0,0.0,0.0,0.0,0.0,0.0,0.0,0.0,0.0,0.0,0.0,0.0,0.0,0.0,0.0,0.0,0.0,0.0,0.0,0.0,0.0,0.0,0.0,0.0,0.0,0.0,0.0,0.0,0.0,0.0,0.0,0.0,0.0,0.0,0.0,0.0,0.0,0.0,0.0,0.0,0.0,0.0,0.0,0.0,0.0,0.0,0.0,0.0,0.0,0.0,0.0,0.0,0.0,0.0,0.0,0.0,0.0,0.0,0.0,0.0,0.0,0.0,0.0,0.0,0.0,0.0,0.0,0.0,0.0,0.0,0.0,0.0,0.0,0.0,0.0,0.0,0.0,0.0,0.0,0.0,0.0,0.0,0.0,0.0,0.0,0.0,0.0,0.0,0.0,0.0,0.0,0.0,0.0,0.0,0.0,0.0,0.0,0.0,0.0,0.0,0.0,0.0,0.0,0.0,0.0,0.0,0.0,0.0,0.0,0.0,0.0,0.0,0.0,0.0,0.0,0.0,0.0,0.0,0.0,0.0,0.0,0.0,0.0,0.0,0.0,0.0,0.0,0.0,0.0,0.0,0.0,0.0,0.0,0.0,0.0,0.0,0.0,0.0,0.0,0.0,0.0,0.0,0.0,0.0,0.0,0.0,0.0,0.0,0.0,0.0,0.0,0.0,0.0,0.0,0.0,0.0,0.0,0.0,0.0,0.0,0.0,0.0,0.0,0.0,0.0,0.0,0.0,0.0,0.0,0.0,0.0,0.0,0.0,0.0,0.0,0.0,0.0,0.0,0.0,0.0,0.0,0.0,0.0,0.0,0.0,0.0,0.0,0.0,0.0,0.0,0.0,0.0,0.0,0.0,0.0,0.0,0.0,0.0,0.0,0.0,0.0,0.0,0.0,0.0,0.0,0.0,0.0,0.0,0.0,0.0,0.0,0.0,0.0,0.0,0.0,0.0,0.0,0.0,0.0,0.0,0.0,0.0,0.0,0.0,0.0,0.0,0.0,0.0,0.0,0.0,0.0,0.0,0.0,0.0,0.0,0.0,0.0,0.0,0.0,0.0,0.0,0.0,0.0,0.0,0.0,0.0,0.0,0.0,0.0,0.0,0.0,0.0,0.0,0.0,0.0,0.0,0.0,0.0,0.0,0.0,0.0,0.0,0.0,0.0,0.0,0.0,0.0,0.0,0.0,0.0,0.0,0.0,0.0,0.0,0.0,0.0,0.0,0.0,0.0,0.0,0.0,0.0,0.0,0.0,0.0,0.0,0.0,0.0,0.0,0.0,0.0,0.0,0.0,0.0,0.0,0.0,0.0,0.0,0.0,0.0,0.0,0.0,0.0,0.0,0.0,0.0,0.0,0.0,0.0,0.0,0.0,0.0,0.0,0.0,0.0,0.0,0.0,0.0,0.0,0.0,0.0,0.0,0.0,0.0,0.0,0.0,0.0,0.0,0.0,0.0,0.0,0.0,0.0,0.0,0.0,0.0,0.0,0.0,0.0,0.0,0.0,0.0,0.0,0.0,0.0,0.0,0.0,0.0,0.0,0.0,0.0,0.0,0.0,0.0,0.0,0.0,0.0,0.0,0.0,0.0,0.0,0.0,0.0,0.0,0.0,0.0,0.0,0.0,0.0,0.0,0.0,0.0,0.0,0.0,0.0,0.0,0.0,0.0,0.0,0.0,0.0,0.0,0.0,0.0,0.0,0.0,0.0,0.0,0.0,0.0,0.0,0.0,0.0,0.0,0.0,0.0,0.0,0.0,0.0,0.0,0.0,0.0,0.0,0.0,0.0,0.0,0.0,0.0,0.0,0.0,0.0,0.0,0.0,0.0,0.0,0.0,0.0,0.0,0.0,0.0,0.0,0.0,0.0,0.0,0.0,0.0,0.0,0.0,0.0,0.0,0.0,0.0,0.0,0.0,0.0,0.0,0.0,0.0,0.0,0.0,0.0,0.0,0.0,0.0,0.0,0.0,0.0,0.0,0.0,0.0,0.0,0.0,0.0,0.0,0.0,0.0,0.0,0.0,0.0,0.0,0.0,0.0,0.0,0.0,0.0,0.0,0.0,0.0,0.0,0.0,0.0,0.0,0.0,0.0,0.0,0.0,0.0,0.0,0.0,0.0,0.0,0.0,0.0,0.0,0.0,0.0,0.0,0.0,0.0,0.0,0.0,0.0,0.0,0.0,0.0,0.0,0.0,0.0,0.0,0.0,0.0,0.0,0.0,0.0,0.0,0.0,0.0,0.0,0.0,0.0,0.0,0.0,0.0,0.0,0.0,0.0,0.0,0.0,0.0,0.0,0.0,0.0,0.0,0.0,0.0,0.0,0.0,0.0,0.0,0.0,0.0,0.0,0.0,0.0,0.0,0.0,0.0,0.0,0.0,0.0,0.0,0.0,0.0,0.0,0.0,0.0,0.0,0.0,0.0,0.0,0.0,0.0,0.0,0.0,0.0,0.0,0.0,0.0,0.0,0.0,0.0,0.0,0.0,0.0,0.0,0.0,0.0,0.0,0.0,0.0,0.0,0.0,0.0,0.0,0.0,0.0,0.0,0.0,0.0,0.0,0.0,0.0,0.0,0.0,0.0,0.0,0.0,0.0,0.0,0.0,0.0,0.0,0.0,0.0,0.0,0.0,0.0,0.0,0.0,0.0,0.0,0.0,0.0,0.0,0.0,0.0,0.0,0.0,0.0,0.0,0.0,0.0,0.0,0.0,0.0,0.0,0.0,0.0,0.0,0.0,0.0,0.0,0.0,0.0,0.0,0.0,0.0,0.0,0.0,0.0,0.0,0.0,0.0,0.0,0.0,0.0,0.0,0.0,0.0,0.0,0.0,0.0,0.0,0.0,0.0,0.0,0.0,0.0,0.0,0.0,0.0,0.0,0.0,0.0,0.0,0.0,0.0,0.0,0.0,0.0,0.0,0.0,0.0,0.0,0.0,0.0,0.0,0.0,0.0,0.0,0.0,0.0,0.0,0.0,0.0,0.0,0.0,0.0,0.0,0.0,0.0,0.0,0.0,0.0,0.0,0.0,0.0,0.0,0.0,0.0,0.0,0.0,0.0,0.0,0.0,0.0,0.0,0.0,0.0,0.0,0.0,0.0,0.0,-0.0763,0.0,0.0,0.0,0.0,0.0,0.0,0.0,0.0,0.0,0.0,0.0,0.0,0.0,0.0,0.0,0.0,0.0,0.0,0.0,0.0,0.0,0.0,0.0,0.0,0.0,0.0,0.0,0.0,0.0,0.0,0.0,0.0,0.0,0.0,0.0,0.0,0.0,0.0,0.0,0.0,0.0,0.0,0.0,0.0,0.0,0.0,0.0,0.0,0.0,0.0,0.0,0.0,0.0,0.0,0.0,0.0,0.0,0.0,0.0,0.0,0.0,0.0,0.0,0.0,0.0,0.0,0.0,0.0,0.0,0.0,0.0,0.0,0.0,0.0,0.0,0.0,0.0,0.0,0.0,0.0,0.0,0.0,0.0,0.0,0.0,0.0,0.0,0.0,0.0,0.0,0.0,0.0,0.0,0.0,0.0,0.0,0.0,0.0,0.0,0.0,0.0,0.0,0.0,0.0,0.0,0.0,0.0,0.0,0.0,0.0,0.0234,0.009,-0.0093,-0.0281,-0.0584,0.0,0.0,0.0,0.0,0.0,0.0,0.0,0.0,0.0,0.0,0.0,0.0,0.0,0.0,0.0,0.0,0.0,0.0,0.0,0.0,0.0,0.0,0.0,0.0,0.0,0.0,0.0,0.0,0.0,0.0,0.0,0.0,0.0,0.0,0.0,0.0,0.0,0.0,0.0,0.0,0.0,0.0,0.0,0.0,0.0,0.0,0.0,0.0,0.0,0.0,0.0,0.0,0.0,0.0,0.0,0.0,0.0,0.0,0.0,0.0,0.0,0.0,0.0,0.0,0.0,0.0,0.0,0.0,0.0,0.0,0.0,0.0,0.0,0.0,0.0,0.0,0.0,0.0,0.0,0.0,0.0,0.0,0.0,0.0,0.0,0.0,0.0,0.0,0.0,0.0,0.0,0.0,0.0,0.0,0.0,0.0,0.0,0.0,0.0,0.0,0.0,0.0,0.0,0.0,0.0,0.0,0.0,0.0,0.0,0.0,0.0,0.0,0.0231,-0.0046,-0.054,0.0,0.0,0.0,0.0,0.0,0.0,0.0,0.0,0.0,0.0,0.0,0.0,0.0,0.0,0.0,0.0,0.0,0.0,0.0,0.0,0.0,0.0,0.0,0.0,0.0,0.0,0.0,0.0,0.0,0.0,0.0,0.0,0.0,0.0,0.0,0.0,0.0,0.0,0.0,0.0,0.0,0.0,0.0,0.0,0.0,0.0,0.0,0.0,0.0,0.0,0.0,0.0,0.0,0.0,0.0,0.0,0.0,0.0,0.0,0.0,0.0,0.0,0.0,0.0,0.0,0.0,0.0,0.0,0.0,0.0,0.0,0.0,0.0,0.0,0.0,0.0,0.0,0.0,0.0,0.0,0.0,0.0,0.0,0.0,0.0,0.0,0.0,0.0,0.0,0.0,0.0,0.0,0.0,0.0,0.0,0.0,0.0,0.0,0.0,0.0,0.0,0.0,0.0,0.0,0.0,0.0,0.0,0.0,0.0,0.0,0.0632,0.063,0.0632,0.0,-0.0629,0.0,0.0,0.0,0.0,0.0,0.0,0.0,0.0,0.0,0.0,0.0,0.0,0.0,0.0,0.0,0.0,0.0,0.0,0.0,0.0,0.0,0.0,0.0,0.0,0.0,0.0,0.0,0.0,0.0,0.0,0.0,0.0,0.0,0.0,0.0,0.0,0.0,0.0,0.0,0.0,0.0,0.0,0.0,0.0,0.0,0.0,0.0,0.0,0.0,0.0,0.0,0.0,0.0,0.0,0.0,0.0,0.0,0.0,0.0,0.0,0.0,0.0,0.0,0.0,0.0,0.0,0.0,0.0,0.0,0.0,0.0,0.0,0.0,0.0,0.0,0.0,0.0,0.0,0.0,0.0,0.0,0.0,0.0,0.0,0.0,0.0,0.0,0.0,0.0,0.0,0.0,0.0,0.0,0.0,0.0,0.0,0.0,0.0,0.0,0.0,0.0,0.0,0.0,0.0,0.0,0.0,0.0,0.0,0.0,0.0,0.0764,0.09,0.0629,0.0225,0.0,0.0,0.0,0.0,0.0,0.0,0.0,0.0,0.0,0.0,0.0,0.0,0.0,0.0,0.0,0.0,0.0,0.0,0.0,0.0,0.0,0.0,0.0,0.0,0.0,0.0,0.0,0.0,0.0,0.0,0.0,0.0,0.0,0.0,0.0,0.0,0.0,0.0,0.0,0.0,0.0,0.0,0.0,0.0,0.0,0.0,0.0,0.0,0.0,0.0,0.0,0.0,0.0,0.0,0.0,0.0,0.0,0.0,0.0,0.0,0.0,0.0,0.0,0.0,0.0,0.0,0.0,0.0,0.0,0.0,0.0,0.0,0.0,0.0,0.0,0.0,0.0,0.0,0.0,0.0,0.0,0.0,0.0,0.0,0.0,0.0,0.0,0.0,0.0,0.0,0.0,0.0,0.0,0.0,0.0,0.0,0.0,0.0,0.0,0.0,0.0,0.0,0.0,0.0,0.0,0.0,0.0,0.0,0.0,0.0,0.0674,0.0718,0.0808,0.0629,0.0225,-0.0225,0.0,0.0,0.0,0.0,0.0,0.0,0.0,0.0,0.0,0.0,0.0,0.0,0.0,0.0,0.0,0.0,0.0,0.0,0.0,0.0,0.0,0.0,0.0,0.0,0.0,0.0,0.0,0.0,0.0,0.0,0.0,0.0,0.0,0.0,0.0,0.0,0.0,0.0,0.0,0.0,0.0,0.0,0.0,0.0,0.0,0.0,0.0,0.0,0.0,0.0,0.0,0.0,0.0,0.0,0.0,0.0,0.0,0.0,0.0,0.0,0.0,0.0,0.0,0.0,0.0,0.0,0.0,0.0,0.0,0.0,0.0,0.0,0.0,0.0,0.0,0.0,0.0,0.0,0.0,0.0,0.0,0.0,0.0,0.0,0.0,0.0,0.0,0.0,0.0,0.0,0.0,0.0,0.0,0.0,0.0,0.0,0.0,0.0,0.0,0.0,0.0,0.0,0.0,0.0,0.0,0.0,0.0,0.0,0.0269,0.0358,0.0402,0.0402,0.0583,0.036,0.0,0.0,0.0,0.0,0.0,0.0,0.0,0.0,0.0,0.0,0.0,0.0,0.0,0.0,0.0,0.0,0.0,0.0,0.0,0.0,0.0,0.0,0.0,0.0,0.0,0.0,0.0,0.0,0.0,0.0,0.0,0.0,0.0,0.0,0.0,0.0,0.0,0.0,0.0,0.0,0.0,0.0,0.0,0.0,0.0,0.0,0.0,0.0,0.0,0.0,0.0,0.0,0.0,0.0,0.0,0.0,0.0,0.0,0.0,0.0,0.0,0.0,0.0,0.0,0.0,0.0,0.0,0.0,0.0,0.0,0.0,0.0,0.0,0.0,0.0,0.0,0.0,0.0,0.0,0.0,0.0,0.0,0.0,0.0,0.0,0.0,0.0,0.0,0.0,0.0,0.0,0.0,0.0,0.0,0.0,0.0,0.0,0.0,0.0,0.0,0.0,0.0,0.0,0.0,0.0,0.0,0.0,0.0,0.0,0.0172,-0.0291,-0.0499,-0.0514,-0.0172,-0.0218,0.0,0.0,0.0,0.0,0.0,0.0,0.0,0.0,0.0,0.0,0.0,0.0,0.0,0.0,0.0,0.0,0.0,0.0,0.0,0.0,0.0,0.0,0.0,0.0,0.0,0.0,0.0,0.0,0.0,0.0,0.0,0.0,0.0,0.0,0.0,0.0,0.0,0.0,0.0,0.0,0.0,0.0,0.0,0.0,0.0,0.0,0.0,0.0,0.0,0.0,0.0,0.0,0.0,0.0,0.0,0.0,0.0,0.0,0.0,0.0,0.0,0.0,0.0,0.0,0.0,0.0,0.0,0.0,0.0,0.0,0.0,0.0,0.0,0.0,0.0,0.0,0.0,0.0,0.0,0.0,0.0,0.0,0.0,0.0,0.0,0.0,0.0,0.0,0.0,0.0,0.0,0.0,0.0,0.0,0.0,0.0,0.0,0.0,0.0,0.0,0.0,0.0,0.0,0.0,0.0,0.0,0.0,0.0,0.0,0.0472,0.0,-0.1632,-0.1519,-0.1099,-0.1048,0.0,0.0,0.0,0.0,0.0,0.0,0.0,0.0,0.0,0.0,0.0,0.0,0.0,0.0,0.0,0.0,0.0,0.0,0.0,0.0,0.0,0.0,0.0,0.0,0.0,0.0,0.0,0.0,0.0,0.0,0.0,0.0,0.0,0.0,0.0,0.0,0.0,0.0,0.0,0.0,0.0,0.0,0.0,0.0,0.0,0.0,0.0,0.0,0.0,0.0,0.0,0.0,0.0,0.0,0.0,0.0,0.0,0.0,0.0,0.0,0.0,0.0,0.0,0.0,0.0,0.0,0.0,0.0,0.0,0.0,0.0,0.0,0.0,0.0,0.0,0.0,0.0,0.0,0.0,0.0,0.0,0.0,0.0,0.0,0.0,0.0,0.0,0.0,0.0,0.0,0.0,0.0,0.0,0.0,0.0,0.0,0.0,0.0,0.0,0.0,0.0,0.0,0.0,0.0,0.0,0.0,0.0,0.0,0.2844,0.1308,-0.1399,-0.2673,-0.2639,-0.2123,-0.199,0.0,0.0,0.0,0.0,0.0,0.0,0.0,0.0,0.0,0.0,0.0,0.0,0.0,0.0,0.0,0.0,0.0,0.0,0.0,0.0,0.0,0.0,0.0,0.0,0.0,0.0,0.0,0.0,0.0,0.0,0.0,0.0,0.0,0.0,0.0,0.0,0.0,0.0,0.0,0.0,0.0,0.0,0.0,0.0,0.0,0.0,0.0,0.0,0.0,0.0,0.0,0.0,0.0,0.0,0.0,0.0,0.0,0.0,0.0,0.0,0.0,0.0,0.0,0.0,0.0,0.0,0.0,0.0,0.0,0.0,0.0,0.0,0.0,0.0,0.0,0.0,0.0,0.0,0.0,0.0,0.0,0.0,0.0,0.0,0.0,0.0,0.0,0.0,0.0,0.0,0.0,0.0,0.0,0.0,0.0,0.0,0.0,0.0,0.0,0.0,0.0,0.0,0.0,0.0,0.0,0.0,0.0,0.0,0.0,0.3704,0.072,-0.0891,-0.1018,-0.1871,-0.2486,0.0,0.0,0.0,0.0,0.0,0.0,0.0,0.0,0.0,0.0,0.0,0.0,0.0,0.0,0.0,0.0,0.0,0.0,0.0,0.0,0.0,0.0,0.0,0.0,0.0,0.0,0.0,0.0,0.0,0.0,0.0,0.0,0.0,0.0,0.0,0.0,0.0,0.0,0.0,0.0,0.0,0.0,0.0,0.0,0.0,0.0,0.0,0.0,0.0,0.0,0.0,0.0,0.0,0.0,0.0,0.0,0.0,0.0,0.0,0.0,0.0,0.0,0.0,0.0,0.0,0.0,0.0,0.0,0.0,0.0,0.0,0.0,0.0,0.0,0.0,0.0,0.0,0.0,0.0,0.0,0.0,0.0,0.0,0.0,0.0,0.0,0.0,0.0,0.0,0.0,0.0,0.0,0.0,0.0,0.0,0.0,0.0,0.0,0.0,0.0,0.0,0.0,0.0,0.0,0.0,0.0,0.0,0.0,0.0,0.4851,0.1529,-0.0954,-0.2483,-0.3624,-0.3855,-0.31,0.0,0.0,0.0,0.0,0.0,0.0,0.0,0.0,0.0,0.0,0.0,0.0,0.0,0.0,0.0,0.0,0.0,0.0,0.0,0.0,0.0,0.0,0.0,0.0,0.0,0.0,0.0,0.0,0.0,0.0,0.0,0.0,0.0,0.0,0.0,0.0,0.0,0.0,0.0,0.0,0.0,0.0,0.0,0.0,0.0,0.0,0.0,0.0,0.0,0.0,0.0,0.0,0.0,0.0,0.0,0.0,0.0,0.0,0.0,0.0,0.0,0.0,0.0,0.0,0.0,0.0,0.0,0.0,0.0,0.0,0.0,0.0,0.0,0.0,0.0,0.0,0.0,0.0,0.0,0.0,0.0,0.0,0.0,0.0,0.0,0.0,0.0,0.0,0.0,0.0,0.0,0.0,0.0,0.0,0.0,0.0,0.0,0.0,0.0,0.0,0.0,0.0,0.0,0.0,0.0,0.0,0.0,0.0,0.4644,0.1078,-0.2566,-0.6233,-0.6698,-0.5855,0.0,0.0,0.0,0.0,0.0,0.0,0.0,0.0,0.0,0.0,0.0,0.0,0.0,0.0,0.0,0.0,0.0,0.0,0.0,0.0,0.0,0.0,0.0,0.0,0.0,0.0,0.0,0.0,0.0,0.0,0.0,0.0,0.0,0.0,0.0,0.0,0.0,0.0,0.0,0.0,0.0,0.0,0.0,0.0,0.0,0.0,0.0,0.0,0.0,0.0,0.0,0.0,0.0,0.0,0.0,0.0,0.0,0.0,0.0,0.0,0.0,0.0,0.0,0.0,0.0,0.0,0.0,0.0,0.0,0.0,0.0,0.0,0.0,0.0,0.0,0.0,0.0,0.0,0.0,0.0,0.0,0.0,0.0,0.0,0.0,0.0,0.0,0.0,0.0,0.0,0.0,0.0,0.0,0.0,0.0,0.0,0.0,0.0,0.0,0.0,0.0,0.0,0.0,0.0,0.0,0.0,0.0,0.0,0.0,0.2023,-0.0472,-0.3235,-0.6484,-0.7026,-0.7035,0.0,0.0,0.0,0.0,0.0,0.0,0.0,0.0,0.0,0.0,0.0,0.0,0.0,0.0,0.0,0.0,0.0,0.0,0.0,0.0,0.0,0.0,0.0,0.0,0.0,0.0,0.0,0.0,0.0,0.0,0.0,0.0,0.0,0.0,0.0,0.0,0.0,0.0,0.0,0.0,0.0,0.0,0.0,0.0,0.0,0.0,0.0,0.0,0.0,0.0,0.0,0.0,0.0,0.0,0.0,0.0,0.0,0.0,0.0,0.0,0.0,0.0,0.0,0.0,0.0,0.0,0.0,0.0,0.0,0.0,0.0,0.0,0.0,0.0,0.0,0.0,0.0,0.0,0.0,0.0,0.0,0.0,0.0,0.0,0.0,0.0,0.0,0.0,0.0,0.0,0.0,0.0,0.0,0.0,0.0,0.0,0.0,0.0,0.0,0.0,0.0,0.0,0.0,0.0,0.0,0.0,0.0,0.0,0.935,0.0734,-0.0134,-0.3483,-0.9682,-0.9204,-0.8444,0.0,0.0,0.0,0.0,0.0,0.0,0.0,0.0,0.0,0.0,0.0,0.0,0.0,0.0,0.0,0.0,0.0,0.0,0.0,0.0,0.0,0.0,0.0,0.0,0.0,0.0,0.0,0.0,0.0,0.0,0.0,0.0,0.0,0.0,0.0,0.0,0.0,0.0,0.0,0.0,0.0,0.0,0.0,0.0,0.0,0.0,0.0,0.0,0.0,0.0,0.0,0.0,0.0,0.0,0.0,0.0,0.0,0.0,0.0,0.0,0.0,0.0,0.0,0.0,0.0,0.0,0.0,0.0,0.0,0.0,0.0,0.0,0.0,0.0,0.0,0.0,0.0,0.0,0.0,0.0,0.0,0.0,0.0,0.0,0.0,0.0,0.0,0.0,0.0,0.0,0.0,0.0,0.0,0.0,0.0,0.0,0.0,0.0,0.0,0.0,0.0,0.0,0.0,0.0,0.0,0.0,0.0,0.0,1.0756,0.0682,0.1133,-0.3466,-1.3471,-1.1968,-0.9817,0.0,0.0,0.0,0.0,0.0,0.0,0.0,0.0,0.0,0.0,0.0,0.0,0.0,0.0,0.0,0.0,0.0,0.0,0.0,0.0,0.0,0.0,0.0,0.0,0.0,0.0,0.0,0.0,0.0,0.0,0.0,0.0,0.0,0.0,0.0,0.0,0.0,0.0,0.0,0.0,0.0,0.0,0.0,0.0,0.0,0.0,0.0,0.0,0.0,0.0,0.0,0.0,0.0,0.0,0.0,0.0,0.0,0.0,0.0,0.0,0.0,0.0,0.0,0.0,0.0,0.0,0.0,0.0,0.0,0.0,0.0,0.0,0.0,0.0,0.0,0.0,0.0,0.0,0.0,0.0,0.0,0.0,0.0,0.0,0.0,0.0,0.0,0.0,0.0,0.0,0.0,0.0,0.0,0.0,0.0,0.0,0.0,0.0,0.0,0.0,0.0,0.0,0.0,0.0,0.0,0.0,0.0,0.0,1.0411,0.2052,0.1303,-0.3497,-1.2907,-1.1285,-1.0197,0.0,0.0,0.0,0.0,0.0,0.0,0.0,0.0,0.0,0.0,0.0,0.0,0.0,0.0,0.0,0.0,0.0,0.0,0.0,0.0,0.0,0.0,0.0,0.0,0.0,0.0,0.0,0.0,0.0,0.0,0.0,0.0,0.0,0.0,0.0,0.0,0.0,0.0,0.0,0.0,0.0,0.0,0.0,0.0,0.0,0.0,0.0,0.0,-0.1409,0.0,0.0,0.0,0.0,0.0,0.0,0.0,0.0,0.0,0.0,0.0,0.0,0.0,0.0,0.0,0.0,0.0,0.0,0.0,0.0,0.0,0.0,0.0,0.0,0.0,0.0,0.0,0.0,0.0,0.0,0.0,0.0,0.0,0.0,0.0,0.0,0.0,0.0,0.0,0.0,0.0,0.0,0.0,0.0,0.0,0.0,0.0,0.0,0.0,0.0,0.0,0.0,0.0,0.0,0.0,0.0,0.0,0.0,0.0,1.023,0.2473,0.1488,-0.3151,-1.1718,-1.0913,-1.0349,0.0,0.0,0.0,0.0,0.0,0.0,0.0,0.0,0.0,0.0,0.0,0.0,0.0,0.0,0.0,0.0,0.0,0.0,0.0,0.0,0.0,0.0,0.0,0.0,0.0,0.0,0.0,0.0,0.0,0.0,0.0,0.0,0.0,0.0,0.0,0.0,0.0,0.0,0.0,0.0,0.0,0.0,0.0,0.0,0.0,0.0,0.0,0.0,0.0,0.0,0.0,0.0,0.0,0.0,0.0,0.0,0.0,0.0,0.0,0.0,0.0,0.0,0.0,0.0,0.0,0.0,0.0,0.0,0.0,0.0,0.0,0.0,0.0,0.0,0.0,0.0,0.0,0.0,0.0,0.0,0.0,0.0,0.0,0.0,0.0,0.0,0.0,0.0,0.0,0.0,0.0,0.0,0.0,0.0,0.0,0.0,0.0,0.0,0.0,0.0,0.0,0.0,0.0,0.0,0.0,0.0,0.0,1.3924,1.0178,0.2602,0.1696,-0.2697,-1.1134,-1.0766,-1.0442,-1.0595,0.0,0.0,0.0,0.0,0.0,0.0,0.0,0.0,0.0,0.0,0.0,0.0,0.0,0.0,0.0,0.0,0.0,0.0,0.0,0.0,0.0,0.0,0.0,0.0,0.0,0.0,0.0,0.0,0.0,0.0,0.0,0.0,0.0,0.0,0.0,0.0,0.0,0.0,0.3166,0.061,0.0,0.0,0.0,0.0,0.0,0.0,0.0,0.0,-0.5269,0.0,0.0,0.0,0.0,0.0,0.0,0.0,0.0,0.0,0.0,0.0,0.0,0.0,0.0,0.0,0.0,0.0,0.0,0.0,0.0,0.0,0.0,0.0,0.0,0.0,0.0,0.0,0.0,0.0,0.0,0.0,0.0,0.0,0.0,0.0,0.0,0.0,0.0,0.0,0.0,0.0,0.0,0.0,0.0,0.0,0.0,0.0,0.0,0.0,0.0,0.0,0.0,0.0,0.0,0.0,0.0,1.3938,1.4108,1.0471,0.2986,0.1977,-0.243,-1.0514,-1.1057,-1.0724,-0.9782,0.0,0.0,0.0,0.0,0.0,0.0,0.0,0.0,0.0,0.0,0.0,0.0,0.0,0.0,0.0,0.0,0.0,0.0,0.0,0.0,0.0,0.0,0.0,0.0,0.0,0.0,0.0,0.0,0.0,0.0,0.0,0.0,0.0,0.0,0.0,0.0,0.0,0.0,0.0,0.1938,-0.1018,0.0,0.0,0.0,0.0,0.0,0.0,0.0,0.0,-0.752,0.0,0.0,0.0,0.0,0.0,0.0,0.0,0.0,0.0,0.0,0.0,0.0,0.0,0.0,0.0,0.0,0.0,0.0,0.0,0.0,0.0,0.0,0.0,0.0,0.0,0.0,0.0,0.0,0.0,0.0,0.0,0.0,0.0,0.0,0.0,0.0,0.0,0.0,0.0,0.0,0.0,0.0,0.0,0.0,0.0,0.0,0.0,0.0,0.0,0.0,0.0,0.0,0.0,0.0,0.0,1.3821,1.3255,0.9485,0.2709,0.1755,-0.2476,-1.0328,-1.0586,-1.0241,0.0,0.0,0.0,0.0,0.0,0.0,0.0,0.0,0.0,0.0,0.0,0.0,0.0,0.0,0.0,0.0,0.0,0.0,0.0,0.0,0.0,0.0,0.0,0.0,0.0,0.0,0.0,0.0,0.0,0.0,0.0,0.0,0.0,0.0,0.0,0.0,0.0,0.0,0.0,0.0,0.2296,-0.2294,-0.5311,0.0,0.0,0.0,0.0,0.0,0.0,-0.9322,-0.985,0.0,0.0,0.0,0.0,0.0,0.0,0.0,0.0,0.0,0.0,0.0,0.0,0.0,0.0,0.0,0.0,0.0,0.0,0.0,0.0,0.0,0.0,0.0,0.0,0.0,0.0,0.0,0.0,0.0,0.0,0.0,0.0,0.0,0.0,0.0,0.0,0.0,0.0,0.0,0.0,0.0,0.0,0.0,0.0,0.0,0.0,0.0,0.0,0.0,0.0,0.0,0.0,0.0,0.0,0.0,1.3755,1.2748,0.887,0.2384,0.1506,-0.2503,-1.0102,-0.9907,-0.9593,0.0,0.0,0.0,0.0,0.0,0.0,0.0,0.0,0.0,0.0,0.0,0.0,0.0,0.0,0.0,0.0,0.0,0.0,0.0,0.0,0.0,0.0,0.0,0.0,0.0,0.0,0.0,0.0,0.0,0.0,0.0,0.0,0.0,0.0,0.0,0.0,0.0,0.0,0.0,0.0,0.0,-0.3554,-0.7816,-1.0809,0.0,0.0,0.0,0.0,-1.1251,-1.2028,0.0,0.0,0.0,0.0,0.0,0.0,0.0,0.0,0.0,0.0,0.0,0.0,0.0,0.0,0.0,0.0,0.0,0.0,0.0,0.0,0.0,0.0,0.0,0.0,0.0,0.0,0.0,0.0,0.0,0.0,0.0,0.0,0.0,0.0,0.0,0.0,0.0,0.0,0.0,0.0,0.0,0.0,0.0,0.0,0.0,0.0,0.0,0.0,0.0,0.0,0.0,0.0,0.0,0.0,0.0,0.0,1.3705,1.3722,0.9936,0.2517,0.1607,-0.2243,-0.9678,-0.936,-0.9175,0.0,0.0,0.0,0.0,0.0,0.0,0.0,0.0,0.0,0.0,0.0,0.0,0.0,0.0,0.0,0.0,0.0,0.0,0.0,0.0,0.0,0.0,0.0,0.0,0.0,0.0,0.0,0.0,0.0,0.0,0.0,0.0,0.0,0.0,0.0,0.0,0.0,0.0,0.0,0.0,0.0,-0.3822,-0.8828,-1.2249,-1.3859,0.0,0.0,-1.4088,-1.4031,-1.5301,0.0,0.0,0.0,0.0,0.0,0.0,0.0,0.0,0.0,0.0,0.0,0.0,0.0,0.0,0.0,0.0,0.0,0.0,0.0,0.0,0.0,0.0,0.0,0.0,0.0,0.0,0.0,0.0,0.0,0.0,0.0,0.0,0.0,0.0,0.0,0.0,0.0,0.0,0.0,0.0,0.0,0.0,0.0,0.0,0.0,0.0,0.0,0.0,0.0,0.0,0.0,0.0,0.0,0.0,0.0,1.2987,1.3794,1.1348,0.7438,0.2203,-0.032,-0.4256,-0.9919,-0.9292,-0.9198,0.0,0.0,0.0,0.0,0.0,0.0,0.0,0.0,0.0,0.0,0.0,0.0,0.0,0.0,0.0,0.0,0.0,0.0,0.0,0.0,0.0,0.0,0.0,0.0,0.0,0.0,0.0,0.0,0.0,0.0,0.0,0.0,0.0,0.0,0.0,0.0,0.0,0.0,0.0,0.0,0.0,0.0,-0.5481,-1.1446,0.0,0.0,0.0,-1.6576,-1.6307,0.0,0.0,0.0,0.0,0.0,0.0,0.0,0.0,0.0,0.0,0.0,0.0,0.0,0.0,0.0,0.0,0.0,0.0,0.0,0.0,0.0,0.0,0.0,0.0,0.0,0.0,0.0,0.0,0.0,0.0,0.0,0.0,0.0,0.0,0.0,0.0,0.0,0.0,0.0,0.0,0.0,0.0,0.0,0.0,0.0,0.0,0.0,0.0,0.0,0.0,0.0,0.0,0.0,0.0,0.0,0.0,0.0,1.4124,0.9642,0.5595,0.2114,-0.1766,-0.5858,-0.9982,-0.9613,0.0,0.0,0.0,0.0,0.0,0.0,0.0,0.0,0.0,0.0,0.0,0.0,0.0,0.0,0.0,0.0,0.0,0.0,0.0,0.0,0.0,0.0,0.0,0.0,0.0,0.0,0.0,-0.3434,0.0,0.0,0.0,0.0,0.0,0.0,0.0,0.0,0.0,0.0,0.0,0.0,0.0,0.0,-0.1761,-0.3793,-1.1164,-1.6467,0.0,0.0,-1.8393,-1.8508,-1.9971,-2.0568,0.0,0.0,0.0,0.0,0.0,0.0,0.0,0.0,0.0,0.0,0.0,0.0,0.0,0.0,0.0,0.0,0.0,0.0,0.0,0.0,0.0,0.0,0.0,0.0,0.0,0.0,0.0,0.0,0.0,0.0,0.0,0.0,0.0,0.0,0.0,0.0,0.0,0.0,0.0,0.0,0.0,0.0,0.0,0.0,0.0,0.0,0.0,0.0,0.0,0.0,0.0,0.0,0.0,0.0,0.0,1.4479,1.0333,0.619,0.2346,-0.1699,-0.5808,-0.9957,-1.0518,-1.0759,0.0,0.0,0.0,0.0,0.0,0.0,0.0,0.0,0.0,0.0,0.0,0.0,0.0,0.0,0.0,0.0,0.0,0.0,0.0,0.0,0.0,0.0,0.0,0.0,0.0,0.0,0.0,0.0,0.0,0.0,0.0,0.0,0.0,0.0,0.0,0.0,0.0,0.0,0.0,0.0,0.0,-0.1702,-0.6689,-1.2549,-1.6659,0.0,0.0,-1.9067,-2.0782,-2.1841,-2.231,-2.1861,0.0,0.0,0.0,0.0,0.0,0.0,0.0,0.0,0.0,0.0,0.0,0.0,0.0,0.0,0.0,0.0,0.0,0.0,0.0,0.0,0.0,0.0,0.0,0.0,0.0,0.0,0.0,0.0,0.0,0.0,0.0,0.0,0.0,0.0,0.0,0.0,0.0,0.0,0.0,0.0,0.0,0.0,0.0,0.0,0.0,0.0,0.0,0.0,0.0,0.0,0.0,0.0,0.0,1.4664,1.504,0.8571,0.435,0.2533,-0.3968,-0.8448,-1.0355,-1.1092,-1.1509,0.0,0.0,0.0,0.0,0.0,0.0,0.0,0.0,0.0,0.0,0.0,0.0,0.0,0.0,0.0,0.0,0.0,0.0,0.0,0.0,0.0,0.0,0.0,0.0,0.0,0.0,0.0,0.0,-0.5231,-0.6859,-0.7453,0.0,0.0,0.0,0.0,0.0,0.0,0.0,0.0,0.0,0.0,0.0223,-0.1966,-1.0661,0.0,0.0,-1.9978,-2.095,-2.124,-2.2308,-2.2499,-2.072,-2.0673,0.0,0.0,0.0,0.0,0.0,0.0,0.0,0.0,0.0,0.0,0.0,0.0,0.0,0.0,0.0,0.0,0.0,0.0,0.0,0.0,0.0,0.0,0.0,0.0,0.0,0.0,0.0,0.0,0.0,0.0,0.0,0.0,0.0,0.0,0.0,0.0,0.0,0.0,0.0,0.0,0.0,0.0,0.0,0.0,0.0,0.0,0.0,0.0,0.0,0.0,0.0,0.0,1.5078,1.585,0.7504,0.3142,0.3063,-0.5478,-1.0261,-1.0788,-1.1842,-1.2446,0.0,0.0,0.0,0.0,0.0,0.0,0.0,0.0,0.0,0.0,0.0,0.0,0.0,0.0,0.0,0.0,0.0,0.0,0.0,0.0,0.0,0.0,0.0,0.0,0.0,0.0,0.0,0.0,-0.644,-0.8963,-0.952,0.0,0.0,0.0,0.0,0.0,0.0,0.0,0.0,0.0,0.0,0.221,0.1725,-0.8678,-1.7121,-1.8986,-2.0433,-2.1295,-2.1252,-2.2364,-2.2635,-2.0879,0.0,0.0,0.0,0.0,0.0,0.0,0.0,0.0,0.0,0.0,0.0,0.0,0.0,0.0,0.0,0.0,0.0,0.0,0.0,0.0,0.0,0.0,0.0,0.0,0.0,0.0,0.0,0.0,0.0,0.0,-0.641,0.0,0.0,0.0,0.0,0.0,0.0,0.0,0.0,0.0,0.0,0.0,0.0,0.0,0.0,0.0,0.0,0.0,0.0,0.0,0.0,0.0,0.0,1.5332,1.6917,0.7698,0.3093,0.3336,-0.5565,-1.065,-1.1282,-1.2896,-1.3666,-1.3465,0.0,0.0,0.0,0.0,0.0,0.0,0.0,0.0,0.0,0.0,0.0,0.0,0.0,0.0,0.0,0.0,0.0,0.0,0.0,0.0,0.0,0.0,0.0,0.0,0.0,0.0,-1.0564,-1.3604,-1.4042,0.0,0.0,0.0,0.0,0.0,0.0,0.0,0.0,0.0,0.0,1.1029,0.3996,0.3071,-0.7056,-1.5595,-1.7951,-1.8788,-1.9603,-2.0952,-2.2136,-2.3012,0.0,0.0,0.0,0.0,0.0,0.0,0.0,0.0,0.0,0.0,0.0,0.0,0.0,0.0,0.0,0.0,0.0,0.0,0.0,0.0,0.0,0.0,0.0,0.0,0.0,0.0,0.0,0.043,0.0655,0.0,0.0,0.0,0.0,0.0,0.0,0.0,0.0,0.0,0.0,0.0,-0.0585,-0.326,0.0,0.0,0.0,0.0,0.0,0.0,0.0,0.0,0.0,0.0,0.0,0.0,1.6918,1.7064,0.8824,0.4088,0.3411,-0.5529,-1.0788,-1.1748,-1.3216,-1.4094,-1.4361,0.0,0.0,0.0,0.0,0.0,0.0,0.0,0.0,0.0,0.0,0.0,0.0,0.0,0.0,0.0,0.0,0.0,0.0,0.0,0.0,0.0,0.0,0.0,0.0,0.0,-0.4525,0.0,0.0,0.0,0.0,0.0,0.0,0.0,0.0,0.0,0.0,0.0,1.9875,2.0621,1.0762,0.3209,0.2526,-0.8447,-1.7384,0.0,0.0,0.0,0.0,0.0,0.0,0.0,0.0,0.0,0.0,0.0,0.0,0.0,0.0,-1.8413,-1.4946,-1.4348,-1.4574,-1.5094,0.0,0.0,0.0,0.0,0.0,0.0,0.0,0.0,0.0,0.0,0.0,0.0,0.0,0.0,-0.0387,0.0,-0.8204,0.0,0.0,0.0,0.0,0.0,0.0,0.0,0.0,1.4178,0.8691,0.0379,-0.264,-0.8809,0.0,-1.7709,-1.6519,0.0,0.0,0.0,0.0,0.0,0.0,0.0,0.0,1.7775,1.7878,0.9469,0.4663,0.3767,-0.5337,-1.0837,-1.1869,-1.3591,-1.4788,-1.536,-1.5463,-1.5301,0.0,0.0,0.0,0.0,0.0,0.0,0.0,0.0,0.0,0.0,0.0,0.0,0.0,0.0,0.0,0.0,0.0,0.0,0.0,0.0,0.0,0.0,0.0,-0.7791,0.0,0.0,0.0,0.0,0.0,0.0,0.0,0.0,0.0,1.8955,1.9726,2.052,2.1249,1.3289,0.6307,0.3278,0.0,0.0,0.0,0.0,0.0,0.0,0.0,-2.3107,-2.3076,-2.3385,-2.389,-2.4681,-2.4492,-2.381,-2.2536,0.0,0.0,-1.8026,-1.7236,-1.7288,-1.7825,-1.7997,-1.7974,-1.7817,-1.7457,-1.7049,0.0,0.0,0.0,0.0,0.0,0.0,0.0,0.0,0.2679,-0.0293,0.0,-0.9463,0.0,0.0,0.0,0.0,0.0,1.9172,0.0,0.0,1.6521,1.07,0.1808,-0.2566,-0.8822,-1.6385,-1.6831,-1.7484,-1.8321,-1.3297,0.0,0.0,0.0,0.0,0.0,0.0,1.8014,1.8982,0.9679,0.4814,0.4762,-0.5042,-1.0816,-1.1757,-1.4019,-1.5593,-1.6371,-1.7051,-1.7543,-1.7674,-1.6577,0.0,0.0,0.0,0.0,0.0,0.0,0.0,0.0,0.0,0.0,0.0,0.0,0.0,0.0,0.0,0.0,0.0,0.0,0.0,0.0,-0.0769,0.0,0.0,0.0,0.0,0.0,0.0,0.0,0.0,0.0,0.0,1.9211,2.0305,2.1301,2.1863,0.0,0.0,0.0,0.0,-0.7988,-1.6422,-1.8422,-1.9427,-2.0254,-2.2407,-2.4459,-2.5741,0.0,0.0,-2.7904,-2.642,-2.4908,-2.365,-2.4335,-2.4525,-2.2604,-2.1074,-2.0212,-2.0139,-1.9514,-1.8694,-1.8097,-1.7697,-1.691,-1.7907,0.0,0.0,0.0,0.0,-0.2831,0.2924,1.1213,0.6696,0.3377,0.0817,-0.4771,0.0,0.0,0.0,0.0,0.0,0.0,2.0246,2.08,1.8139,1.183,0.264,-0.0714,-0.779,-1.7851,-1.7779,-1.6288,-1.3614,-1.0896,-0.5909,0.1188,0.0,0.0,0.0,0.0,1.9323,1.9126,1.0704,0.5682,0.4807,-0.4779,-1.0692,-1.2437,-1.39,-1.5156,-1.6218,-1.712,-1.7732,-1.8111,-1.821,0.0,0.0,0.0,0.0,0.0,0.0,0.0,0.0,0.0,0.0,0.0,0.0,0.0,0.0,0.0,0.0,0.0,0.0,0.0,0.5009,0.1833,-0.0536,0.0,0.0,0.0,0.0,0.0,0.0,0.0,0.0,0.0,1.9016,2.0026,2.0729,0.0,0.0,0.6233,0.3039,-0.6905,-1.5469,-1.946,-2.134,0.0,-2.413,-2.527,-2.6083,-2.6142,-2.7198,-2.777,-2.6957,-2.7065,-2.6892,-2.5705,-2.5735,-2.5885,-2.5749,-2.4638,-2.3549,-2.2955,-2.2037,-2.1343,-2.1119,-2.0067,-1.9186,-1.6547,-1.8396,-1.7388,-1.1851,-0.3662,-0.1939,0.4295,1.3071,0.9787,0.7264,0.5186,0.048,0.0442,0.4167,0.8522,0.0,0.0,0.0,2.1364,2.2851,2.0421,1.5023,0.7433,0.4851,-0.1432,-1.08,-1.1116,-1.0023,-0.7865,-0.5961,-0.2318,0.2996,0.0,0.0,1.6482,1.8836,1.9035,1.6899,1.0221,0.5265,0.2259,-0.5737,-1.0805,-1.2532,-1.3496,-1.4607,-1.597,-1.7091,-1.8032,-1.8732,-1.9316,-1.8982,0.0,0.0,0.0,0.0,0.0,0.0,0.0,0.0,0.0,0.0,0.0,-0.865,-0.8739,0.0,0.0,0.0,0.7143,0.9159,0.6008,0.0963,0.0,0.0,0.0,0.0,0.0,0.0,0.0,1.4856,1.5643,1.6541,1.8235,1.9839,2.1013,2.1465,1.4009,0.7166,0.342,0.0,-1.3301,-1.8969,-2.1599,-2.3379,-2.4497,-2.5546,-2.6352,-2.6773,-2.739,-2.7668,-2.7157,-2.7574,-2.772,-2.7047,-2.6912,-2.7046,-2.713,-2.6675,-2.61,-2.5397,-2.435,-2.3566,-2.3317,-2.2034,-2.1126,-1.2334,-1.653,-1.489,-0.9172,-0.1138,0.134,0.748,1.5375,1.2473,1.1281,1.108,0.5876,0.7509,1.4504,1.9446,0.0,2.3532,2.2181,2.2503,2.4146,2.2671,1.9012,1.366,1.2051,0.7657,0.0562,-0.0025,-0.0652,-0.1195,0.0449,0.3794,0.8533,0.9813,1.1271,1.3161,1.7777,1.7802,1.3048,0.8781,0.3799,-0.1902,-0.7581,-1.1041,-1.2162,-1.2869,-1.3999,-1.5529,-1.6927,-1.8238,-1.9343,-1.9959,-2.0094,-1.9745,0.0,0.0,0.0,0.0,0.0,0.0,0.0,0.0,0.0,0.0,0.0,0.0,0.0,0.0,0.0,1.2292,0.0,0.6368,-0.2263,0.0,0.0,0.0,0.0376,0.9595,1.1393,1.2004,1.2134,0.0,0.0,1.6814,1.9203,2.0976,2.1359,1.7326,1.1746,0.4555,-0.0548,-0.6388,-1.6928,-2.0325,-2.2174,-2.3047,-2.4368,-2.5894,-2.7392,-2.7897,-2.7851,-2.771,-2.7746,-2.7654,-2.719,-2.7577,-2.772,-2.7125,-2.7351,-2.7679,-2.7086,-2.6038,-2.5064,-2.4485,-2.33,-2.2412,-0.271,-0.5258,-0.3511,-0.278,-0.2205,0.5223,1.1633,1.6748,1.7456,1.5694,1.2209,1.044,1.0723,1.2865,1.9046,2.2187,2.2754,2.2165,2.2133,2.2569,2.1377,1.8039,1.3065,1.2008,0.8466,0.294,0.2756,0.4545,0.7563,0.525,0.6511,1.1093,1.1928,1.4155,1.7872,1.9213,1.7554,1.3033,0.8585,0.1976,-0.6684,-0.9486,-1.0943,-1.1244,-1.2342,-1.3386,-1.4384,-1.5547,-1.6895,-1.8492,-1.9406,-1.9746,-1.9546,-1.8622,0.0,0.0,0.0,0.0,0.0,0.0,0.0,0.0,0.0,-0.3688,-0.4191,0.0,1.1891,0.0,1.1379,0.8546,0.2494,-0.4325,0.0,0.0,-0.4787,-0.1143,0.7792,0.9617,1.097,1.3063,1.4496,1.4967,1.3923,1.4566,1.3848,1.0669,0.8394,0.446,-0.2564,-0.975,-1.5332,-1.8779,-2.1151,-2.2916,-2.3887,-2.4932,-2.5989,-2.7345,-2.7271,-2.6997,-2.6925,-2.7001,-2.6816,-2.6077,-2.5999,-2.6254,-2.6637,-2.6504,-2.642,-2.6589,-2.5749,-2.4906,-2.4729,-2.3617,-2.2823,0.4445,0.1595,0.5087,0.5623,0.4548,0.9989,1.5019,1.9526,2.1054,1.9857,1.6811,1.659,1.6772,1.7471,2.0677,2.2429,2.2821,2.1858,2.1542,2.1705,2.0398,1.8428,1.5992,1.5172,1.3214,1.0311,1.0447,1.1918,1.4196,1.0358,0.9736,1.2358,1.07,1.1024,1.3315,1.5434,1.4211,0.9595,0.2653,-0.3713,-0.9224,-1.0402,-1.1021,-1.1284,-1.1801,-1.2602,-1.3668,-1.441,-1.5475,-1.7043,-1.8044,-1.8608,-1.8687,-1.8296,-1.772,0.0,0.0,0.0,0.0,0.0,0.0,0.0,0.0,0.0,0.0,0.0,1.5939,1.6269,1.0462,0.5116,0.138,-0.7341,-1.2104,-1.0312,-0.8311,-0.4451,0.2278,0.6355,0.9469,1.1411,1.2754,1.316,1.218,1.0637,0.7502,0.2004,0.0404,-0.1529,-0.5551,-1.2454,-1.7852,-1.9194,-2.0777,-2.2296,-2.3577,-2.4411,-2.5204,-2.6022,-2.6058,-2.5919,-2.5964,-2.6062,-2.595,-2.5476,-2.5467,-2.5644,-2.5978,-2.582,-2.5693,-2.5858,-2.5553,-2.5106,-2.5001,-2.4076,-2.346,1.0847,0.731,1.2383,1.4535,1.4617,1.5425,1.8369,2.2634,2.3298,2.2916,2.1776,2.1921,2.2481,2.3295,2.2614,2.2589,2.2915,2.1336,2.0814,2.1131,1.9705,1.9309,1.9823,1.9164,1.8806,1.8806,1.8806,1.8574,1.8039,1.3749,1.1655,1.1578,0.738,0.5254,0.549,0.8924,0.861,0.4293,-0.4996,-0.9995,-1.0401,-1.0709,-1.1065,-1.1567,-1.1354,-1.1815,-1.3063,-1.3386,-1.4111,-1.5315,-1.6333,-1.7137,-1.7614,-1.7619,-1.7662,0.0,-1.642,0.0,0.0,0.0,0.0,0.0,0.0,0.0,0.0,1.7662,2.1104,2.2128,0.9761,0.163,0.1363,-1.0404,-1.7368,-1.5429,-1.2284,-0.8688,-0.4533,0.1828,0.6431,0.7632,0.9501,1.0531,0.8905,0.6298,0.1778,-0.4814,-0.6911,-0.7515,-0.7807,-1.2765,-1.7195,-1.847,-1.9782,-2.1279,-2.2483,-2.3289,-2.397,-2.4468,-2.4804,-2.4898,-2.5115,-2.5215,-2.5241,-2.5265,-2.5374,-2.5483,-2.5389,-2.537,-2.5364,-2.5429,-2.5312,-2.5192,-2.5213,-2.4697,-2.4378,1.9654,1.8288,2.0191,2.0707,2.0373,2.1879,2.3115,2.402,2.2966,2.1585,2.0094,2.0151,2.027,2.0451,2.1023,2.1218,2.1105,2.0664,2.0442,2.0408,1.9452,1.8986,1.902,1.8968,1.8914,1.8806,1.8806,1.7026,1.3565,0.9048,0.6877,0.6822,0.2559,0.1972,0.4771,0.0,0.0,0.0,-0.674,-0.9897,-1.0027,-1.0283,-1.0508,-1.0654,-1.1061,0.0,-1.17,-1.2313,-1.3071,-1.4026,-1.4831,0.0,0.0,0.0,0.0,0.0,0.0,0.0,0.0,0.0,0.0,0.0,0.7626,1.0172,1.1589,1.7731,2.1492,2.0824,1.0104,0.2023,-0.0559,-1.1542,-1.8347,-1.7394,-1.5567,-1.2793,-0.8585,-0.522,-0.2385,0.0465,0.4803,0.5209,-0.0318,-0.1202,-0.3741,-1.1135,-1.3673,-1.4595,-1.5084,-1.6252,-1.7719,-1.8916,-2.0035,-2.1055,-2.1811,-2.2522,-2.3244,-2.3749,-2.4281,-2.4567,-2.4644,-2.4804,-2.4924,-2.4977,-2.503,-2.5139,-2.5142,-2.5201,-2.5238,-2.5298,-2.4919,-2.4665,-2.5169,-2.5245,-2.5254,2.2556,0.0,2.2685,2.2703,0.0,2.3871,2.4479,2.4424,2.3334,2.1859,2.0191,1.9843,2.0092,2.0786,2.0872,2.1183,2.1641,2.1134,2.0626,2.0173,1.9704,1.9291,1.8896,1.8878,1.8878,1.8806,1.8806,1.655,1.2352,1.0046,0.6727,0.2404,0.0105,-0.1169,-0.1661,-0.4231,-0.5825,-0.6312,-0.8907,-1.0442,-1.0793,-1.1098,-1.1198,-1.1093,-1.146,0.0,0.0,0.0,0.0,0.0,0.0,0.0,0.0,0.0,0.0,-1.9717,-1.8767,-1.5841,-1.0676,-0.6887,-0.0652,0.8947,1.3473,1.5906,1.6218,1.9789,2.0882,1.8041,0.9101,0.1541,-0.3265,-1.1876,-1.7346,-1.7413,-1.5351,-1.2718,-1.0225,-0.9164,-0.664,-0.1843,0.1259,0.0745,-0.4406,-0.7173,-0.9888,-1.4644,-1.625,-1.7079,-1.776,-1.7974,-1.8291,-1.9035,-1.9934,-2.0715,-2.1147,-2.1922,-2.2686,-2.3182,-2.3726,-2.4099,-2.4192,-2.4435,-2.4606,-2.4614,-2.4747,-2.4886,-2.4854,-2.495,-2.5039,-2.513,-2.4946,-2.4678,-2.4746,-2.481,-2.5036,2.3198,2.3197,2.3269,2.3303,2.3393,2.4199,2.4568,2.4478,0.0,0.0,0.0,2.0418,2.0853,2.1965,2.1492,2.184,2.2758,2.2025,2.1296,2.0644,2.0281,1.9885,1.9469,1.9057,1.904,1.9237,1.8118,1.5913,1.2689,1.0888,0.6374,-0.0214,-0.1779,-0.4356,-0.8133,-0.9177,-0.9832,-1.0311,-1.0479,-1.0839,-1.1495,-1.1714,-1.1732,-1.1593,-1.1748,-1.2148,-1.2773,-1.2868,-1.3406,-1.4514,-1.4852,-1.5546,-1.6578,-1.7368,-1.8053,-1.8551,-1.7513,-1.3767,-0.6845,-0.3238,0.2922,1.265,1.7825,2.0954,2.1801,2.2281,2.0489,1.5664,0.8312,0.1241,-0.5136,-1.1793,-1.6063,-1.6885,-1.452,-1.244,-1.1301,-1.1594,-0.973,-0.4504,-0.3853,-0.4576,-0.7271,-1.1551,-1.5213,-1.6348,-1.7063,-1.7612,-1.8095,-1.8464,-1.8736,-1.8974,-1.9651,-2.0249,-2.0619,-2.1439,-2.2197,-2.2643,-2.3194,-2.361,-2.3744,-2.4005,-2.4173,-2.4118,-2.4403,-2.4535,-2.4514,-2.4625,-2.4776,-2.4986,-2.4979,-2.482,-2.4404,-2.4097,-2.4175,2.3989,2.3971,2.4255,2.4436,2.4561,2.4771,2.4757,2.4508,2.3644,2.2784,2.2004,2.1906,2.1976,2.2215,2.2834,2.3061,2.2959,2.2849,2.2648,2.2373,2.1112,2.0764,2.1151,1.9923,1.9979,2.0699,1.5599,1.3524,1.3522,0.4943,-0.0076,-0.0492,-0.4848,-0.7628,-0.8353,-0.8741,-0.919,-0.9688,-0.986,-1.0181,-1.0723,-1.0449,-1.0479,-1.0849,-1.0902,-1.1113,-1.163,-1.2266,-1.2877,-1.357,-1.4185,-1.4827,-1.5581,-1.6586,-1.6837,-1.6199,-1.5958,-1.3143,-0.6993,-0.4367,0.1967,1.3068,1.6977,2.0057,2.3455,2.4037,2.1838,1.6178,0.8875,0.2377,-0.4373,-1.179,-1.612,-1.6245,-1.5972,-1.5278,-1.3853,-1.3736,-1.3436,-1.2435,-1.3493,-1.3406,-1.3716,-1.5191,-1.6343,-1.7076,-1.753,-1.7988,-1.8307,-1.8898,-1.9065,-1.8812,-1.9163,-1.9728,-2.0196,-2.1085,-2.1782,-2.2231,-2.2764,-2.3129,-2.31,-2.3356,-2.3534,-2.3446,-2.3762,-2.3983,-2.4136,-2.4281,-2.4449,-2.4651,-2.4412,-2.4188,-2.4594,-2.3774,-2.2996,2.4229,2.4247,2.4512,2.4626,2.4707,2.4808,2.476,2.462,2.4201,2.355,2.2795,2.245,2.2487,2.2809,2.3221,2.3475,2.3603,2.3584,2.3345,2.2813,2.2082,2.1698,2.1588,2.0929,2.0949,2.1352,1.8751,1.6517,1.4687,0.9732,0.5175,0.072,-0.5033,-0.8097,-0.8597,-0.8685,-0.8844,-0.9159,-0.9519,-0.9841,-1.0142,-1.027,-1.0431,-1.0624,-1.0911,-1.1433,-1.2115,-1.2345,-1.2917,-1.3894,-1.4155,-1.4749,-1.5741,-1.6283,-1.6203,-1.5399,-1.4578,-1.1274,-0.489,0.0306,0.5553,1.115,1.2837,1.4301,1.595,1.8716,1.6704,0.8346,0.3709,-0.1226,-0.7944,-1.2261,-1.4675,-1.508,-1.5128,-1.4731,-1.3835,-1.3914,-1.4157,-1.4329,-1.5177,-1.5792,-1.5816,-1.6442,-1.6884,-1.7157,-1.7639,-1.8123,-1.8245,-1.8349,-1.8333,-1.8147,-1.8412,-1.889,-1.9507,-2.0314,-2.1054,-2.1612,-2.2203,-2.2599,-2.2704,-2.2965,-2.3087,-2.3146,-2.3359,-2.3602,-2.3774,-2.3888,-2.4081,-2.4335,-2.4248,-2.4204,-2.4082,-2.3259,-2.2653,2.4339,2.4426,2.4578,2.4704,2.476,2.4804,2.4795,2.4823,2.4776,2.436,2.3662,2.3194,2.3261,2.3656,2.3645,2.3878,2.4174,2.4172,2.3823,2.3235,2.2903,2.2611,2.2263,2.1898,2.1862,2.1972,2.0934,1.9133,1.719,1.4837,0.9344,0.1179,-0.4755,-0.7908,-0.8482,-0.8534,-0.856,-0.8611,-0.895,-0.9307,-0.9607,-0.9944,-1.0132,-1.0312,-1.0661,-1.1299,-1.2033,-1.2006,-1.2503,-1.3678,-1.3761,-1.4189,-1.5098,-1.5211,-1.4696,-1.3586,-1.2312,-0.9044,-0.3086,0.3012,0.7005,0.8097,0.8335,0.8192,0.7935,1.0783,0.9504,0.1362,-0.0864,-0.444,-1.041,-1.2551,-1.3236,-1.3873,-1.3867,-1.3601,-1.3006,-1.3301,-1.3658,-1.3616,-1.4521,-1.5268,-1.5683,-1.6343,-1.6956,-1.7308,-1.7788,-1.8138,-1.8045,-1.7639,-1.7437,-1.7531,-1.7732,-1.8268,-1.8997,-1.9752,-2.0431,-2.1055,-2.1672,-2.2068,-2.2292,-2.2546,-2.2755,-2.279,-2.3035,-2.3259,-2.3399,-2.3548,-2.3785,-2.4079,-2.4174,-2.4113,-2.3607,-2.3093,-2.247,2.4459,2.4746,2.4814,2.5005,2.5186,2.4981,2.4993,2.5118,2.5031,2.4934,2.4789,2.479,2.4734,2.4822,2.475,2.467,2.4512,2.4429,2.4284,2.4081,2.3399,2.3436,2.3895,2.2621,2.2691,2.3289,1.8625,1.8923,2.2552,1.3301,0.5714,0.0301,-0.5151,-0.7768,-0.7701,-0.8145,-0.8177,-0.7804,-0.7839,-0.825,-0.9006,-0.8772,-0.8816,-0.9302,-0.9413,-0.9614,-1.0151,-1.0324,-1.0959,-1.1925,-1.2186,-1.233,-1.2455,-1.2339,-1.1094,-0.8735,-0.8223,-0.6442,-0.3047,-0.1043,0.1474,0.4546,0.4417,0.362,0.2297,0.1754,0.0945,-0.1256,-0.2014,-0.5404,-1.0974,-1.2471,-1.2861,-1.3007,-1.3094,-1.2958,-1.292,-1.2968,-1.3104,-1.3362,-1.3658,-1.3988,-1.4949,-1.57,-1.66,-1.7706,-1.7976,-1.7963,-1.7555,-1.7165,-1.7046,-1.7133,-1.7463,-1.8171,-1.8974,-1.9732,-2.0227,-2.0648,-2.1245,-2.1584,-2.1688,-2.1969,-2.2326,-2.232,-2.2571,-2.2892,-2.3122,-2.3341,-2.3598,-2.3852,-2.4001,-2.4026,-2.3494,-2.321,-2.278,2.4607,2.4804,2.4877,2.5084,2.5322,2.5192,2.5205,2.5309,2.5255,2.5236,2.5236,2.5196,2.5096,2.4923,2.4896,2.4818,2.4639,2.4478,2.4461,2.4472,2.4055,2.4076,2.4262,2.3847,2.3868,2.4246,2.1692,2.1972,2.2447,1.3997,0.7705,0.4846,-0.2588,-0.674,-0.6915,-0.7101,-0.7102,-0.6948,-0.6601,-0.6704,-0.7218,-0.7778,-0.8107,-0.8216,-0.8639,-0.9047,-0.9399,-0.9511,-0.9773,-1.0327,-1.0452,-1.0386,-1.0237,-1.0066,-0.9027,-0.7083,-0.6152,-0.5412,-0.4484,-0.3822,-0.296,-0.1595,-0.2027,-0.2712,-0.3498,-0.4312,-0.513,-0.5986,-0.6249,-0.7804,-1.0513,-1.1696,-1.2271,-1.2332,-1.2627,-1.2832,-1.2735,-1.2735,-1.2842,-1.2956,-1.3369,-1.392,-1.4801,-1.5668,-1.6625,-1.7543,-1.7842,-1.78,-1.7589,-1.7076,-1.6941,-1.7356,-1.7523,-1.7963,-1.8822,-1.9244,-1.9758,-2.0398,-2.078,-2.0942,-2.1182,-2.1448,-2.1764,-2.179,-2.2169,-2.2535,-2.2868,-2.3115,-2.334,-2.3588,-2.3765,-2.3794,-2.3524,-2.345,-2.2996,2.4756,2.4879,2.4949,2.5141,2.5387,2.5313,2.5339,2.5403,2.541,2.5393,2.5382,2.5301,2.5173,2.4974,2.4929,2.4874,2.4741,2.4554,2.4407,2.4366,2.4188,2.4106,2.4106,2.395,2.4087,2.4318,2.4199,2.4348,2.3535,1.4705,0.9755,0.7979,-0.08,-0.5962,-0.6091,-0.6022,-0.6039,-0.6018,-0.5484,-0.5305,-0.5661,-0.6601,-0.7095,-0.7172,-0.7771,-0.8279,-0.862,-0.86,-0.8698,-0.8935,-0.8857,-0.8679,-0.8456,-0.8403,-0.7811,-0.6538,-0.5538,-0.5164,-0.5579,-0.5542,-0.566,-0.5941,-0.648,-0.6918,-0.7295,-0.7771,-0.8349,-0.877,-0.9061,-0.9221,-1.0336,-1.1091,-1.1554,-1.1669,-1.2107,-1.2264,-1.2283,-1.2372,-1.2433,-1.2657,-1.313,-1.3909,-1.4789,-1.5676,-1.6514,-1.7157,-1.7376,-1.751,-1.7434,-1.6888,-1.6629,-1.731,-1.7161,-1.7556,-1.8616,-1.8983,-1.9361,-1.9879,-2.0296,-2.0581,-2.073,-2.0991,-2.134,-2.1524,-2.184,-2.2101,-2.2398,-2.2691,-2.2955,-2.3235,-2.3419,-2.3544,-2.3584,-2.357,-2.3207,2.4962,2.5103,2.516,2.5254,2.5387,2.5332,2.5385,2.5486,2.543,2.5382,2.532,2.5302,2.5214,2.5076,2.4987,2.4936,2.485,2.4685,2.4178,2.3539,2.3472,2.3412,2.3313,2.2604,2.302,2.4145,2.3739,2.3724,2.379,1.4716,1.0105,0.9243,-0.0607,-0.55,-0.5176,-0.5181,-0.5183,-0.5007,-0.46,-0.4412,-0.4458,-0.5116,-0.5639,-0.602,-0.6673,-0.7097,-0.7186,-0.7439,-0.7622,-0.78,-0.7402,-0.7283,-0.7339,-0.7402,-0.7213,-0.6735,-0.6308,-0.5923,-0.5692,-0.5923,-0.6209,-0.6431,-0.6966,-0.7396,-0.7616,-0.815,-0.8415,-0.8084,-0.8586,-0.9323,-1.0387,-1.0744,-1.0889,-1.1023,-1.1023,-1.1225,-1.1601,-1.176,-1.2049,-1.2589,-1.2939,-1.3637,-1.4801,-1.5481,-1.6139,-1.6642,-1.6756,-1.6646,-1.6642,-1.6311,-1.6286,-1.6443,-1.665,-1.6957,-1.808,-1.864,-1.893,-1.9449,-2.0,-2.0326,-2.0395,-2.0563,-2.0909,-2.123,-2.1511,-2.1754,-2.1928,-2.2158,-2.2419,-2.2712,-2.296,-2.3135,-2.3076,-2.3392,-2.3097,2.5103,2.5212,2.5313,2.5359,2.5382,2.5378,2.5429,2.5473,2.5437,2.5414,2.5414,2.5385,2.5322,2.519,2.4534,2.4226,2.4195,2.4071,2.3585,2.2931,2.2791,2.2758,2.2706,2.2463,2.2537,2.298,2.2849,2.1563,1.8471,0.9958,0.552,0.4655,-0.1295,-0.4544,-0.4036,-0.3909,-0.3742,-0.3344,-0.3158,-0.3025,-0.2984,-0.3475,-0.3919,-0.4222,-0.5484,-0.6187,-0.6111,-0.6413,-0.6401,-0.6087,-0.6098,-0.5955,-0.5572,-0.5449,-0.5605,-0.5941,-0.5445,-0.5496,-0.619,-0.6253,-0.6426,-0.6972,-0.7509,-0.7783,-0.783,-0.8256,-0.8573,-0.8533,-0.8639,-0.9113,-0.9524,-1.0095,-1.0352,-1.0328,-1.088,-1.1233,-1.1334,-1.1701,-1.2166,-1.2421,-1.2987,-1.4014,-1.4869,-1.5499,-1.5983,-1.6398,-1.6497,-1.6398,-1.6256,-1.6275,-1.6378,-1.6476,-1.6672,-1.7034,-1.757,-1.8319,-1.8846,-1.9169,-1.9588,-1.9818,-1.9925,-2.0135,-2.0444,-2.0613,-2.0958,-2.1404,-2.1587,-2.1814,-2.2056,-2.2164,-2.2422,-2.2459,-2.2289,-2.2583,-2.2479,2.5264,2.5341,2.5378,2.5385,2.5354,2.5378,2.5387,2.5398,2.5374,2.5393,2.5393,2.534,2.5293,2.5086,2.424,2.3629,2.3438,2.3303,2.2873,2.2244,2.211,2.2147,2.2362,2.2213,2.2348,2.264,2.2495,2.0942,1.7666,0.9325,0.5243,0.4985,-0.0873,-0.3715,-0.3182,-0.2857,-0.2504,-0.2237,-0.2101,-0.2099,-0.2279,-0.2635,-0.294,-0.3256,-0.424,-0.4979,-0.5282,-0.5691,-0.5601,-0.5144,-0.5259,-0.5245,-0.4783,-0.4849,-0.5175,-0.5832,-0.5609,-0.5823,-0.6912,-0.6912,-0.6966,-0.7461,-0.7889,-0.8115,-0.7996,-0.8362,-0.8527,-0.8586,-0.8699,-0.8804,-0.8791,-0.9323,-0.9747,-0.9821,-1.0482,-1.1049,-1.1133,-1.1692,-1.237,-1.3214,-1.4209,-1.5004,-1.543,-1.5784,-1.596,-1.6057,-1.6088,-1.5957,-1.5888,-1.6064,-1.638,-1.6436,-1.6637,-1.6947,-1.7378,-1.7908,-1.8422,-1.8831,-1.9207,-1.9384,-1.9596,-1.9797,-1.9925,-2.0065,-2.0376,-2.0909,-2.1247,-2.153,-2.162,-2.1645,-2.1807,-2.1919,-2.1832,-2.179,-2.1778,2.5437,2.539,2.5385,2.5359,2.5312,2.5293,2.5252,2.5224,2.5244,2.5273,2.5241,2.5198,2.5164,2.4917,2.4105,2.3324,2.2795,2.2479,2.2007,2.1426,2.1396,2.1684,2.2128,2.1665,2.2007,2.2988,2.2517,2.2119,2.0816,1.2516,0.8109,0.7297,0.0509,-0.3093,-0.2943,-0.2146,-0.1835,-0.1878,-0.1612,-0.1791,-0.2551,-0.2551,-0.269,-0.3015,-0.2887,-0.3349,-0.456,-0.514,-0.5136,-0.4717,-0.486,-0.51,-0.5144,-0.5555,-0.6204,-0.6475,-0.6804,-0.7246,-0.7681,-0.7741,-0.7628,-0.7848,-0.8062,-0.8162,-0.8215,-0.8368,-0.8355,-0.8143,-0.8421,-0.8586,-0.8203,-0.858,-0.918,-0.9673,-0.9977,-1.0407,-1.1192,-1.1687,-1.2624,-1.4419,-1.5538,-1.6336,-1.629,-1.615,-1.6008,-1.5631,-1.5424,-1.5289,-1.54,-1.5534,-1.5744,-1.6126,-1.6398,-1.6637,-1.706,-1.7516,-1.7948,-1.8369,-1.8779,-1.9095,-1.9325,-1.9508,-1.9603,-1.9747,-1.9874,-2.0361,-2.0695,-2.0925,-2.1007,-2.1055,-2.1229,-2.1354,-2.1323,-2.1291,-2.1385,2.5265,2.5331,2.5379,2.5332,2.5234,2.5171,2.5149,2.5138,2.5103,2.5103,2.5126,2.5145,2.5118,2.4752,2.3605,2.2791,2.2511,2.1399,2.0697,2.068,2.111,2.1157,2.0984,2.1214,2.1349,2.0775,1.8179,1.6886,1.5602,0.8951,0.4903,0.3889,0.004,-0.2266,-0.2148,-0.1792,-0.1569,-0.1122,-0.0987,-0.1077,-0.1345,-0.1792,-0.1835,-0.1386,-0.1787,-0.2355,-0.2914,-0.3463,-0.3678,-0.3669,-0.3923,-0.4147,-0.4426,-0.4684,-0.5117,-0.566,-0.5823,-0.6258,-0.7015,-0.7295,-0.7521,-0.7788,-0.7955,-0.7895,-0.7788,-0.7836,-0.7883,-0.7871,-0.809,-0.8203,-0.8474,-0.858,-0.9077,-0.9967,-1.0371,-1.0929,-1.1963,-1.2837,-1.3665,-1.4563,-1.544,-1.5814,-1.5811,-1.5877,-1.5764,-1.5314,-1.5108,-1.5062,-1.496,-1.5175,-1.5266,-1.5389,-1.5788,-1.6269,-1.66,-1.6993,-1.7366,-1.7894,-1.8369,-1.8793,-1.9049,-1.9213,-1.931,-1.9406,-1.9588,-1.9788,-2.012,-2.0326,-2.0447,-2.0481,-2.0614,-2.0697,-2.0745,-2.0795,-2.0878,2.5175,2.5225,2.5244,2.5194,2.5122,2.5061,2.5056,2.5063,2.4968,2.4784,2.4594,2.455,2.4544,2.4183,2.2747,2.2239,2.2293,2.0769,2.0039,2.0184,2.0642,2.0747,2.0585,2.1082,2.1416,2.0715,1.7993,1.5882,1.4506,0.8512,0.4674,0.3248,-0.0123,-0.1878,-0.1569,-0.139,-0.1078,-0.0764,-0.0629,-0.0584,-0.0628,-0.0942,-0.1211,-0.1254,-0.1164,-0.1431,-0.2018,-0.2201,-0.2459,-0.3011,-0.3414,-0.3702,-0.389,-0.41,-0.4463,-0.5113,-0.5328,-0.5823,-0.6982,-0.6977,-0.7139,-0.7681,-0.7568,-0.7408,-0.7354,-0.7348,-0.7343,-0.7498,-0.7557,-0.783,-0.8262,-0.8315,-0.8804,-0.9944,-1.0555,-1.1539,-1.277,-1.3755,-1.455,-1.5205,-1.5816,-1.5979,-1.6007,-1.5646,-1.5504,-1.5016,-1.48,-1.4662,-1.4558,-1.4812,-1.4858,-1.4983,-1.5433,-1.582,-1.6114,-1.6429,-1.6795,-1.7366,-1.7988,-1.8422,-1.8745,-1.8936,-1.9087,-1.9109,-1.9244,-1.9558,-1.9844,-1.9894,-2.0,-2.0015,-2.005,-2.022,-2.0357,-2.0289,-2.0342,2.5147,2.5105,2.5031,2.5015,2.5003,2.4981,2.4966,2.4921,2.4818,2.4383,2.387,2.3884,2.3795,2.3361,2.2286,2.1991,2.2086,2.1074,2.0375,2.0333,2.046,2.0652,2.1138,2.1311,2.1598,2.1786,2.0674,1.8764,1.6264,1.1724,0.7907,0.5202,0.1644,-0.1111,-0.0978,-0.0852,-0.0629,-0.0584,-0.045,-0.0359,-0.0313,-0.0135,-0.0676,-0.2168,-0.081,-0.0495,-0.1404,-0.1319,-0.166,-0.2737,-0.3292,-0.3509,-0.3741,-0.3893,-0.4349,-0.5198,-0.5152,-0.5996,-0.7058,-0.682,-0.6696,-0.7515,-0.7074,-0.6632,-0.7074,-0.6966,-0.6858,-0.6853,-0.6912,-0.7187,-0.761,-0.7723,-0.8381,-0.9589,-1.0508,-1.1768,-1.3518,-1.4247,-1.4846,-1.5786,-1.6543,-1.6755,-1.626,-1.5657,-1.5064,-1.4526,-1.415,-1.3999,-1.4046,-1.4258,-1.4571,-1.4801,-1.5028,-1.5254,-1.5511,-1.6039,-1.6355,-1.6612,-1.7325,-1.7908,-1.8397,-1.863,-1.8822,-1.8846,-1.8817,-1.9177,-1.9346,-1.9303,-1.9413,-1.9485,-1.9645,-1.9869,-1.9833,-1.9696,-1.9609,2.4949,2.5077,2.4974,2.493,2.4896,2.4832,2.4716,2.4642,2.4528,2.4362,2.4172,2.4241,2.4148,2.4126,2.3199,2.2947,2.275,2.2066,2.1664,2.1532,2.1062,2.1026,2.1249,2.1299,2.1196,2.1043,2.1101,2.0545,1.9037,1.5079,1.1788,0.9129,0.5102,0.2204,0.048,0.0134,0.0045,-0.0134,-0.0134,0.0134,0.0404,0.0494,0.032,0.0,0.0183,0.0229,-0.0094,-0.0375,-0.1288,-0.2728,-0.2794,-0.3023,-0.3409,-0.3673,-0.4204,-0.4889,-0.5105,-0.5492,-0.6322,-0.6322,-0.6475,-0.7015,-0.6912,-0.6864,-0.6593,-0.6539,-0.6376,-0.6209,-0.6154,-0.6529,-0.7283,-0.745,-0.8111,-0.9508,-1.0599,-1.1792,-1.295,-1.38,-1.449,-1.5026,-1.5595,-1.5669,-1.5382,-1.4744,-1.4135,-1.3676,-1.3457,-1.3409,-1.3505,-1.3705,-1.3978,-1.4176,-1.4373,-1.4593,-1.4949,-1.5522,-1.5876,-1.5976,-1.657,-1.7325,-1.7828,-1.824,-1.845,-1.8606,-1.8344,-1.8535,-1.8496,-1.8433,-1.865,-1.8991,-1.8991,-1.908,-1.8968,-1.8803,-1.8765,2.4582,2.4762,2.4704,2.4678,2.4685,2.462,2.4522,2.4441,2.4284,2.4008,2.3787,2.3767,2.3785,2.3711,2.2933,2.2836,2.3015,2.239,2.1827,2.139,2.0739,2.0745,2.1107,2.1276,2.1091,2.0792,2.093,1.9949,1.8327,1.6148,1.3074,0.9153,0.6701,0.4021,0.1367,0.1251,0.1205,0.107,0.1026,0.1162,0.1297,0.1655,0.1466,0.1271,0.0977,0.0938,0.0728,0.0337,-0.0675,-0.1932,-0.2267,-0.2495,-0.3202,-0.3457,-0.3868,-0.4442,-0.4518,-0.5003,-0.5941,-0.5832,-0.5878,-0.6529,-0.6642,-0.6263,-0.605,-0.6,-0.5891,-0.5449,-0.5449,-0.5823,-0.6416,-0.6853,-0.7668,-0.8708,-0.9991,-1.1161,-1.2265,-1.3022,-1.3734,-1.4162,-1.4417,-1.4604,-1.4393,-1.3721,-1.3185,-1.2842,-1.2716,-1.2822,-1.3016,-1.3228,-1.342,-1.361,-1.3763,-1.3941,-1.4212,-1.4698,-1.5287,-1.5433,-1.5776,-1.6544,-1.7063,-1.7558,-1.7787,-1.7868,-1.7787,-1.7828,-1.7908,-1.7974,-1.8198,-1.8419,-1.838,-1.8288,-1.821,-1.8013,-1.7933,2.4284,2.4317,2.4372,2.4389,2.4407,2.4388,2.4369,2.4317,2.4097,2.3631,2.3195,2.2975,2.3233,2.2884,2.2667,2.2337,2.2978,2.2519,2.1709,2.1224,2.0763,2.0886,2.1306,2.1436,2.1464,2.1378,2.0706,1.9106,1.7466,1.6036,1.265,0.9189,0.7026,0.501,0.3409,0.2879,0.2711,0.275,0.2794,0.2752,0.2719,0.3102,0.2909,0.2005,0.1652,0.1416,0.1093,0.0788,0.0146,-0.1353,-0.1593,-0.2118,-0.2943,-0.3132,-0.344,-0.3655,-0.3877,-0.4567,-0.5618,-0.4959,-0.4959,-0.6154,-0.5769,-0.5277,-0.5336,-0.5504,-0.534,-0.4798,-0.4908,-0.5167,-0.5487,-0.6249,-0.7235,-0.802,-0.8712,-0.9807,-1.1168,-1.2104,-1.2831,-1.3614,-1.3284,-1.3336,-1.3241,-1.2838,-1.207,-1.2076,-1.1931,-1.1981,-1.2227,-1.2423,-1.2774,-1.316,-1.3266,-1.3314,-1.3589,-1.3873,-1.4433,-1.4846,-1.5107,-1.5664,-1.6102,-1.6532,-1.6854,-1.7034,-1.7118,-1.7407,-1.776,-1.7868,-1.7894,-1.776,-1.7639,-1.7666,-1.7706,-1.7327,-1.7175,2.4985,2.4512,2.4374,2.4357,2.4357,2.4174,2.4117,2.4135,2.3878,2.3728,2.3721,2.378,2.3762,2.3744,2.3507,2.3768,2.373,2.336,2.3011,2.2373,2.281,2.2317,2.1977,2.1782,2.1894,2.1871,2.1652,2.0407,1.8803,1.7311,1.5216,1.1458,0.9984,0.8699,0.6225,0.5262,0.4919,0.4699,0.463,0.4609,0.4521,0.464,0.4225,0.3009,0.2336,0.1893,0.1577,0.1495,0.1093,0.0314,-0.0475,-0.1228,-0.2148,-0.3025,-0.3374,-0.3444,-0.3646,-0.4018,-0.4353,-0.4353,-0.4405,-0.5226,-0.5281,-0.4952,-0.5011,-0.5113,-0.4897,-0.4463,-0.4512,-0.4772,-0.5257,-0.646,-0.7176,-0.7557,-0.7883,-0.8513,-0.9676,-1.0865,-1.172,-1.2177,-1.236,-1.2447,-1.2506,-1.1849,-1.1392,-1.125,-1.1191,-1.1141,-1.1334,-1.1633,-1.207,-1.256,-1.2628,-1.2725,-1.3025,-1.3208,-1.3511,-1.3946,-1.4261,-1.4481,-1.4926,-1.5431,-1.574,-1.6157,-1.6514,-1.6866,-1.716,-1.7227,-1.7144,-1.7005,-1.6879,-1.6811,-1.6672,-1.6471,-1.6287,2.4559,2.4284,2.4154,2.4115,2.4153,2.3999,2.3959,2.3976,2.3792,2.375,2.3831,2.3871,2.3871,2.3912,2.3912,2.3915,2.3848,2.3406,2.3202,2.3059,2.3184,2.2821,2.2513,2.1917,2.1686,2.188,2.1606,2.0868,1.9982,1.8736,1.6703,1.3783,1.2756,1.0945,0.884,0.7772,0.7264,0.7029,0.6877,0.6736,0.6499,0.6356,0.5788,0.4565,0.3758,0.3206,0.2651,0.2483,0.2143,0.1518,0.0762,-0.0326,-0.1526,-0.2435,-0.2932,-0.3239,-0.3531,-0.3907,-0.4128,-0.4073,-0.4184,-0.4787,-0.4901,-0.4736,-0.468,-0.4783,-0.4677,-0.4294,-0.4346,-0.478,-0.6064,-0.6204,-0.6869,-0.6961,-0.7337,-0.7871,-0.8508,-0.9547,-1.0604,-1.0997,-1.1206,-1.1245,-1.1088,-1.0646,-1.0584,-1.0431,-1.0364,-1.0364,-1.0779,-1.1074,-1.1475,-1.1823,-1.1931,-1.2098,-1.2452,-1.2579,-1.2589,-1.288,-1.312,-1.3263,-1.349,-1.4054,-1.4573,-1.5061,-1.5596,-1.5996,-1.6269,-1.6337,-1.638,-1.625,-1.6107,-1.5856,-1.5668,-1.5511,-1.5276,2.4088,2.3896,2.4042,2.4003,2.3894,2.4,2.4091,2.4073,2.3779,2.379,2.3865,2.3746,2.3743,2.3721,2.3656,2.3656,2.348,2.313,2.3058,2.3415,2.2947,2.2959,2.2891,2.2303,2.1714,2.1662,2.1112,2.065,2.0007,1.9064,1.7076,1.537,1.401,1.2704,1.1226,1.0071,0.9549,0.9562,0.9148,0.8751,0.8445,0.8226,0.7553,0.6324,0.5548,0.4832,0.4126,0.3737,0.3299,0.2732,0.2124,0.0781,-0.067,-0.1679,-0.2293,-0.2903,-0.3244,-0.3577,-0.3849,-0.3852,-0.3852,-0.4567,-0.4512,-0.4294,-0.4018,-0.4125,-0.4125,-0.407,-0.407,-0.4904,-0.6968,-0.6534,-0.61,-0.6303,-0.6897,-0.7224,-0.7599,-0.8296,-0.9064,-0.9845,-0.9818,-0.9695,-0.971,-0.9511,-0.957,-0.9607,-0.9488,-0.9533,-0.9946,-1.0214,-1.0428,-1.0746,-1.0821,-1.0965,-1.1275,-1.1633,-1.1648,-1.1796,-1.2003,-1.215,-1.2307,-1.2851,-1.3453,-1.4079,-1.4574,-1.4971,-1.5264,-1.5386,-1.5398,-1.5389,-1.5266,-1.4983,-1.4789,-1.456,-1.4283,2.5157,2.3951,2.4577,2.4447,2.3955,2.4284,2.4631,2.4635,2.3975,2.4033,2.4617,2.4075,2.3804,2.3732,2.3667,2.3486,2.3341,2.3178,2.3254,2.3417,2.3132,2.3247,2.3186,2.2769,2.2423,2.1865,2.0956,1.9996,1.9131,1.7462,1.7105,1.6265,1.4833,1.384,1.3744,1.2737,1.1846,1.1892,1.1231,1.062,1.0418,1.0178,0.9527,0.8023,0.7263,0.6516,0.5811,0.5167,0.4573,0.41,0.3448,0.2284,0.0837,-0.0391,-0.1397,-0.235,-0.2745,-0.3021,-0.3132,-0.3021,-0.2912,-0.3023,-0.3188,-0.3188,-0.3079,-0.3186,-0.335,-0.3403,-0.368,-0.4343,-0.4952,-0.523,-0.5668,-0.5987,-0.61,-0.6376,-0.6848,-0.7047,-0.725,-0.7988,-0.8023,-0.8159,-0.828,-0.8326,-0.8326,-0.8208,-0.8078,-0.8174,-0.8475,-0.8651,-0.8813,-0.9167,-0.9547,-0.974,-0.999,-1.0356,-1.0602,-1.0695,-1.0897,-1.1149,-1.1366,-1.1801,-1.2374,-1.2946,-1.3449,-1.3882,-1.4114,-1.4356,-1.447,-1.4503,-1.4318,-1.4143,-1.3899,-1.3663,-1.3416,2.5153,2.4454,2.5185,2.5293,2.5,2.5213,2.5392,2.5427,2.4945,2.4771,2.4739,2.4392,2.3957,2.3728,2.362,2.3504,2.3458,2.3359,2.3399,2.3342,2.323,2.3084,2.3045,2.2695,2.2031,2.1377,2.0561,2.0202,1.9876,1.8548,1.7804,1.7541,1.6318,1.5823,1.5906,1.4931,1.4229,1.4041,1.3267,1.2616,1.2358,1.2078,1.1066,1.0264,0.9416,0.8697,0.7923,0.7323,0.6489,0.5655,0.4941,0.3776,0.2445,0.1224,-0.0111,-0.1564,-0.2184,-0.2354,-0.241,-0.241,-0.2521,-0.2577,-0.2579,-0.2579,-0.2633,-0.2742,-0.2742,-0.2852,-0.3123,-0.345,-0.3337,-0.4168,-0.478,-0.4886,-0.512,-0.5508,-0.566,-0.5386,-0.5647,-0.6126,-0.6663,-0.6996,-0.7058,-0.7114,-0.6987,-0.6839,-0.6702,-0.6802,-0.7031,-0.7156,-0.7258,-0.7844,-0.8317,-0.8521,-0.8724,-0.8933,-0.9311,-0.9467,-0.9673,-0.9931,-1.0297,-1.0661,-1.1174,-1.1706,-1.222,-1.2754,-1.2994,-1.3185,-1.3396,-1.3558,-1.3321,-1.3082,-1.2948,-1.2754,-1.2511,2.5206,2.5134,2.5846,2.6079,2.6027,2.6139,2.6168,2.6108,2.5829,2.5444,2.4998,2.4635,2.4106,2.3636,2.3494,2.3476,2.3504,2.3294,2.3307,2.3212,2.3038,2.2797,2.2539,2.2091,2.1649,2.1283,2.1002,2.0839,2.0428,1.9401,1.9144,1.8794,1.799,1.7435,1.7316,1.6468,1.6202,1.5863,1.5132,1.4541,1.4094,1.3424,1.2764,1.2318,1.1697,1.0914,1.0167,0.9245,0.8376,0.7396,0.6475,0.5408,0.3987,0.3104,0.1663,-0.0334,-0.1341,-0.168,-0.1736,-0.1849,-0.1905,-0.2017,-0.2018,-0.213,-0.2298,-0.2298,-0.2355,-0.241,-0.2516,-0.2452,-0.2117,-0.2839,-0.3392,-0.3669,-0.4064,-0.4522,-0.4181,-0.3956,-0.3956,-0.4553,-0.5362,-0.5591,-0.5451,-0.5436,-0.5227,-0.5284,-0.5107,-0.5556,-0.5703,-0.5695,-0.5914,-0.6589,-0.7079,-0.734,-0.7446,-0.7405,-0.7782,-0.8059,-0.8317,-0.8574,-0.8992,-0.9415,-0.9931,-1.045,-1.1133,-1.1616,-1.1814,-1.2061,-1.2248,-1.2346,-1.2169,-1.207,-1.2012,-1.1783,-1.1551,2.6369,2.5973,2.6384,2.6322,2.6164,2.656,2.6712,2.6641,2.6047,2.5674,2.5551,2.4931,2.4219,2.3601,2.3271,2.3052,2.302,2.3112,2.319,2.3125,2.2875,2.285,2.2833,2.2624,2.2197,2.1753,2.1766,2.1238,2.074,1.9637,1.9431,1.9745,1.8767,1.7969,1.8565,1.7661,1.7231,1.7357,1.641,1.5561,1.5145,1.4585,1.3996,1.3443,1.289,1.2491,1.1986,1.0965,0.9887,0.9413,0.8283,0.6919,0.5512,0.4903,0.375,0.2047,0.0557,-0.0617,-0.056,-0.084,-0.1008,-0.1008,-0.084,-0.101,-0.1289,-0.1513,-0.1569,-0.1853,-0.1682,-0.1343,-0.0949,-0.1004,-0.1504,-0.2114,-0.2615,-0.2728,-0.2508,-0.245,-0.2452,-0.2397,-0.3042,-0.3382,-0.3473,-0.3477,-0.3492,-0.3531,-0.367,-0.4063,-0.4334,-0.4244,-0.4341,-0.4989,-0.5458,-0.5725,-0.5995,-0.6004,-0.6288,-0.6627,-0.6999,-0.7315,-0.7735,-0.8159,-0.8593,-0.9169,-0.9865,-1.0387,-1.0568,-1.0813,-1.1074,-1.1225,-1.1174,-1.1174,-1.1166,-1.0889,-1.0659,2.7348,2.6759,2.7282,2.7504,2.7493,2.7558,2.7593,2.7467,2.6961,2.6319,2.5806,2.5329,2.4575,2.3768,2.3365,2.3217,2.3144,2.314,2.3232,2.3206,2.2997,2.3027,2.3522,2.3283,2.2803,2.2668,2.2545,2.2358,2.1513,2.0845,2.0559,2.0489,1.9798,1.9245,1.9464,1.879,1.8587,1.8369,1.7754,1.7021,1.6451,1.5928,1.5452,1.4971,1.4354,1.3999,1.3488,1.2628,1.1589,1.0965,0.9864,0.8567,0.7228,0.6411,0.5591,0.4306,0.3044,0.2057,0.1283,0.0503,0.0224,0.0168,0.028,0.0,-0.028,-0.0335,-0.0448,-0.0841,-0.0785,-0.0448,-0.0056,0.0168,-0.0168,-0.0669,-0.1058,-0.1057,-0.0947,-0.0947,-0.0891,-0.078,-0.0612,-0.0834,-0.1167,-0.1487,-0.1689,-0.2085,-0.2099,-0.2266,-0.2546,-0.2707,-0.2925,-0.3267,-0.366,-0.3993,-0.432,-0.4488,-0.4878,-0.5269,-0.5819,-0.6136,-0.6519,-0.6945,-0.7374,-0.8096,-0.8917,-0.9271,-0.9347,-0.9755,-1.021,-1.0269,-1.0226,-1.0269,-1.0312,-1.0218,-1.0087,2.808,2.7662,2.8013,2.8344,2.8612,2.8362,2.8237,2.8201,2.7869,2.7154,2.6239,2.5633,2.4843,2.4118,2.3629,2.349,2.3756,2.3492,2.3572,2.3525,2.3498,2.3727,2.4007,2.3823,2.3547,2.3407,2.3012,2.2969,2.2811,2.2229,2.1552,2.1247,2.0462,2.0143,1.9899,1.9591,1.9368,1.8864,1.8608,1.7985,1.7325,1.6967,1.6617,1.6157,1.57,1.5244,1.4891,1.3826,1.2918,1.2307,1.1316,1.0033,0.8763,0.8273,0.7576,0.6513,0.5649,0.4996,0.3805,0.2766,0.1887,0.1667,0.1893,0.2001,0.1614,0.1393,0.1004,0.0502,0.0503,0.0615,0.084,0.1121,0.1063,0.0894,0.067,0.0613,0.0502,0.0501,0.0723,0.1058,0.1393,0.2062,0.1558,0.0778,0.0167,-0.0446,-0.0614,-0.0558,-0.0724,-0.0946,-0.1336,-0.1668,-0.1836,-0.2225,-0.2728,-0.306,-0.3453,-0.4012,-0.4618,-0.5007,-0.5441,-0.5819,-0.6249,-0.7025,-0.7753,-0.7836,-0.7782,-0.8593,-0.9354,-0.9458,-0.9569,-0.9569,-0.9517,-0.9465,-0.9517,2.8507,2.8664,2.829,2.836,2.8761,2.8492,2.837,2.837,2.8335,2.7859,2.6995,2.585,2.5163,2.4765,2.4195,2.4016,2.4521,2.4515,2.44,2.4408,2.4566,2.4653,2.472,2.4534,2.4206,2.3979,2.3647,2.3601,2.3586,2.3157,2.2492,2.1933,2.1219,2.0534,2.0174,2.0089,1.9722,1.9339,1.9118,1.8588,1.7935,1.7571,1.7353,1.6769,1.6343,1.6064,1.6169,1.4846,1.3873,1.343,1.254,1.1493,1.0383,1.0112,0.9423,0.8593,0.8214,0.7617,0.6701,0.5093,0.4011,0.3793,0.3914,0.4213,0.377,0.2874,0.2323,0.2109,0.2055,0.2062,0.2122,0.2183,0.2291,0.2179,0.2066,0.2009,0.195,0.1949,0.2173,0.2736,0.3186,0.3627,0.4012,0.3109,0.233,0.1721,0.1167,0.1166,0.1168,0.089,0.0334,0.0,-0.0112,-0.0558,-0.1284,-0.173,-0.2343,-0.3067,-0.368,-0.4015,-0.4353,-0.4732,-0.505,-0.5429,-0.5977,-0.6077,-0.6342,-0.7079,-0.7835,-0.8567,-0.8903,-0.9001,-0.9054,-0.9054,-0.9106,2.8834,2.8905,2.8743,2.8767,2.8905,2.8644,2.8525,2.8474,2.8281,2.7903,2.7345,2.6413,2.595,2.5736,2.5434,2.5165,2.5434,2.5323,2.5288,2.5237,2.5248,2.542,2.5416,2.5341,2.4993,2.4828,2.4529,2.4397,2.4547,2.3934,2.3951,2.3355,2.2358,2.1487,2.1051,2.0691,2.0308,2.0085,1.9843,1.9465,1.8755,1.8394,1.808,1.738,1.7005,1.6723,1.6448,1.5623,1.4949,1.4269,1.3552,1.2609,1.1715,1.1566,1.1048,1.0222,1.0105,0.9841,0.9261,0.7495,0.5944,0.564,0.5779,0.5914,0.5475,0.458,0.4078,0.3865,0.3704,0.3712,0.3564,0.3622,0.3566,0.3405,0.3297,0.3294,0.3307,0.3309,0.3477,0.3999,0.4366,0.4736,0.512,0.5445,0.4666,0.3944,0.3387,0.2885,0.2834,0.2615,0.2004,0.1505,0.1338,0.0782,0.0056,-0.0614,-0.1286,-0.1955,-0.2681,-0.297,-0.3198,-0.3463,-0.3732,-0.4058,-0.4353,-0.4761,-0.514,-0.5579,-0.6382,-0.7545,-0.8203,-0.858,-0.8633,-0.8692,-0.8745,2.8975,2.8975,2.8975,2.8975,2.8975,2.8791,2.8718,2.8676,2.8489,2.803,2.75,2.7116,2.69,2.6757,2.6358,2.6349,2.6339,2.6226,2.6269,2.6226,2.6214,2.6342,2.6522,2.6446,2.6058,2.5831,2.548,2.533,2.5392,2.4679,2.4546,2.443,2.4083,2.3128,2.2216,2.1633,2.1213,2.0824,2.054,2.0127,1.9317,1.8983,1.8525,1.7841,1.7434,1.7115,1.6735,1.6107,1.5499,1.4926,1.4283,1.3569,1.2986,1.2502,1.2258,1.1846,1.1548,1.1499,1.0864,0.9724,0.8143,0.784,0.7664,0.7357,0.6709,0.644,0.6264,0.5562,0.5458,0.5374,0.5195,0.4986,0.4897,0.4689,0.4356,0.4349,0.4587,0.4671,0.4889,0.5173,0.5596,0.5972,0.6005,0.6337,0.6055,0.5386,0.4878,0.4433,0.4275,0.3999,0.3503,0.306,0.2674,0.2007,0.1228,0.0447,-0.0279,-0.0671,-0.1287,-0.1807,-0.2033,-0.2315,-0.2632,-0.3022,-0.3372,-0.3618,-0.4005,-0.4522,-0.5571,-0.674,-0.7408,-0.8133,-0.8309,-0.8368,-0.8474,2.8975,2.8975,2.8975,2.8975,2.8975,2.8975,2.8975,2.8929,2.891,2.8526,2.7926,2.7787,2.7746,2.7533,2.7045,2.7068,2.7314,2.713,2.7014,2.7041,2.7183,2.7432,2.7382,2.7222,2.6885,2.6618,2.6264,2.6032,2.616,2.5581,2.5329,2.5313,2.5229,2.4677,2.3819,2.3014,2.207,2.1053,2.0812,2.0311,1.9594,1.9258,1.8693,1.8055,1.7733,1.7461,1.6947,1.6497,1.5952,1.5499,1.4971,1.4376,1.3909,1.3779,1.3474,1.3072,1.314,1.2957,1.2502,1.1366,1.0543,0.982,0.9422,0.9058,0.8758,0.8567,0.8243,0.7422,0.749,0.7324,0.6854,0.6406,0.6318,0.6034,0.5737,0.5673,0.5931,0.6326,0.6611,0.6976,0.7115,0.7282,0.7143,0.7112,0.7058,0.6722,0.6322,0.5987,0.566,0.5218,0.4718,0.4006,0.3566,0.3063,0.2228,0.1395,0.0782,0.0447,0.0113,-0.0343,-0.0927,-0.1345,-0.1723,-0.2061,-0.2596,-0.3034,-0.3275,-0.3522,-0.4616,-0.5663,-0.6942,-0.7632,-0.786,-0.799,-0.8103,2.8975,2.8975,2.8975,2.8975,2.8975,2.8975,2.8975,2.8975,2.8975,2.8828,2.865,2.8594,2.8549,2.8375,2.8177,2.8038,2.8161,2.8196,2.8018,2.7763,2.7893,2.7759,2.7707,2.7648,2.75,2.7278,2.6926,2.6799,2.692,2.6482,2.6483,2.6548,2.6296,2.5688,2.4519,2.3675,2.2986,2.2231,2.1795,2.118,2.0025,1.9581,1.904,1.811,1.795,1.7705,1.7356,1.6987,1.6615,1.6281,1.5808,1.5244,1.4801,1.4617,1.4201,1.3956,1.3931,1.3884,1.3674,1.3072,1.2355,1.1516,1.0812,1.0403,0.9814,0.994,0.9624,0.9404,0.9445,0.928,0.8828,0.8618,0.8398,0.7683,0.7356,0.7417,0.7672,0.812,0.8501,0.8914,0.9208,0.9653,0.9694,0.8769,0.8453,0.7997,0.7575,0.6885,0.6426,0.6091,0.5647,0.4776,0.4174,0.384,0.3284,0.2521,0.1816,0.143,0.1273,0.1116,0.0535,-0.0242,-0.0793,-0.1176,-0.1852,-0.2525,-0.2826,-0.3182,-0.363,-0.4572,-0.5825,-0.6859,-0.7144,-0.743,-0.7676,2.9439,2.9397,2.9439,2.9274,2.9012,2.8975,2.8975,2.8975,2.8975,2.8975,2.8998,2.8975,2.891,2.8863,2.881,2.8737,2.8644,2.8456,2.85,2.821,2.8112,2.8075,2.801,2.7943,2.7869,2.7718,2.7601,2.753,2.7195,2.7272,2.722,2.722,2.7227,2.6505,2.5467,2.4822,2.3998,2.3243,2.267,2.2045,2.1073,2.0367,1.9792,1.8962,1.8535,1.8301,1.8193,1.7942,1.7548,1.7286,1.6873,1.6247,1.5816,1.5332,1.5062,1.505,1.4915,1.4835,1.4606,1.4457,1.369,1.2928,1.2172,1.1668,1.1276,1.1305,1.114,1.105,1.1233,1.0954,1.0565,1.0435,0.9917,0.919,0.9071,0.9134,0.9214,0.9713,0.9942,1.0376,1.1019,1.1592,1.1983,1.0914,1.0045,0.9445,0.8873,0.8094,0.7279,0.6766,0.6386,0.5681,0.4919,0.448,0.4163,0.3629,0.2987,0.2395,0.2258,0.2233,0.1725,0.0876,0.0314,-0.0316,-0.0957,-0.1663,-0.24,-0.2882,-0.325,-0.3837,-0.481,-0.5665,-0.636,-0.6713,-0.6949,3.0228,3.0228,3.0246,2.9787,2.9145,2.903,2.8975,2.8975,2.8975,2.8975,2.8975,2.8994,2.8929,2.8834,2.8828,2.8737,2.8594,2.8272,2.8342,2.8386,2.8246,2.8308,2.8404,2.8422,2.8237,2.8027,2.7926,2.7811,2.7338,2.7444,2.7595,2.7595,2.7491,2.7082,2.6544,2.5915,2.4929,2.4064,2.3492,2.2741,2.1806,2.1462,2.0779,2.0024,1.9531,1.9658,1.9566,1.9373,1.9075,1.8795,1.8477,1.7713,1.7055,1.6373,1.6489,1.6497,1.6275,1.5981,1.568,1.5578,1.5349,1.4857,1.4356,1.3731,1.3035,1.2644,1.2493,1.2307,1.2355,1.2143,1.1887,1.1587,1.1241,1.094,1.0746,1.0726,1.0777,1.0937,1.1145,1.1623,1.2285,1.2834,1.3342,1.2682,1.1826,1.0947,1.0313,0.9294,0.8428,0.7329,0.6947,0.6574,0.5857,0.5194,0.484,0.4582,0.408,0.3442,0.3119,0.2981,0.2473,0.1935,0.1296,0.0588,-0.0066,-0.0797,-0.1823,-0.2399,-0.2796,-0.3403,-0.3721,-0.4527,-0.5176,-0.5686,-0.606,3.1054,3.1054,3.1054,3.0595,2.9843,2.925,2.8975,2.8975,2.8952,2.8952,2.8975,2.8952,2.8905,2.8863,2.8791,2.8743,2.8644,2.8525,2.8518,2.85,2.843,2.85,2.8543,2.8562,2.8466,2.8414,2.8291,2.8156,2.8045,2.7979,2.7922,2.8025,2.7882,2.7659,2.7272,2.6836,2.5698,2.4786,2.4281,2.3494,2.2671,2.227,2.1615,2.1121,2.0713,2.0848,2.0813,2.0606,2.0353,2.0138,1.9318,1.8513,1.814,1.7196,1.6803,1.7106,1.7285,1.7458,1.7353,1.7213,1.7046,1.693,1.6694,1.5437,1.4512,1.392,1.3838,1.3764,1.3736,1.366,1.3371,1.3067,1.2711,1.2472,1.234,1.2348,1.2411,1.2446,1.2682,1.3108,1.38,1.436,1.4808,1.4764,1.3908,1.2788,1.1694,1.0694,0.954,0.8453,0.7883,0.7561,0.6633,0.598,0.5793,0.5537,0.5026,0.455,0.4159,0.3705,0.3128,0.2578,0.2063,0.1403,0.0604,-0.0469,-0.1534,-0.1995,-0.2252,-0.2045,-0.24,-0.321,-0.4027,-0.4542,-0.5099,3.188,3.188,3.188,3.1403,3.0558,2.9483,2.9007,2.8994,2.897,2.8952,2.8994,2.8952,2.8905,2.8858,2.881,2.8761,2.8662,2.8612,2.8587,2.8587,2.8587,2.8587,2.8587,2.8562,2.8536,2.8518,2.8484,2.8353,2.8353,2.8264,2.8182,2.8182,2.8182,2.7882,2.7444,2.695,2.6337,2.5553,2.4891,2.4264,2.3644,2.3125,2.2788,2.2214,2.1946,2.1833,2.2081,2.1914,2.1448,2.1452,2.0663,2.004,1.9574,1.858,1.7961,1.8254,1.8345,1.8505,1.8405,1.8532,1.8507,1.8415,1.8425,1.7449,1.6479,1.5817,1.5527,1.533,1.5352,1.5331,1.4965,1.4611,1.4257,1.3901,1.3901,1.3959,1.4051,1.4096,1.4461,1.4872,1.5414,1.5992,1.6225,1.6239,1.5685,1.4258,1.302,1.2046,1.0754,0.9392,0.9105,0.8991,0.775,0.6674,0.6607,0.6445,0.5898,0.5413,0.4983,0.4466,0.3813,0.3353,0.2878,0.2076,0.1141,0.0134,-0.0804,-0.1342,-0.1606,-0.1467,-0.1528,-0.2217,-0.2979,-0.3376,-0.4003,3.2706,3.2669,3.2559,3.1916,3.1127,2.9637,2.9002,2.8994,2.8994,2.8975,2.8975,2.8994,2.8923,2.8858,2.8834,2.8737,2.8687,2.8619,2.8594,2.8587,2.8587,2.8587,2.8587,2.8518,2.8562,2.851,2.8432,2.838,2.83,2.8237,2.8182,2.82,2.836,2.8216,2.7814,2.7676,2.7233,2.6712,2.5999,2.5345,2.4735,2.4458,2.4318,2.3488,2.2974,2.2694,2.3378,2.3139,2.2353,2.2641,2.2517,2.1835,2.0872,2.0154,1.9686,1.9471,1.9423,1.941,1.9394,1.9477,1.9265,1.9192,1.9086,1.8734,1.8061,1.7179,1.6729,1.6536,1.649,1.6317,1.6023,1.5956,1.5662,1.5553,1.5575,1.5673,1.5831,1.5677,1.5405,1.5694,1.5716,1.6365,1.6807,1.6653,1.6045,1.5042,1.4212,1.3245,1.2174,1.0642,1.0224,1.0282,0.9075,0.7902,0.7634,0.7407,0.671,0.6225,0.5795,0.518,0.4547,0.4156,0.3758,0.2817,0.1811,0.1007,0.0201,-0.0403,-0.1008,-0.1411,-0.1475,-0.1544,-0.1907,-0.2354,-0.2991,3.3513,3.3403,3.2192,3.1219,3.0411,2.9434,2.8989,2.8975,2.8975,2.8975,2.8975,2.897,2.8905,2.8881,2.8858,2.8785,2.8669,2.8601,2.8601,2.8594,2.8587,2.8587,2.8587,2.8562,2.8562,2.8536,2.8458,2.8327,2.8264,2.8209,2.8217,2.8271,2.861,2.8787,2.8509,2.8494,2.8357,2.7794,2.6924,2.6108,2.5313,2.4816,2.4451,2.4234,2.3971,2.3905,2.4291,2.4187,2.384,2.3875,2.3423,2.2583,2.1545,2.1034,2.0808,2.0732,2.0375,2.0321,2.0356,2.0411,2.025,2.0112,2.0064,1.9838,1.9267,1.8366,1.7804,1.765,1.7501,1.7335,1.7179,1.7211,1.7143,1.7177,1.7185,1.7339,1.755,1.6982,1.6451,1.636,1.6237,1.6493,1.7052,1.6882,1.6225,1.5624,1.5033,1.4259,1.3492,1.2313,1.1526,1.1233,1.0315,0.9407,0.8896,0.8195,0.7541,0.7003,0.6555,0.5928,0.5216,0.4622,0.409,0.3418,0.2546,0.1878,0.1141,0.0403,-0.0202,-0.0673,-0.0875,-0.0806,-0.1008,-0.1443,-0.2133,3.3807,3.3642,3.2467,3.1256,3.0246,2.9714,2.9324,2.903,2.8975,2.8975,2.8975,2.897,2.8905,2.8863,2.8858,2.8767,2.8669,2.8608,2.8601,2.8612,2.8587,2.8587,2.8587,2.8587,2.8562,2.851,2.8406,2.83,2.8209,2.8182,2.8217,2.836,2.8948,2.936,2.9158,2.9256,2.9264,2.8659,2.7661,2.6694,2.5899,2.5441,2.5028,2.4921,2.4981,2.5012,2.5272,2.5286,2.5128,2.4675,2.4086,2.3741,2.3003,2.2679,2.2124,2.1771,2.1426,2.1171,2.1329,2.1376,2.1198,2.1042,2.1147,2.0963,2.0233,1.9379,1.9193,1.9024,1.9131,1.9003,1.8684,1.854,1.8508,1.8521,1.8372,1.8367,1.8181,1.777,1.7583,1.7577,1.7302,1.6831,1.7282,1.7589,1.7028,1.6892,1.6187,1.5378,1.4569,1.3582,1.2899,1.2197,1.1253,1.0236,0.9358,0.8728,0.8184,0.7702,0.7321,0.6207,0.5348,0.4888,0.4287,0.3885,0.3418,0.2883,0.2146,0.1476,0.1007,0.0739,0.0403,0.0134,-0.0202,-0.047,-0.0927,3.3476,3.3256,3.254,3.1421,3.0173,3.0026,2.9622,2.9049,2.8975,2.8975,2.8975,2.8975,2.8905,2.8858,2.8828,2.8712,2.8644,2.8651,2.8619,2.8587,2.8587,2.8587,2.8587,2.8562,2.8536,2.8458,2.8353,2.8273,2.8182,2.8342,2.8566,2.8566,2.9027,2.9562,2.9355,2.9384,2.9566,2.9093,2.8252,2.7329,2.6668,2.6128,2.5725,2.5592,2.5724,2.6049,2.6319,2.6409,2.6228,2.5705,2.4935,2.4609,2.4177,2.3788,2.3187,2.2682,2.2136,2.2035,2.211,2.226,2.2009,2.1799,2.2072,2.1731,2.0927,2.063,2.0382,2.0426,2.049,2.0378,1.9994,1.9821,1.9789,1.9901,1.9724,1.9448,1.9108,1.8639,1.8552,1.8564,1.7893,1.7279,1.7436,1.771,1.767,1.7607,1.7178,1.6513,1.5644,1.4487,1.3472,1.2849,1.2111,1.1017,1.0091,0.9268,0.8759,0.856,0.8032,0.6597,0.5484,0.5153,0.4891,0.4691,0.4223,0.3754,0.3353,0.2681,0.2347,0.1945,0.1544,0.1141,0.1074,0.0805,0.0403,3.2063,3.087,3.0705,3.0099,2.9329,2.9232,2.9122,2.9012,2.8975,2.8975,2.8975,2.8975,2.8975,2.897,2.897,2.8881,2.8718,2.8676,2.8626,2.8594,2.8587,2.8587,2.8587,2.8562,2.8528,2.8468,2.838,2.8282,2.8405,2.8852,2.9155,2.9137,3.06,3.1031,3.0953,3.0942,3.0771,3.0099,2.932,2.8452,2.7891,2.7219,2.6318,2.6204,2.6325,2.6678,2.6903,2.6822,2.6782,2.6513,2.6031,2.5714,2.5261,2.4615,2.395,2.3455,2.2956,2.2679,2.2776,2.2858,2.2525,2.2299,2.2326,2.1917,2.1433,2.1289,2.1232,2.1352,2.1382,2.1184,2.0909,2.0902,2.0932,2.1247,2.1316,2.0938,2.06,1.972,1.9199,1.8455,1.7591,1.7298,1.7256,1.7289,1.7071,1.6898,1.6548,1.5921,1.5835,1.4934,1.4055,1.3455,1.2797,1.2251,1.1483,1.0034,0.9402,0.9268,0.8812,0.7567,0.6461,0.5686,0.5422,0.5286,0.5093,0.4694,0.4223,0.3754,0.3284,0.2883,0.2482,0.2216,0.2149,0.2013,0.1677]}]]